[[{"header":{"parameterUnit":"m.s-1","parameterCategory":1,"la1":31.0,"la2":29.5877,"lo1":-88.7671,"lo2":-86.6584,"dy":0.0162,"dx":0.0185,"nx":115,"ny":88,"refTime":"2023-03-06T06:00:00:Z","depth":0,"parameterNumber":2,"parameterNumberName":"U-component_of_WINDS"},"data":[0.0,0.0,0.0,0.0,0.0,0.0,0.0,0.0,0.0,0.0,0.0,0.0,0.0,0.0,0.0,0.0,0.0,0.0,0.0,0.0,0.0,0.0,0.0,0.0,0.0,0.0,0.0,0.0,0.0,0.0,0.0,0.0,0.0,0.0,0.0,0.0,0.0,0.0,0.0,0.0,0.0,0.0,0.0,0.0,0.0,0.0,0.0,0.0,0.0,0.0,0.0,0.0,0.0,0.0,0.0,0.0,0.0,0.0,0.0,0.0,0.0,0.0,0.0,0.0,0.0,0.0,0.0,0.0,0.0,0.0,0.0,0.0,0.0,0.0,0.0,0.0,0.0,0.0,0.0,0.0,0.0,0.0,0.0,0.0,0.0,0.0,0.0,0.0,0.0,0.0,0.0,0.0,0.0,0.0,0.0,0.0,0.0,0.0,0.0,0.0,0.0,0.0,0.0,0.0,0.0,0.0,0.0,0.0,0.0,0.0,0.0,0.0,0.0,0.0,0.0,0.0,0.0,0.0,0.0,0.0,0.0,0.0,0.0,0.0,0.0,0.0,0.0,0.0,0.0,0.0,0.0,0.0,0.0,0.0,0.0,0.0,0.0,0.0,0.0,0.0,0.0,0.0,0.0,0.0,0.0,0.0,0.0,0.0,0.0,0.0,0.0,0.0,0.0,0.0,0.0,0.0,0.0,0.0,0.0,0.0,0.0,0.0,0.0,0.0,0.0,0.0,0.0,0.0,0.0,0.0,0.0,0.0,0.0,0.0,0.0,0.0,0.0,0.0,0.0,0.0,0.0,0.0,0.0,0.0,0.0,0.0,0.0,0.0,0.0,0.0,0.0,0.0,0.0,0.0,0.0,0.0,0.0,0.0,0.0,0.0,0.0,0.0,0.0,0.0,0.0,0.0,0.0,0.0,0.0,0.0,0.0,0.0,0.0,0.0,0.0,0.0,0.0,0.0,0.0,0.0,0.0,0.0,0.0,0.0,0.0,0.0,0.0,0.0,0.0,0.0,0.0,0.0,0.0,0.0,0.0,0.0,0.0,0.0,0.0,0.0,0.0,0.0,0.0,0.0,0.0,0.0,0.0,0.0,0.0,0.0,0.0,0.0,0.0,0.0,0.0,0.0,0.0,0.0,0.0,0.0,0.0,0.0,0.0,0.0,0.0,0.0,0.0,0.0,0.0,0.0,0.0,0.0,0.0,0.0,0.0,0.0,0.0,0.0,0.0,0.0,0.0,0.0,0.0,0.0,0.0,0.0,0.0,0.0,0.0,0.0,0.0,0.0,0.0,0.0,0.0,0.0,0.0,0.0,0.0,0.0,0.0,0.0,0.0,0.0,0.0,0.0,0.0,0.0,0.0,0.0,0.0,0.0,0.0,0.0,0.0,0.0,0.0,0.0,0.0,0.0,0.0,0.0,0.0,0.0,0.0,0.0,0.0,0.0,0.0,0.0,0.0,0.0,0.0,0.0,0.0,0.0,0.0,0.0,0.0,0.0,0.0,0.0,0.0,0.0,0.0,0.0,0.0,0.0,0.0,0.0,0.0,0.0,0.0,0.0,0.0,0.0,0.0,0.0,0.0,0.0,0.0,0.0,0.0,0.0,0.0,0.0,0.0,0.0,0.0,0.0,0.0,0.0,0.0,0.0,0.0,0.0,0.0,0.0,0.0,0.0,0.0,0.0,0.0,0.0,0.0,0.0,0.0,0.0,0.0,0.0,0.0,0.0,0.0,0.0,0.0,0.0,0.0,0.0,0.0,0.0,0.0,0.0,0.0,0.0,0.0,0.0,0.0,0.0,0.0,0.0,0.0,0.0,0.0,0.0,0.0,0.0,0.0,0.0,0.0,0.0,0.0,0.0,0.0,0.0,0.0,0.0,0.0,0.0,0.0,0.0,0.0,0.0,0.0,0.0,0.0,0.0,0.0,0.0,0.0,0.0,0.0,0.0,0.0,0.0,0.0,0.0,0.0,0.0,0.0,0.0,0.0,0.0,0.0,0.0,0.0,0.0,0.0,0.0,0.0,0.0,0.0,0.0,0.0,0.0,0.0,0.0,0.0,0.0,0.0,0.0,0.0,0.0,0.0,0.0,0.0,0.0,0.0,0.0,0.0,0.0,0.0,0.0,0.0,0.0,0.0,0.0,0.0,0.0,0.0,0.0,0.0,0.0,0.0,0.0,0.0,0.0,0.0,0.0,0.0,0.0,0.0,0.0,0.0,0.0,0.0,0.0,0.0,0.0,0.0,0.0,0.0,0.0,0.0,0.0,0.0,0.0,0.0,0.0,0.0,0.0,0.0,0.0,0.0,0.0,0.0,0.0,0.0,0.0,0.0,0.0,0.0,0.0,0.0,0.0,0.0,0.0,0.0,0.0,0.0,0.0,0.0,0.0,0.0,0.0,0.0,0.0,0.0,0.0,0.0,0.0,0.0,0.0,0.0,0.0,0.0,0.0,0.0,0.0,0.0,0.0,0.0,0.0,0.0,0.0,0.0,0.0,0.0,0.0,0.0,0.0,0.0,0.0,0.0,0.0,0.0,0.0,0.0,0.0,0.0,0.0,0.0,0.0,0.0,0.0,0.0,0.0,0.0,0.0,0.0,0.0,0.0,0.0,0.0,0.0,0.0,0.0,0.0,0.0,0.0,0.0,0.0,0.0,0.0,0.0,0.0,0.0,0.0,0.0,0.0,0.0,0.0,0.0,0.0,0.0,0.0,0.0,0.0,0.0,0.0,0.0,0.0,0.0,0.0,0.0,0.0,0.0,0.0,0.0,0.0,0.0,0.0,0.0,0.0,0.0,0.0,0.0,0.0,0.0,0.0,0.0,0.0,0.0,0.0,0.0,0.0,0.0,0.0,0.0,0.0,0.0,0.0,0.0,0.0,0.0,0.0,0.0,0.0,0.0,0.0,0.0,0.0,0.0,0.0,0.0,0.0,0.0,0.0,0.0,0.0,0.0,0.0,0.0,0.0,0.0,0.0,0.0,0.0,0.0,0.0,0.0,0.0,0.0,0.0,0.0,0.0,0.0,0.0,0.0,0.0,0.0,0.0,0.0,0.0,0.0,0.0,0.0,0.0,0.0,0.0,0.0,0.0,0.0,0.0,0.0,0.0,0.0,0.0,0.0,0.0,0.0,0.0,0.0,0.0,0.0,0.0,0.0,0.0,0.0,0.0,0.0,0.0,0.0,0.0,0.0,0.0,0.0,0.0,0.0,0.0,0.0,0.0,0.0,0.0,0.0,0.0,0.0,0.0,0.0,0.0,0.0,0.0,0.0,0.0,0.0,0.0,0.0,0.0,0.0,0.0,0.0,0.0,0.0,0.0,0.0,0.0,0.0,0.0,0.0,0.0,0.0,0.0,0.0,0.0,0.0,0.0,0.0,0.0,0.0,0.0,0.0,0.0,0.0,0.0,0.0,0.0,0.0,0.0,0.0,0.0,0.0,0.0,0.0,0.0,0.0,0.0,0.0,0.0,0.0,0.0,0.0,0.0,0.0,0.0,0.0,0.0,0.0,0.0,0.0,0.0,0.0,0.0,0.0,0.0,0.0,0.0,0.0,0.0,0.0,0.0,0.0,0.0,0.0,0.0,0.0,0.0,0.0,0.0,0.0,0.0,0.0,0.0,0.0,0.0,0.0,0.0,0.0,0.0,0.0,0.0,0.0,0.0,0.0,0.0,0.0,0.0,0.0,0.0,0.0,0.0,0.0,0.0,0.0,0.0,0.0,0.0,0.0,0.0,0.0,0.0,0.0,0.0,0.0,0.0,0.0,0.0,0.0,0.0,0.0,0.0,0.0,0.0,0.0,0.0,0.0,0.0,0.0,0.0,0.0,0.0,0.0,0.0,0.0,0.0,0.0,0.0,0.0,0.0,0.0,0.0,0.0,0.0,0.0,0.0,0.0,0.0,0.0,0.0,0.0,0.0,0.0,0.0,0.0,0.0,0.0,0.0,0.0,0.0,0.0,0.0,0.0,0.0,0.0,0.0,0.0,0.0,0.0,0.0,0.0,0.0,0.0,0.0,0.0,0.0,0.0,0.0,0.0,0.0,0.0,0.0,0.0,0.0,0.0,0.0,0.0,0.0,0.0,0.0,0.0,0.0,0.0,0.0,0.0,0.0,0.0,0.0,0.0,0.0,0.0,0.0,0.0,0.0,0.0,0.0,0.0,0.0,0.0,0.0,0.0,0.0,0.0,0.0,0.0,0.0,0.0,0.0,0.0,0.0,0.0,0.0,0.0,0.0,0.0,0.0,0.0,0.0,0.0,-2.3595,0.0,0.0,0.0,0.0,0.0,0.0,0.0,0.0,0.0,0.0,0.0,0.0,0.0,0.0,0.0,0.0,0.0,0.0,0.0,0.0,0.0,0.0,0.0,0.0,0.0,0.0,0.0,0.0,0.0,0.0,0.0,0.0,0.0,0.0,0.0,0.0,0.0,0.0,0.0,0.0,0.0,0.0,0.0,0.0,0.0,0.0,0.0,0.0,0.0,0.0,0.0,0.0,0.0,0.0,0.0,0.0,0.0,0.0,0.0,0.0,0.0,0.0,0.0,0.0,0.0,0.0,0.0,0.0,0.0,0.0,0.0,0.0,0.0,0.0,0.0,0.0,0.0,0.0,0.0,0.0,0.0,0.0,0.0,0.0,0.0,0.0,0.0,0.0,0.0,0.0,0.0,0.0,0.0,0.0,0.0,0.0,0.0,0.0,0.0,0.0,0.0,0.0,0.0,0.0,0.0,0.0,0.0,0.0,0.0,0.0,-2.3595,-2.3595,-2.3595,-2.3595,-2.3595,0.0,0.0,0.0,0.0,0.0,0.0,0.0,0.0,0.0,0.0,0.0,0.0,0.0,0.0,0.0,0.0,0.0,0.0,0.0,0.0,0.0,0.0,0.0,0.0,0.0,0.0,0.0,0.0,0.0,0.0,0.0,0.0,0.0,0.0,0.0,0.0,0.0,0.0,0.0,0.0,0.0,0.0,0.0,0.0,0.0,0.0,0.0,0.0,0.0,0.0,0.0,0.0,0.0,0.0,0.0,0.0,0.0,0.0,0.0,0.0,0.0,0.0,0.0,0.0,0.0,0.0,0.0,0.0,0.0,0.0,0.0,0.0,0.0,0.0,0.0,0.0,0.0,0.0,0.0,0.0,0.0,0.0,0.0,0.0,0.0,0.0,0.0,0.0,0.0,0.0,0.0,0.0,0.0,0.0,0.0,0.0,0.0,0.0,0.0,0.0,0.0,0.0,0.0,0.0,0.0,0.0,0.0,0.0,0.0,0.0,0.0,0.0,-2.3595,-2.3595,-2.3595,0.0,0.0,0.0,0.0,0.0,0.0,0.0,0.0,0.0,0.0,0.0,0.0,0.0,0.0,0.0,0.0,0.0,0.0,0.0,0.0,0.0,0.0,0.0,0.0,0.0,0.0,0.0,0.0,0.0,0.0,0.0,0.0,0.0,0.0,0.0,0.0,0.0,0.0,0.0,0.0,0.0,0.0,0.0,0.0,0.0,0.0,0.0,0.0,0.0,0.0,0.0,0.0,0.0,0.0,0.0,0.0,0.0,0.0,0.0,0.0,0.0,0.0,0.0,0.0,0.0,0.0,0.0,0.0,0.0,0.0,0.0,0.0,0.0,0.0,0.0,0.0,0.0,0.0,0.0,0.0,0.0,0.0,0.0,0.0,0.0,0.0,0.0,0.0,0.0,0.0,0.0,0.0,0.0,0.0,0.0,0.0,0.0,0.0,0.0,0.0,0.0,0.0,0.0,0.0,0.0,0.0,0.0,0.0,0.0,0.0,-2.3595,-2.3595,-2.3595,0.0,-2.3573,0.0,0.0,0.0,0.0,0.0,0.0,0.0,0.0,0.0,0.0,0.0,0.0,0.0,0.0,0.0,0.0,0.0,0.0,0.0,0.0,0.0,0.0,0.0,0.0,0.0,0.0,0.0,0.0,0.0,0.0,0.0,0.0,0.0,0.0,0.0,0.0,0.0,0.0,0.0,0.0,0.0,0.0,0.0,0.0,0.0,0.0,0.0,0.0,0.0,0.0,0.0,0.0,0.0,0.0,0.0,0.0,0.0,0.0,0.0,0.0,0.0,0.0,0.0,0.0,0.0,0.0,0.0,0.0,0.0,0.0,0.0,0.0,0.0,0.0,0.0,0.0,0.0,0.0,0.0,0.0,0.0,0.0,0.0,0.0,0.0,0.0,0.0,0.0,0.0,0.0,0.0,0.0,0.0,0.0,0.0,0.0,0.0,0.0,0.0,0.0,0.0,0.0,0.0,0.0,0.0,0.0,0.0,0.0,0.0,0.0,-2.3595,-2.3595,-2.3595,-2.3595,0.0,0.0,0.0,0.0,0.0,0.0,0.0,0.0,0.0,0.0,0.0,0.0,0.0,0.0,0.0,0.0,0.0,0.0,0.0,0.0,0.0,0.0,0.0,0.0,0.0,0.0,0.0,0.0,0.0,0.0,0.0,0.0,0.0,0.0,0.0,0.0,0.0,0.0,0.0,0.0,0.0,0.0,0.0,0.0,0.0,0.0,0.0,0.0,0.0,0.0,0.0,0.0,0.0,0.0,0.0,0.0,0.0,0.0,0.0,0.0,0.0,0.0,0.0,0.0,0.0,0.0,0.0,0.0,0.0,0.0,0.0,0.0,0.0,0.0,0.0,0.0,0.0,0.0,0.0,0.0,0.0,0.0,0.0,0.0,0.0,0.0,0.0,0.0,0.0,0.0,0.0,0.0,0.0,0.0,0.0,0.0,0.0,0.0,0.0,0.0,0.0,0.0,0.0,0.0,0.0,0.0,0.0,0.0,0.0,0.0,-2.3595,-2.3595,-2.358,-2.3366,-2.3276,-2.334,0.0,0.0,0.0,0.0,0.0,0.0,0.0,0.0,0.0,0.0,0.0,0.0,0.0,0.0,0.0,0.0,0.0,0.0,0.0,0.0,0.0,0.0,0.0,0.0,0.0,0.0,0.0,0.0,0.0,0.0,0.0,0.0,0.0,0.0,0.0,0.0,0.0,0.0,0.0,0.0,0.0,0.0,0.0,0.0,0.0,0.0,0.0,0.0,0.0,0.0,0.0,0.0,0.0,0.0,0.0,0.0,0.0,0.0,0.0,0.0,0.0,0.0,0.0,0.0,0.0,0.0,0.0,0.0,0.0,0.0,0.0,0.0,0.0,0.0,0.0,0.0,0.0,0.0,0.0,0.0,0.0,0.0,0.0,0.0,0.0,0.0,0.0,0.0,0.0,0.0,0.0,0.0,0.0,0.0,0.0,0.0,0.0,0.0,0.0,0.0,0.0,0.0,0.0,0.0,0.0,0.0,0.0,0.0,-2.3595,-2.3595,-2.3595,-2.358,-2.2799,-2.2488,0.0,0.0,0.0,0.0,0.0,0.0,0.0,0.0,0.0,0.0,0.0,0.0,0.0,0.0,0.0,0.0,0.0,0.0,0.0,0.0,0.0,0.0,0.0,0.0,0.0,0.0,0.0,0.0,0.0,0.0,0.0,0.0,0.0,0.0,0.0,0.0,0.0,0.0,0.0,0.0,0.0,0.0,0.0,0.0,0.0,0.0,0.0,0.0,0.0,0.0,0.0,0.0,0.0,0.0,0.0,0.0,0.0,0.0,0.0,0.0,0.0,0.0,0.0,0.0,0.0,0.0,0.0,0.0,0.0,0.0,0.0,0.0,0.0,0.0,0.0,0.0,0.0,0.0,0.0,0.0,0.0,0.0,0.0,0.0,0.0,0.0,0.0,0.0,0.0,0.0,0.0,0.0,0.0,0.0,0.0,0.0,0.0,0.0,0.0,0.0,0.0,0.0,0.0,0.0,0.0,0.0,0.0,0.0,0.0,-2.3595,-2.3595,-2.3357,-2.2848,-2.2646,-2.2334,0.0,0.0,0.0,0.0,0.0,0.0,0.0,0.0,0.0,0.0,0.0,0.0,0.0,0.0,0.0,0.0,0.0,0.0,0.0,0.0,0.0,0.0,0.0,0.0,0.0,0.0,0.0,0.0,0.0,0.0,0.0,0.0,0.0,0.0,0.0,0.0,0.0,0.0,0.0,0.0,0.0,0.0,0.0,0.0,0.0,0.0,0.0,0.0,0.0,0.0,0.0,0.0,0.0,0.0,0.0,0.0,0.0,0.0,0.0,0.0,0.0,0.0,0.0,0.0,0.0,0.0,0.0,0.0,0.0,0.0,0.0,0.0,0.0,0.0,0.0,0.0,0.0,0.0,0.0,0.0,0.0,0.0,0.0,0.0,0.0,0.0,0.0,0.0,0.0,0.0,0.0,0.0,0.0,0.0,0.0,0.0,0.0,0.0,0.0,0.0,0.0,0.0,0.0,0.0,0.0,0.0,0.0,0.0,0.0,-2.3595,0.0,-2.2959,-2.2416,-2.2049,-2.1613,0.0,0.0,0.0,0.0,0.0,0.0,0.0,0.0,0.0,0.0,0.0,0.0,0.0,0.0,0.0,0.0,0.0,0.0,0.0,0.0,0.0,0.0,0.0,0.0,0.0,0.0,0.0,0.0,0.0,0.0,0.0,0.0,0.0,0.0,0.0,0.0,0.0,0.0,0.0,0.0,0.0,0.0,0.0,0.0,0.0,0.0,0.0,0.0,0.0,0.0,0.0,0.0,0.0,0.0,0.0,0.0,0.0,0.0,0.0,0.0,0.0,0.0,0.0,0.0,0.0,0.0,0.0,0.0,0.0,0.0,0.0,0.0,0.0,0.0,0.0,0.0,0.0,0.0,0.0,0.0,0.0,0.0,0.0,0.0,0.0,0.0,0.0,0.0,0.0,0.0,0.0,0.0,0.0,0.0,0.0,0.0,0.0,0.0,0.0,0.0,0.0,0.0,0.0,0.0,0.0,0.0,0.0,0.0,-2.3595,-2.358,-2.2842,-2.2461,-2.2387,-2.0988,-2.024,0.0,0.0,0.0,0.0,0.0,0.0,0.0,0.0,0.0,0.0,0.0,0.0,0.0,0.0,0.0,0.0,0.0,0.0,0.0,0.0,0.0,0.0,0.0,0.0,0.0,0.0,0.0,0.0,0.0,0.0,0.0,0.0,0.0,0.0,0.0,0.0,0.0,0.0,0.0,0.0,0.0,0.0,0.0,0.0,0.0,0.0,0.0,0.0,0.0,0.0,0.0,0.0,0.0,0.0,0.0,0.0,0.0,0.0,0.0,0.0,0.0,0.0,0.0,0.0,0.0,0.0,0.0,0.0,0.0,0.0,0.0,0.0,0.0,0.0,0.0,0.0,0.0,0.0,0.0,0.0,0.0,0.0,0.0,0.0,0.0,0.0,0.0,0.0,0.0,0.0,0.0,0.0,0.0,0.0,0.0,0.0,0.0,0.0,0.0,0.0,0.0,0.0,0.0,0.0,0.0,0.0,0.0,0.0,0.0,-2.3573,-2.3032,-2.2549,-2.2118,-2.1354,-2.0595,0.0,0.0,0.0,0.0,0.0,0.0,0.0,0.0,0.0,0.0,0.0,0.0,0.0,0.0,0.0,0.0,0.0,0.0,0.0,0.0,0.0,0.0,0.0,0.0,0.0,0.0,0.0,0.0,0.0,0.0,0.0,0.0,0.0,0.0,0.0,0.0,0.0,0.0,0.0,0.0,0.0,0.0,0.0,0.0,0.0,0.0,0.0,0.0,0.0,0.0,0.0,0.0,0.0,0.0,0.0,0.0,0.0,0.0,0.0,0.0,0.0,0.0,0.0,0.0,0.0,0.0,0.0,0.0,0.0,0.0,0.0,0.0,0.0,0.0,0.0,0.0,0.0,0.0,0.0,0.0,0.0,0.0,0.0,0.0,0.0,0.0,0.0,0.0,0.0,0.0,0.0,0.0,0.0,0.0,0.0,0.0,0.0,0.0,0.0,0.0,0.0,0.0,0.0,0.0,0.0,0.0,0.0,0.0,0.0,-2.354,-2.2647,-2.2014,-2.1642,-2.0818,-2.0167,-1.9712,0.0,0.0,0.0,0.0,0.0,0.0,0.0,0.0,0.0,0.0,0.0,0.0,0.0,0.0,0.0,0.0,0.0,0.0,0.0,0.0,0.0,0.0,0.0,0.0,0.0,0.0,0.0,0.0,0.0,0.0,0.0,0.0,0.0,0.0,0.0,0.0,0.0,0.0,0.0,0.0,0.0,0.0,0.0,0.0,0.0,0.0,0.0,0.0,0.0,0.0,0.0,0.0,0.0,0.0,0.0,0.0,0.0,0.0,0.0,0.0,0.0,0.0,0.0,0.0,0.0,0.0,0.0,0.0,0.0,0.0,0.0,0.0,0.0,0.0,0.0,0.0,0.0,0.0,0.0,0.0,0.0,0.0,0.0,0.0,0.0,0.0,0.0,0.0,0.0,0.0,0.0,0.0,0.0,0.0,0.0,0.0,0.0,0.0,0.0,0.0,0.0,0.0,0.0,0.0,0.0,0.0,0.0,0.0,-2.3512,-2.1945,-2.1157,-2.1101,-1.9737,-1.919,0.0,0.0,0.0,0.0,0.0,0.0,0.0,0.0,0.0,0.0,0.0,0.0,0.0,0.0,0.0,0.0,0.0,0.0,0.0,0.0,0.0,0.0,0.0,0.0,0.0,0.0,0.0,0.0,0.0,0.0,0.0,0.0,0.0,0.0,0.0,0.0,0.0,0.0,0.0,0.0,0.0,0.0,0.0,0.0,0.0,0.0,0.0,0.0,0.0,0.0,0.0,0.0,0.0,0.0,0.0,0.0,0.0,0.0,0.0,0.0,0.0,0.0,0.0,0.0,0.0,0.0,0.0,0.0,0.0,0.0,0.0,0.0,0.0,0.0,0.0,0.0,0.0,0.0,0.0,0.0,0.0,0.0,0.0,0.0,0.0,0.0,0.0,0.0,0.0,0.0,0.0,0.0,0.0,0.0,0.0,0.0,0.0,0.0,0.0,0.0,0.0,0.0,0.0,0.0,0.0,0.0,0.0,0.0,0.0,-2.3645,-2.2975,-2.239,-2.1888,-2.1321,-2.0822,0.0,0.0,0.0,0.0,0.0,0.0,0.0,0.0,0.0,0.0,0.0,0.0,0.0,0.0,0.0,0.0,0.0,0.0,0.0,0.0,0.0,0.0,0.0,0.0,0.0,0.0,0.0,0.0,0.0,0.0,0.0,0.0,0.0,0.0,0.0,0.0,0.0,0.0,0.0,0.0,0.0,0.0,0.0,0.0,0.0,0.0,0.0,0.0,0.0,0.0,0.0,0.0,0.0,0.0,0.0,0.0,0.0,0.0,0.0,0.0,0.0,0.0,0.0,0.0,0.0,0.0,0.0,0.0,0.0,0.0,0.0,0.0,0.0,0.0,0.0,0.0,0.0,0.0,0.0,0.0,0.0,0.0,0.0,0.0,0.0,0.0,0.0,0.0,0.0,0.0,0.0,0.0,0.0,0.0,0.0,0.0,0.0,0.0,0.0,0.0,0.0,0.0,0.0,0.0,0.0,0.0,0.0,0.0,-2.4292,-2.4062,-2.4009,-2.3594,-2.271,-2.1866,-2.1319,0.0,0.0,0.0,0.0,0.0,0.0,0.0,0.0,0.0,0.0,0.0,0.0,0.0,0.0,0.0,0.0,0.0,0.0,0.0,0.0,0.0,0.0,0.0,0.0,0.0,0.0,0.0,0.0,0.0,0.0,0.0,0.0,0.0,0.0,0.0,0.0,0.0,0.0,0.0,0.0,0.0,0.0,0.0,0.0,0.0,0.0,0.0,0.0,0.0,0.0,0.0,0.0,0.0,0.0,0.0,0.0,0.0,0.0,0.0,0.0,0.0,0.0,0.0,0.0,0.0,0.0,0.0,0.0,0.0,0.0,0.0,0.0,0.0,0.0,0.0,0.0,0.0,0.0,0.0,0.0,0.0,0.0,0.0,0.0,0.0,0.0,0.0,0.0,0.0,0.0,0.0,0.0,0.0,0.0,0.0,0.0,0.0,0.0,0.0,0.0,0.0,0.0,0.0,0.0,0.0,0.0,0.0,0.0,-2.4609,-2.4583,-2.4993,-2.4665,-2.358,-2.2022,-2.1269,0.0,0.0,0.0,0.0,0.0,0.0,0.0,0.0,0.0,0.0,0.0,0.0,0.0,0.0,0.0,0.0,0.0,0.0,0.0,0.0,0.0,0.0,0.0,0.0,0.0,0.0,0.0,0.0,0.0,0.0,0.0,0.0,0.0,0.0,0.0,0.0,0.0,0.0,0.0,0.0,0.0,0.0,0.0,0.0,0.0,0.0,0.0,0.0,0.0,0.0,0.0,0.0,0.0,0.0,0.0,0.0,0.0,0.0,0.0,0.0,0.0,0.0,0.0,0.0,0.0,0.0,0.0,0.0,0.0,0.0,0.0,0.0,0.0,0.0,0.0,0.0,0.0,0.0,0.0,0.0,0.0,0.0,0.0,0.0,0.0,0.0,0.0,0.0,0.0,0.0,0.0,0.0,0.0,0.0,0.0,0.0,0.0,0.0,0.0,0.0,0.0,0.0,0.0,0.0,0.0,0.0,0.0,0.0,-2.5297,-2.5151,-2.5675,-2.5578,-2.4751,-2.3568,-2.2565,0.0,0.0,0.0,0.0,0.0,0.0,0.0,0.0,0.0,0.0,0.0,0.0,0.0,0.0,0.0,0.0,0.0,0.0,0.0,0.0,0.0,0.0,0.0,0.0,0.0,0.0,0.0,0.0,0.0,0.0,0.0,0.0,0.0,0.0,0.0,0.0,0.0,0.0,0.0,0.0,0.0,0.0,0.0,0.0,0.0,0.0,0.0,0.0,-0.9271,0.0,0.0,0.0,0.0,0.0,0.0,0.0,0.0,0.0,0.0,0.0,0.0,0.0,0.0,0.0,0.0,0.0,0.0,0.0,0.0,0.0,0.0,0.0,0.0,0.0,0.0,0.0,0.0,0.0,0.0,0.0,0.0,0.0,0.0,0.0,0.0,0.0,0.0,0.0,0.0,0.0,0.0,0.0,0.0,0.0,0.0,0.0,0.0,0.0,0.0,0.0,0.0,0.0,0.0,0.0,0.0,0.0,0.0,0.0,-2.5038,-2.4948,-2.5438,-2.5403,-2.4728,-2.3754,-2.2902,0.0,0.0,0.0,0.0,0.0,0.0,0.0,0.0,0.0,0.0,0.0,0.0,0.0,0.0,0.0,0.0,0.0,0.0,0.0,0.0,0.0,0.0,0.0,0.0,0.0,0.0,0.0,0.0,0.0,0.0,0.0,0.0,0.0,0.0,0.0,0.0,0.0,0.0,0.0,0.0,0.0,0.0,0.0,0.0,0.0,0.0,0.0,0.0,0.0,0.0,0.0,0.0,0.0,0.0,0.0,0.0,0.0,0.0,0.0,0.0,0.0,0.0,0.0,0.0,0.0,0.0,0.0,0.0,0.0,0.0,0.0,0.0,0.0,0.0,0.0,0.0,0.0,0.0,0.0,0.0,0.0,0.0,0.0,0.0,0.0,0.0,0.0,0.0,0.0,0.0,0.0,0.0,0.0,0.0,0.0,0.0,0.0,0.0,0.0,0.0,0.0,0.0,0.0,0.0,0.0,0.0,0.0,-2.3695,-2.4706,-2.4787,-2.5076,-2.5001,-2.4437,-2.3498,-2.2929,-2.2684,0.0,0.0,0.0,0.0,0.0,0.0,0.0,0.0,0.0,0.0,0.0,0.0,0.0,0.0,0.0,0.0,0.0,0.0,0.0,0.0,0.0,0.0,0.0,0.0,0.0,0.0,0.0,0.0,0.0,0.0,0.0,0.0,0.0,0.0,0.0,0.0,0.0,0.0,-1.3884,-1.3584,0.0,0.0,0.0,0.0,0.0,0.0,0.0,0.0,-1.0238,0.0,0.0,0.0,0.0,0.0,0.0,0.0,0.0,0.0,0.0,0.0,0.0,0.0,0.0,0.0,0.0,0.0,0.0,0.0,0.0,0.0,0.0,0.0,0.0,0.0,0.0,0.0,0.0,0.0,0.0,0.0,0.0,0.0,0.0,0.0,0.0,0.0,0.0,0.0,0.0,0.0,0.0,0.0,0.0,0.0,0.0,0.0,0.0,0.0,0.0,0.0,0.0,0.0,0.0,0.0,0.0,-2.2295,-2.4357,-2.5609,-2.6005,-2.6008,-2.5675,-2.4975,-2.407,-2.3306,-2.2684,0.0,0.0,0.0,0.0,0.0,0.0,0.0,0.0,0.0,0.0,0.0,0.0,0.0,0.0,0.0,0.0,0.0,0.0,0.0,0.0,0.0,0.0,0.0,0.0,0.0,0.0,0.0,0.0,0.0,0.0,0.0,0.0,0.0,0.0,0.0,0.0,0.0,0.0,0.0,-1.3643,-1.3276,0.0,0.0,0.0,0.0,0.0,0.0,0.0,0.0,-0.9895,0.0,0.0,0.0,0.0,0.0,0.0,0.0,0.0,0.0,0.0,0.0,0.0,0.0,0.0,0.0,0.0,0.0,0.0,0.0,0.0,0.0,0.0,0.0,0.0,0.0,0.0,0.0,0.0,0.0,0.0,0.0,0.0,0.0,0.0,0.0,0.0,0.0,0.0,0.0,0.0,0.0,0.0,0.0,0.0,0.0,0.0,0.0,0.0,0.0,0.0,0.0,0.0,0.0,0.0,0.0,-2.2491,-2.3774,-2.4532,-2.4723,-2.4631,-2.4422,-2.4064,-2.3283,-2.2799,0.0,0.0,0.0,0.0,0.0,0.0,0.0,0.0,0.0,0.0,0.0,0.0,0.0,0.0,0.0,0.0,0.0,0.0,0.0,0.0,0.0,0.0,0.0,0.0,0.0,0.0,0.0,0.0,0.0,0.0,0.0,0.0,0.0,0.0,0.0,0.0,0.0,0.0,0.0,0.0,-1.4387,-1.3982,-1.3912,0.0,0.0,0.0,0.0,0.0,0.0,-1.1833,-1.1394,0.0,0.0,0.0,0.0,0.0,0.0,0.0,0.0,0.0,0.0,0.0,0.0,0.0,0.0,0.0,0.0,0.0,0.0,0.0,0.0,0.0,0.0,0.0,0.0,0.0,0.0,0.0,0.0,0.0,0.0,0.0,0.0,0.0,0.0,0.0,0.0,0.0,0.0,0.0,0.0,0.0,0.0,0.0,0.0,0.0,0.0,0.0,0.0,0.0,0.0,0.0,0.0,0.0,0.0,0.0,-2.2944,-2.3805,-2.4224,-2.4116,-2.3907,-2.368,-2.3517,-2.2662,-2.2348,0.0,0.0,0.0,0.0,0.0,0.0,0.0,0.0,0.0,0.0,0.0,0.0,0.0,0.0,0.0,0.0,0.0,0.0,0.0,0.0,0.0,0.0,0.0,0.0,0.0,0.0,0.0,0.0,0.0,0.0,0.0,0.0,0.0,0.0,0.0,0.0,0.0,0.0,0.0,0.0,0.0,-1.4826,-1.4804,-1.4803,0.0,0.0,0.0,0.0,-1.325,-1.3132,0.0,0.0,0.0,0.0,0.0,0.0,0.0,0.0,0.0,0.0,0.0,0.0,0.0,0.0,0.0,0.0,0.0,0.0,0.0,0.0,0.0,0.0,0.0,0.0,0.0,0.0,0.0,0.0,0.0,0.0,0.0,0.0,0.0,0.0,0.0,0.0,0.0,0.0,0.0,0.0,0.0,0.0,0.0,0.0,0.0,0.0,0.0,0.0,0.0,0.0,0.0,0.0,0.0,0.0,0.0,0.0,-2.4372,-2.6193,-2.7015,-2.6802,-2.6286,-2.5664,-2.4895,-2.342,-2.2657,0.0,0.0,0.0,0.0,0.0,0.0,0.0,0.0,0.0,0.0,0.0,0.0,0.0,0.0,0.0,0.0,0.0,0.0,0.0,0.0,0.0,0.0,0.0,0.0,0.0,0.0,0.0,0.0,0.0,0.0,0.0,0.0,0.0,0.0,0.0,0.0,0.0,0.0,0.0,0.0,0.0,-1.5446,-1.4882,-1.4803,-1.4645,0.0,0.0,-1.3735,-1.3186,-1.2922,0.0,0.0,0.0,0.0,0.0,0.0,0.0,0.0,0.0,0.0,0.0,0.0,0.0,0.0,0.0,0.0,0.0,0.0,0.0,0.0,0.0,0.0,0.0,0.0,0.0,0.0,0.0,0.0,0.0,0.0,0.0,0.0,0.0,0.0,0.0,0.0,0.0,0.0,0.0,0.0,0.0,0.0,0.0,0.0,0.0,0.0,0.0,0.0,0.0,0.0,0.0,0.0,0.0,0.0,0.0,-2.3425,-2.4537,-2.5649,-2.6186,-2.6038,-2.5695,-2.5157,-2.4492,-2.3935,-2.3375,0.0,0.0,0.0,0.0,0.0,0.0,0.0,0.0,0.0,0.0,0.0,0.0,0.0,0.0,0.0,0.0,0.0,0.0,0.0,0.0,0.0,0.0,0.0,0.0,0.0,0.0,0.0,0.0,0.0,0.0,0.0,0.0,0.0,0.0,0.0,0.0,0.0,0.0,0.0,0.0,0.0,0.0,-1.6301,-1.6534,0.0,0.0,0.0,-1.6024,-1.527,0.0,0.0,0.0,0.0,0.0,0.0,0.0,0.0,0.0,0.0,0.0,0.0,0.0,0.0,0.0,0.0,0.0,0.0,0.0,0.0,0.0,0.0,0.0,0.0,0.0,0.0,0.0,0.0,0.0,0.0,0.0,0.0,0.0,0.0,0.0,0.0,0.0,0.0,0.0,0.0,0.0,0.0,0.0,0.0,0.0,0.0,0.0,0.0,0.0,0.0,0.0,0.0,0.0,0.0,0.0,0.0,0.0,-2.4994,-2.5678,-2.5916,-2.5831,-2.5503,-2.5033,-2.4425,-2.4309,0.0,0.0,0.0,0.0,0.0,0.0,0.0,0.0,0.0,0.0,0.0,0.0,0.0,0.0,0.0,0.0,0.0,0.0,0.0,0.0,0.0,0.0,0.0,0.0,0.0,0.0,0.0,-1.811,0.0,0.0,0.0,0.0,0.0,0.0,0.0,0.0,0.0,0.0,0.0,0.0,0.0,0.0,-1.7459,-1.7565,-1.7947,-1.7853,0.0,0.0,-1.7853,-1.6855,-1.6141,-1.5533,0.0,0.0,0.0,0.0,0.0,0.0,0.0,0.0,0.0,0.0,0.0,0.0,0.0,0.0,0.0,0.0,0.0,0.0,0.0,0.0,0.0,0.0,0.0,0.0,0.0,0.0,0.0,0.0,0.0,0.0,0.0,0.0,0.0,0.0,0.0,0.0,0.0,0.0,0.0,0.0,0.0,0.0,0.0,0.0,0.0,0.0,0.0,0.0,0.0,0.0,0.0,0.0,0.0,0.0,0.0,-2.6439,-2.7534,-2.7949,-2.78,-2.7121,-2.6349,-2.5493,-2.4374,-2.3657,0.0,0.0,0.0,0.0,0.0,0.0,0.0,0.0,0.0,0.0,0.0,0.0,0.0,0.0,0.0,0.0,0.0,0.0,0.0,0.0,0.0,0.0,0.0,0.0,0.0,0.0,0.0,0.0,0.0,0.0,0.0,0.0,0.0,0.0,0.0,0.0,0.0,0.0,0.0,0.0,0.0,-1.8199,-1.8164,-1.8169,-1.7863,0.0,0.0,-1.7853,-1.6865,-1.6357,-1.5964,-1.56,0.0,0.0,0.0,0.0,0.0,0.0,0.0,0.0,0.0,0.0,0.0,0.0,0.0,0.0,0.0,0.0,0.0,0.0,0.0,0.0,0.0,0.0,0.0,0.0,0.0,0.0,0.0,0.0,0.0,0.0,0.0,0.0,0.0,0.0,0.0,0.0,0.0,0.0,0.0,0.0,0.0,0.0,0.0,0.0,0.0,0.0,0.0,0.0,0.0,0.0,0.0,0.0,0.0,-2.5348,-2.6587,-2.7196,-2.7649,-2.7954,-2.7124,-2.6319,-2.5632,-2.509,-2.4554,0.0,0.0,0.0,0.0,0.0,0.0,0.0,0.0,0.0,0.0,0.0,0.0,0.0,0.0,0.0,0.0,0.0,0.0,0.0,0.0,0.0,0.0,0.0,0.0,0.0,0.0,0.0,0.0,-1.8989,-1.9329,-2.0059,0.0,0.0,0.0,0.0,0.0,0.0,0.0,0.0,0.0,0.0,-1.8523,-1.8134,-1.8361,0.0,0.0,-1.8102,-1.8218,-1.7265,-1.6758,-1.6294,-1.5685,-1.4782,0.0,0.0,0.0,0.0,0.0,0.0,0.0,0.0,0.0,0.0,0.0,0.0,0.0,0.0,0.0,0.0,0.0,0.0,0.0,0.0,0.0,0.0,0.0,0.0,0.0,0.0,0.0,0.0,0.0,0.0,0.0,0.0,0.0,0.0,0.0,0.0,0.0,0.0,0.0,0.0,0.0,0.0,0.0,0.0,0.0,0.0,0.0,0.0,0.0,0.0,0.0,0.0,-2.5671,-2.6896,-2.6947,-2.7418,-2.826,-2.7109,-2.6298,-2.5896,-2.5637,-2.5187,0.0,0.0,0.0,0.0,0.0,0.0,0.0,0.0,0.0,0.0,0.0,0.0,0.0,0.0,0.0,0.0,0.0,0.0,0.0,0.0,0.0,0.0,0.0,0.0,0.0,0.0,0.0,0.0,-1.9861,-2.0263,-2.1075,0.0,0.0,0.0,0.0,0.0,0.0,0.0,0.0,0.0,0.0,-1.9076,-1.8881,-1.8831,-1.866,-1.8272,-1.858,-1.8557,-1.7745,-1.7133,-1.655,-1.6022,0.0,0.0,0.0,0.0,0.0,0.0,0.0,0.0,0.0,0.0,0.0,0.0,0.0,0.0,0.0,0.0,0.0,0.0,0.0,0.0,0.0,0.0,0.0,0.0,0.0,0.0,0.0,0.0,0.0,0.0,-2.5629,0.0,0.0,0.0,0.0,0.0,0.0,0.0,0.0,0.0,0.0,0.0,0.0,0.0,0.0,0.0,0.0,0.0,0.0,0.0,0.0,0.0,0.0,-2.6539,-2.7555,-2.7216,-2.7655,-2.8888,-2.7371,-2.6508,-2.6449,-2.5908,-2.5273,-2.4576,0.0,0.0,0.0,0.0,0.0,0.0,0.0,0.0,0.0,0.0,0.0,0.0,0.0,0.0,0.0,0.0,0.0,0.0,0.0,0.0,0.0,0.0,0.0,0.0,0.0,0.0,-2.0575,-2.0849,-2.1126,0.0,0.0,0.0,0.0,0.0,0.0,0.0,0.0,0.0,0.0,-2.0238,-1.9977,-2.0672,-1.9649,-1.8754,-1.8754,-1.8841,-1.87,-1.8099,-1.7357,-1.6768,0.0,0.0,0.0,0.0,0.0,0.0,0.0,0.0,0.0,0.0,0.0,0.0,0.0,0.0,0.0,0.0,0.0,0.0,0.0,0.0,0.0,0.0,0.0,0.0,0.0,0.0,0.0,-2.6893,-2.6634,0.0,0.0,0.0,0.0,0.0,0.0,0.0,0.0,0.0,0.0,0.0,-2.748,-2.7927,0.0,0.0,0.0,0.0,0.0,0.0,0.0,0.0,0.0,0.0,0.0,0.0,-2.6608,-2.756,-2.7775,-2.8224,-2.8961,-2.7901,-2.7027,-2.6521,-2.59,-2.5089,-2.403,0.0,0.0,0.0,0.0,0.0,0.0,0.0,0.0,0.0,0.0,0.0,0.0,0.0,0.0,0.0,0.0,0.0,0.0,0.0,0.0,0.0,0.0,0.0,0.0,0.0,-2.0529,0.0,0.0,0.0,0.0,0.0,0.0,0.0,0.0,0.0,0.0,0.0,-2.135,-2.0571,-2.0235,-1.9824,-1.9368,-1.889,-1.8423,0.0,0.0,0.0,0.0,0.0,0.0,0.0,0.0,0.0,0.0,0.0,0.0,0.0,0.0,-0.9846,-0.9466,-0.9392,-0.9387,-0.9293,0.0,0.0,0.0,0.0,0.0,0.0,0.0,0.0,0.0,0.0,0.0,0.0,0.0,0.0,-2.7641,0.0,-2.7015,0.0,0.0,0.0,0.0,0.0,0.0,0.0,0.0,-2.8342,-2.8589,-2.8477,-2.8916,-2.9107,0.0,-2.9107,-2.8623,0.0,0.0,0.0,0.0,0.0,0.0,0.0,0.0,-2.7176,-2.7919,-2.8414,-2.8761,-2.8947,-2.8136,-2.733,-2.6521,-2.59,-2.5214,-2.4395,-2.4242,-2.358,0.0,0.0,0.0,0.0,0.0,0.0,0.0,0.0,0.0,0.0,0.0,0.0,0.0,0.0,0.0,0.0,0.0,0.0,0.0,0.0,0.0,0.0,0.0,-2.1287,0.0,0.0,0.0,0.0,0.0,0.0,0.0,0.0,0.0,-2.1195,-2.173,-2.1807,-2.0779,-2.0526,-2.0164,-1.9342,0.0,0.0,0.0,0.0,0.0,0.0,0.0,-1.6745,-1.6008,-1.6127,-1.6189,-1.5737,-1.4472,-1.3259,-1.2533,0.0,0.0,-1.0194,-0.9987,-1.0023,-1.0017,-1.0017,-1.0023,-1.0017,-0.9686,-0.9373,0.0,0.0,0.0,0.0,0.0,0.0,0.0,0.0,-2.7773,-2.7919,0.0,-2.7803,0.0,0.0,0.0,0.0,0.0,-2.8209,0.0,0.0,-2.939,-2.9852,-3.0182,-3.0212,-3.0228,-3.0197,-3.0228,-3.0048,-2.9627,-2.8388,0.0,0.0,0.0,0.0,0.0,0.0,-2.8288,-2.8637,-2.9112,-2.9233,-2.9079,-2.8241,-2.7377,-2.6546,-2.603,-2.5669,-2.5556,-2.4484,-2.3785,-2.3686,-2.3512,0.0,0.0,0.0,0.0,0.0,0.0,0.0,0.0,0.0,0.0,0.0,0.0,0.0,0.0,0.0,0.0,0.0,0.0,0.0,0.0,-2.2067,0.0,0.0,0.0,0.0,0.0,0.0,0.0,0.0,0.0,0.0,-2.0986,-2.1697,-2.2092,-2.1568,0.0,0.0,0.0,0.0,-1.8646,-1.8811,-1.8439,-1.7988,-1.7517,-1.7406,-1.7254,-1.6868,0.0,0.0,-1.6906,-1.5999,-1.5062,-1.4756,-1.3608,-1.2364,-1.0973,-1.0707,-1.0673,-1.0673,-1.0687,-1.066,-1.0653,-1.0392,-1.004,-3.3485,0.0,0.0,0.0,0.0,-3.0121,-2.9753,-2.8952,-2.9447,-2.9623,-2.9477,-2.8907,0.0,0.0,0.0,0.0,0.0,0.0,-2.9707,-3.0405,-3.1077,-3.1535,-3.1832,-3.2299,-3.2524,-3.2524,-3.2524,-3.2236,-3.163,-3.0784,-2.9208,-2.6987,0.0,0.0,0.0,0.0,-2.85,-2.9292,-2.9867,-3.028,-3.0549,-2.9656,-2.8525,-2.7112,-2.7451,-2.7031,-2.5657,-2.5668,-2.5065,-2.3772,-2.3647,0.0,0.0,0.0,0.0,0.0,0.0,0.0,0.0,0.0,0.0,0.0,0.0,0.0,0.0,0.0,0.0,0.0,0.0,0.0,-2.2854,-2.2744,-2.2761,0.0,0.0,0.0,0.0,0.0,0.0,0.0,0.0,0.0,-2.1939,-2.2447,-2.2518,0.0,0.0,-2.0976,-1.9902,-1.9706,-1.938,-1.8349,-1.8654,0.0,-1.7144,-1.7175,-1.7369,-1.7241,-1.7684,-1.7956,-1.7674,-1.6685,-1.5669,-1.4933,-1.3851,-1.2941,-1.2563,-1.2091,-1.1824,-1.1804,-1.1804,-1.1804,-1.1804,-1.1697,-1.1578,-3.5835,-3.461,-3.2812,-3.1545,-3.0796,-3.1456,-3.1172,-3.0228,-3.0979,-3.1296,-3.125,-3.0406,-3.0193,-3.04,-2.9732,0.0,0.0,0.0,-3.0964,-3.1671,-3.2337,-3.2749,-3.2916,-3.3305,-3.3499,-3.3499,-3.3499,-3.329,-3.2871,-3.2467,-3.1131,-2.8893,0.0,0.0,-2.7809,-2.8619,-2.9478,-3.0328,-3.0971,-3.1397,-3.1584,-3.075,-2.9605,-2.8232,-2.866,-2.8079,-2.637,-2.6424,-2.5858,-2.4542,-2.4433,-2.4129,0.0,0.0,0.0,0.0,0.0,0.0,0.0,0.0,0.0,0.0,0.0,-2.0667,-2.1158,0.0,0.0,0.0,-2.2854,-2.3514,-2.373,-2.342,0.0,0.0,0.0,0.0,0.0,0.0,0.0,-2.314,-2.3407,-2.3555,-2.3331,-2.3559,-2.3283,-2.1983,-2.1807,-2.1381,-2.0252,0.0,-2.0266,-1.9424,-1.9504,-1.9271,-1.8269,-1.8102,-1.8207,-1.836,-1.8945,-1.9346,-1.9231,-1.8267,-1.7392,-1.6674,-1.5315,-1.4216,-1.4335,-1.3728,-1.3046,-1.2732,-1.2659,-1.2665,-1.2665,-1.2665,-1.2659,-3.7956,-3.7669,-3.4912,-3.3017,-3.1919,-3.2517,-3.234,-3.1734,-3.2317,-3.278,-3.3041,-3.2089,-3.1728,-3.1796,-3.1202,0.0,-3.1305,-3.1929,-3.2367,-3.2691,-3.329,-3.3604,-3.3649,-3.3649,-3.3664,-3.3679,-3.3649,-3.3649,-3.3649,-3.3589,-3.2961,-3.1735,-3.0522,-2.9861,-2.9801,-3.0298,-3.0941,-3.166,-3.2243,-3.2477,-3.2263,-3.1561,-3.0644,-2.9601,-2.9553,-2.8846,-2.7427,-2.6939,-2.6373,-2.5686,-2.5594,-2.5053,-2.3931,0.0,0.0,0.0,0.0,0.0,0.0,0.0,0.0,0.0,0.0,0.0,0.0,0.0,0.0,0.0,-2.3197,0.0,-2.4247,-2.408,0.0,0.0,0.0,-2.342,-2.358,-2.3748,-2.403,-2.4553,0.0,0.0,-2.485,-2.4888,-2.4381,-2.2849,-2.2535,-2.216,-2.137,-2.1329,-2.1412,-2.15,-2.0753,-2.0178,-2.0053,-1.9674,-1.9489,-1.9801,-2.0361,-2.0771,-2.1013,-2.0264,-1.9684,-1.9493,-1.7499,-1.5811,-1.6124,-1.519,-1.4266,-1.3507,-1.334,-1.332,-1.3333,-1.3307,-1.3273,-3.8413,-3.7855,-3.7144,-3.6017,-3.4702,-3.4878,-3.422,-3.3066,-3.3185,-3.3321,-3.3397,-3.3156,-3.3021,-3.3064,-3.2913,-3.2869,-3.2946,-3.3096,-3.3471,-3.4024,-3.4204,-3.4517,-3.5011,-3.504,-3.5026,-3.5026,-3.5026,-3.5026,-3.5011,-3.4502,-3.4114,-3.3739,-3.2961,-3.2048,-3.1092,-3.1197,-3.1839,-3.3021,-3.3185,-3.3157,-3.2908,-3.2691,-3.1838,-3.0222,-3.0089,-2.9359,-2.7982,-2.8185,-2.7695,-2.6373,-2.6261,-2.5912,-2.5123,-2.4738,0.0,0.0,0.0,0.0,0.0,0.0,0.0,0.0,0.0,-2.2597,-2.3393,0.0,-2.3973,0.0,-2.3929,-2.4283,-2.4593,-2.4897,0.0,0.0,-2.5265,-2.5208,-2.4568,-2.4838,-2.4998,-2.4785,-2.5149,-2.541,-2.541,-2.5833,-2.5971,-2.5531,-2.4381,-2.3371,-2.273,-2.3035,-2.309,-2.2551,-2.1966,-2.1329,-2.0783,-2.0445,-2.0356,-2.041,-2.1055,-2.1602,-2.1719,-2.0804,-2.0069,-1.9934,-1.8166,-1.6733,-1.6664,-1.5671,-1.4929,-1.4576,-1.4369,-1.4208,-1.4202,-1.4035,-1.3881,-3.9242,-3.8886,-3.8886,-3.8186,-3.7086,-3.6767,-3.5795,-3.447,-3.4744,-3.4696,-3.4367,-3.4083,-3.3769,-3.3499,-3.3499,-3.3664,-3.3933,-3.3933,-3.4324,-3.4921,-3.4936,-3.513,-3.5489,-3.5489,-3.5489,-3.5489,-3.5489,-3.5489,-3.5474,-3.5115,-3.4771,-3.4503,-3.4144,-3.3574,-3.2871,-3.2527,-3.2901,-3.3903,-3.4233,-3.4339,-3.4164,-3.3719,-3.3002,-3.2032,-3.1393,-3.055,-2.9516,-2.9598,-2.9163,-2.8071,-2.7739,-2.7297,-2.6692,-2.6218,-2.5961,0.0,0.0,0.0,0.0,0.0,0.0,0.0,0.0,0.0,0.0,0.0,-2.475,-2.486,-2.4827,-2.4926,-2.5235,-2.5447,-2.5534,-2.5421,-2.5862,-2.5994,-2.5577,-2.5983,-2.6303,-2.6298,-2.6527,-2.6716,-2.6716,-2.6992,-2.7193,-2.7216,-2.6402,-2.5536,-2.4808,-2.4908,-2.5008,-2.4765,-2.4164,-2.3291,-2.2184,-2.1504,-2.1261,-2.1466,-2.1836,-2.2227,-2.2402,-2.1792,-2.1217,-2.1123,-1.9641,-1.837,-1.8423,-1.7114,-1.6062,-1.6039,-1.5465,-1.4921,-1.4743,-1.4589,-1.4476,-4.0113,-4.0113,-4.0113,-3.9688,-3.9009,-3.8372,-3.7196,-3.5763,-3.6245,-3.6102,-3.5459,-3.4861,-3.4277,-3.3754,-3.3754,-3.4068,-3.4638,-3.4623,-3.4921,-3.5489,-3.5489,-3.5489,-3.5489,-3.5489,-3.5489,-3.5489,-3.5489,-3.5489,-3.5489,-3.5489,-3.519,-3.4668,-3.4623,-3.4638,-3.4608,-3.4038,-3.4038,-3.4638,-3.5205,-3.5489,-3.5472,-3.4476,-3.3925,-3.3891,-3.2706,-3.1757,-3.1265,-3.0945,-3.0548,-3.0009,-2.9507,-2.8885,-2.8139,-2.7971,-2.7625,0.0,-2.6324,0.0,0.0,0.0,0.0,0.0,0.0,0.0,0.0,-2.4949,-2.5458,-2.6144,-2.5792,-2.5678,-2.6138,-2.6063,-2.591,-2.571,-2.608,-2.6477,-2.6684,-2.714,-2.757,-2.8059,-2.816,-2.821,-2.8172,-2.826,-2.8323,-2.831,-2.826,-2.7846,-2.7115,-2.6788,-2.6779,-2.7331,-2.6421,-2.4796,-2.3369,-2.2432,-2.2051,-2.2393,-2.2529,-2.2682,-2.2994,-2.2779,-2.2555,-2.2431,-2.1248,-2.0384,-2.0734,-1.8965,-1.7591,-1.7533,-1.6586,-1.5659,-1.5181,-1.5001,-1.5015,-4.0113,-4.0113,-4.0113,-4.0003,-3.9859,-3.9724,-3.8423,-3.6368,-3.5914,-3.5619,-3.5489,-3.537,-3.5235,-3.513,-3.513,-3.519,-3.531,-3.531,-3.5385,-3.5489,-3.5489,-3.5489,-3.5489,-3.5489,-3.5489,-3.5489,-3.5489,-3.5489,-3.5489,-3.5489,-3.5444,-3.531,-3.531,-3.531,-3.5295,0.0,0.0,0.0,-3.5429,-3.5489,-3.5457,-3.4254,-3.3596,-3.3575,-3.2304,0.0,-3.1452,-3.1379,-3.1076,-3.0588,-3.0441,0.0,0.0,0.0,0.0,0.0,0.0,0.0,0.0,0.0,0.0,0.0,-2.6686,-2.61,-2.5739,-2.5625,-2.5801,-2.6233,-2.6449,-2.671,-2.7009,-2.743,-2.7624,-2.7589,-2.7641,-2.7742,-2.7795,-2.7896,-2.7996,-2.8097,-2.8499,-2.8737,-2.8762,-2.9176,-2.944,-2.9402,-2.9465,-2.9402,-2.9139,-2.8323,-2.7858,-2.7837,-2.6481,-2.4514,-2.2533,-2.2387,-2.2422,-2.2539,-2.2822,-2.2984,-2.3062,-2.3042,-2.2964,-2.2955,-2.1951,-2.1111,-2.1166,-2.0013,-1.8806,-1.7902,-1.7492,-1.6857,-1.5601,-1.5176,-1.5015,-4.0113,0.0,-4.0113,-4.0113,0.0,-3.9662,-3.8827,-3.7671,-3.6965,-3.6211,-3.5489,-3.5489,-3.5489,-3.5489,-3.5489,-3.5489,-3.5489,-3.5489,-3.5489,-3.5489,-3.5489,-3.5489,-3.5489,-3.5489,-3.5489,-3.5489,-3.5489,-3.5489,-3.5489,-3.5489,-3.5489,-3.5489,-3.5489,-3.5489,-3.5489,-3.5489,-3.5489,-3.5489,-3.5489,-3.5279,-3.4725,-3.3616,-3.3045,-3.301,-3.1769,0.0,0.0,0.0,0.0,0.0,0.0,0.0,0.0,0.0,0.0,-2.8017,-2.7677,-2.7611,-2.791,-2.768,-2.7624,-2.7915,-2.764,-2.7172,-2.6486,-2.647,-2.668,-2.7125,-2.7373,-2.7559,-2.7693,-2.7946,-2.8109,-2.8122,-2.8348,-2.8524,-2.8536,-2.8762,-2.8938,-2.895,-2.9189,-2.9352,-2.9365,-2.9591,-2.9779,-2.9779,-2.9779,-2.9779,-2.9741,-2.9315,-2.895,-2.8863,-2.714,-2.5411,-2.4343,-2.3233,-2.2822,-2.2818,-2.2955,-2.3071,-2.3101,-2.3101,-2.3101,-2.3047,-2.2589,-2.2173,-2.212,-2.1221,-2.0215,-1.9588,-1.8993,-1.818,-1.6821,-1.5948,-1.5391,-4.0113,-4.0113,-4.0113,-4.0113,-4.0045,-3.9385,-3.9016,-3.8843,0.0,0.0,0.0,-3.5489,-3.5489,-3.5489,-3.5489,-3.5489,-3.5489,-3.5489,-3.5489,-3.5489,-3.5489,-3.5489,-3.5489,-3.5489,-3.5489,-3.5489,-3.5489,-3.5489,-3.5489,-3.5489,-3.5489,-3.5489,-3.5489,-3.5489,-3.5489,-3.5489,-3.5489,-3.5489,-3.5489,-3.51,-3.4293,-3.329,-3.2749,-3.2749,-3.1476,-3.1169,-3.1942,-3.1686,-3.1479,-3.1502,-3.1013,-3.0671,-3.047,-2.9984,-2.9645,-2.9408,-2.8952,-2.8743,-2.8875,-2.8443,-2.8201,-2.8246,-2.826,-2.7929,-2.7185,-2.7331,-2.7657,-2.8197,-2.8247,-2.8285,-2.8386,-2.8411,-2.8411,-2.8411,-2.8812,-2.9038,-2.9063,-2.9478,-2.9729,-2.9779,-2.9741,-2.9779,-2.9754,-2.9767,-2.9779,-2.9779,-2.9779,-2.9779,-2.9779,-2.9741,-2.9473,-2.8851,-2.7336,-2.6303,-2.563,-2.4308,-2.3178,-2.3062,-2.3081,-2.3101,-2.3101,-2.3101,-2.3101,-2.3101,-2.3101,-2.3047,-2.3003,-2.2262,-2.1578,-2.1346,-2.0591,-1.955,-1.8365,-1.7388,-1.6585,-4.0113,-4.0113,-4.0113,-4.0113,-4.0096,-3.9978,-3.9558,-3.8799,-3.7395,-3.629,-3.5489,-3.5489,-3.5489,-3.5489,-3.5489,-3.5489,-3.5489,-3.5489,-3.5489,-3.5489,-3.5489,-3.5489,-3.5489,-3.5489,-3.5489,-3.5489,-3.5489,-3.5489,-3.5489,-3.5489,-3.5489,-3.5489,-3.5489,-3.5489,-3.5489,-3.5489,-3.5489,-3.5489,-3.5489,-3.5424,-3.5279,-3.4036,-3.3353,-3.3318,-3.2074,-3.1442,-3.1589,-3.1502,-3.1479,-3.1516,-3.1422,-3.0913,-2.9978,-2.9837,-2.9359,-2.8426,-2.8252,-2.8405,-2.8874,-2.8812,-2.8762,-2.88,-2.8775,-2.8549,-2.7982,-2.7982,-2.8222,-2.8712,-2.8775,-2.8988,-2.9465,-2.9503,-2.9478,-2.9515,-2.9616,-2.9666,-2.9628,-2.9716,-2.9779,-2.9779,-2.9779,-2.9779,-2.9779,-2.9779,-2.9779,-2.9779,-2.9842,-2.9817,-2.9842,-2.9779,-2.8961,-2.7476,-2.673,-2.5694,-2.4401,-2.344,-2.3169,-2.3101,-2.3149,-2.3198,-2.3208,-2.3208,-2.3198,-2.313,-2.3188,-2.3169,-2.3159,-2.3003,-2.2479,-2.1768,-2.1536,-2.1219,-2.006,-1.9732,-1.905,-4.0113,-4.0113,-4.0113,-4.0113,-4.0113,-4.0113,-3.9636,-3.8827,-3.7732,-3.6814,-3.6086,-3.5653,-3.5489,-3.5489,-3.5489,-3.5489,-3.5489,-3.5489,-3.5489,-3.5489,-3.5489,-3.5489,-3.5489,-3.5489,-3.5489,-3.5489,-3.5489,-3.5489,-3.5489,-3.5489,-3.5489,-3.5489,-3.5489,-3.5489,-3.5489,-3.5489,-3.5489,-3.5489,-3.5489,-3.4986,-3.3973,-3.3837,-3.3059,-3.1589,-3.1341,-3.1071,-3.0583,-3.057,-3.0583,-3.0583,-3.0583,-3.0354,-2.9821,-2.9795,-2.958,-2.9076,-2.9026,-2.9126,-2.939,-2.939,-2.9402,-2.939,-2.939,-2.9302,-2.9051,-2.8737,-2.8787,-2.9327,-2.939,-2.949,-2.9767,-2.9779,-2.9779,-2.9779,-2.9779,-2.9779,-2.9779,-2.9779,-2.9779,-2.9779,-2.9779,-2.9779,-2.9779,-2.9779,-2.9779,-2.9804,-3.0018,-3.0231,-3.0256,-3.0482,-2.9865,-2.7847,-2.7046,-2.6179,-2.4643,-2.3994,-2.3844,-2.3783,-2.3783,-2.3783,-2.3783,-2.3818,-2.3773,-2.3783,-2.3773,-2.3783,-2.3773,-2.3783,-2.3548,-2.3276,-2.3107,-2.2788,-2.1828,-2.1186,-1.9942,-4.0113,-4.0113,-4.0113,-4.0113,-4.0113,-4.0113,-3.9756,-3.9086,-3.8189,-3.7456,-3.6798,-3.5926,-3.5489,-3.5489,-3.5489,-3.5489,-3.5489,-3.5489,-3.5489,-3.5489,-3.5489,-3.5489,-3.5489,-3.5489,-3.5489,-3.5489,-3.5489,-3.5489,-3.5489,-3.5489,-3.5579,-3.5729,-3.5863,-3.5863,-3.5744,-3.5729,-3.5654,-3.5504,-3.5489,-3.4758,-3.3325,-3.3739,-3.2939,-3.0996,-3.1267,-3.1095,-3.0203,-3.0113,-2.9998,-2.983,-2.9779,-2.9779,-2.9779,-2.9779,-2.9779,-2.9779,-2.9779,-2.9779,-2.9779,-2.9779,-2.9779,-2.9779,-2.9779,-2.9779,-2.9754,-2.939,-2.9302,-2.9704,-2.9754,-2.9779,-2.9779,-2.9779,-2.9779,-2.9779,-2.9779,-2.9779,-2.9779,-2.9779,-2.9779,-2.9779,-2.9779,-2.9779,-2.9804,-2.9905,-3.0055,-3.0244,-3.0532,-3.0771,-3.0834,-3.116,-3.053,-2.9025,-2.7793,-2.666,-2.5503,-2.4731,-2.4392,-2.4424,-2.4385,-2.4336,-2.4346,-2.4385,-2.4404,-2.4346,-2.4375,-2.4346,-2.4394,-2.4385,-2.4309,-2.4188,-2.4295,-2.4217,-2.3522,-2.2769,-2.1122,-4.0113,-4.0113,-4.0113,-4.0113,-4.0113,-4.0113,-4.0045,-3.9782,-3.843,-3.7777,-3.7531,-3.6148,-3.5489,-3.5489,-3.5489,-3.5489,-3.5489,-3.5489,-3.5489,-3.5489,-3.5489,-3.5489,-3.5534,-3.5519,-3.5504,-3.5549,-3.5564,-3.5609,-3.5609,-3.5579,-3.5818,-3.6402,-3.6956,-3.6926,-3.6462,-3.6387,-3.6118,-3.5519,-3.5489,-3.5392,-3.5213,-3.4428,-3.3891,-3.3636,-3.2855,-3.2033,-3.1082,-3.1068,-3.0658,-2.9895,-2.9779,-2.9779,-2.9779,-2.9779,-2.9779,-2.9779,-2.9779,-2.9779,-2.9779,-2.9779,-2.9779,-2.9779,-2.9779,-2.9779,-2.9779,-2.9729,-2.9716,-2.9779,-2.9779,-2.9779,-2.9779,-2.9779,-2.9779,-2.9779,-2.9779,-2.9779,-2.9779,-2.9779,-2.9779,-2.9779,-2.9829,-2.9792,-2.9892,-3.0244,-3.0696,-3.1035,-3.121,-3.1323,-3.1336,-3.1474,-3.1154,-2.9846,-2.8648,-2.6997,-2.526,-2.4467,-2.4541,-2.4502,-2.4443,-2.4521,-2.457,-2.4541,-2.4443,-2.4678,-2.4531,-2.456,-2.4521,-2.4424,-2.4482,-2.4639,-2.4834,-2.507,-2.5286,-2.5034,-2.3432,-4.0113,-4.0113,-4.0113,-4.0113,-4.0113,-4.0113,-4.0113,-3.9952,-3.8474,-3.7822,-3.7602,-3.6164,-3.5489,-3.5489,-3.5489,-3.5489,-3.5489,-3.5489,-3.5489,-3.5489,-3.5504,-3.5714,-3.6058,-3.6088,-3.6267,-3.6611,-3.6626,-3.6626,-3.6626,-3.6626,-3.6776,-3.703,-3.73,-3.727,-3.7045,-3.703,-3.6881,-3.6626,-3.6267,-3.6088,-3.5995,-3.5292,-3.4327,-3.3276,-3.2784,-3.2177,-3.1241,-3.0696,-3.0216,-2.9818,-2.9779,-2.9779,-2.9779,-2.9779,-2.9779,-2.9779,-2.9779,-2.9779,-2.9779,-2.9779,-2.9779,-2.9779,-2.9779,-2.9779,-2.9779,-2.9779,-2.9779,-2.9779,-2.9779,-2.9779,-2.9792,-2.9779,-2.9779,-2.9779,-2.9779,-2.9792,-2.9779,-2.9792,-2.9779,-2.9804,-3.008,-3.0281,-3.0344,-3.0733,-3.1122,-3.1424,-3.165,-3.1876,-3.1876,-3.2152,-3.1875,-3.081,-2.956,-2.8084,-2.6238,-2.5407,-2.5232,-2.5185,-2.5195,-2.5148,-2.5156,-2.5138,-2.5157,-2.5176,-2.5089,-2.5089,-2.5196,-2.5148,-2.5148,-2.5157,-2.5196,-2.5527,-2.5654,-2.5684,-2.4363,-4.0113,-4.0113,-4.0113,-4.0113,-4.0113,-4.0113,-4.0113,-3.9927,-3.8679,-3.8121,-3.7933,-3.6477,-3.5814,-3.5782,-3.5619,-3.5489,-3.5489,-3.5489,-3.5609,-3.5744,-3.5774,-3.6118,-3.6701,-3.6746,-3.6971,-3.7345,-3.7375,-3.7389,-3.7434,-3.7629,-3.7674,-3.7689,-3.7868,-3.7868,-3.7689,-3.7674,-3.7584,-3.7375,-3.6956,-3.6731,-3.6623,-3.5841,-3.4583,-3.3129,-3.2749,-3.2177,-3.1254,-3.052,-3.0075,-2.9792,-2.9779,-2.9779,-2.9779,-2.9779,-2.9779,-2.9804,-2.9942,-2.9942,-2.9804,-2.993,-2.9955,-2.9817,-2.9779,-2.9779,-2.9779,-2.9779,-2.9779,-2.9804,-2.993,-2.9993,-2.9792,-2.9779,-2.9779,-2.9804,-2.9892,-3.0018,-3.0018,-3.0105,-3.0281,-3.0281,-3.062,-3.0896,-3.106,-3.1386,-3.1687,-3.1938,-3.2215,-3.2453,-3.2478,-3.2749,-3.2618,-3.14,-3.0158,-2.885,-2.7345,-2.6174,-2.58,-2.5684,-2.5615,-2.5606,-2.5684,-2.5674,-2.5664,-2.544,-2.5615,-2.5654,-2.5518,-2.5586,-2.5645,-2.5674,-2.5674,-2.5664,-2.5684,-2.5684,-2.5323,-4.0113,-4.0113,-4.0113,-4.0113,-4.0113,-4.0146,-4.013,-4.013,-3.9249,-3.8876,-3.8706,-3.7266,-3.6554,-3.6554,-3.595,-3.5519,-3.5519,-3.5579,-3.5923,-3.6417,-3.6432,-3.6776,-3.7345,-3.7375,-3.7404,-3.7584,-3.7599,-3.7554,-3.7539,-3.8063,-3.8362,-3.8377,-3.8916,-3.8945,-3.8437,-3.8347,-3.8048,-3.7599,-3.7434,-3.7375,-3.7182,-3.5873,-3.4715,-3.3854,-3.3031,-3.2105,-3.1315,-3.1143,-3.0696,-2.983,-2.9779,-2.9779,-2.9779,-2.9779,-2.9792,-2.9867,-3.0281,-3.0344,-2.9993,-3.0319,-3.0394,-2.9942,-2.9917,-2.9829,-2.9942,-2.9942,-2.9955,-2.9829,-3.0344,-3.0382,-2.9993,-2.998,-2.9942,-2.9942,-3.0306,-3.0545,-3.0543,-3.0922,-3.126,-3.1248,-3.1286,-3.1562,-3.2026,-3.2139,-3.2403,-3.2742,-3.298,-3.2993,-3.2998,-3.3043,-3.2568,-3.15,-3.0271,-2.8982,-2.7772,-2.6474,-2.581,-2.5684,-2.5684,-2.5684,-2.5684,-2.5684,-2.5684,-2.5684,-2.5684,-2.5684,-2.5684,-2.5684,-2.5674,-2.5684,-2.5684,-2.5684,-2.5684,-2.5684,-2.5479,-4.0113,-4.0113,-4.0113,-4.0113,-4.0163,-4.062,-4.0798,-4.078,-4.0519,-4.0353,-4.0082,-3.8664,-3.7948,-3.7885,-3.7071,-3.6507,-3.6193,-3.6537,-3.6866,-3.706,-3.709,-3.7419,-3.7988,-3.8048,-3.8287,-3.8611,-3.8706,-3.8691,-3.8706,-3.8945,-3.905,-3.908,-3.9275,-3.9275,-3.908,-3.905,-3.8931,-3.8691,-3.8272,-3.8048,-3.7888,-3.6447,-3.5053,-3.3754,-3.2404,-3.1523,-3.1204,-3.0633,-3.0139,-2.9792,-2.9779,-2.9779,-2.9779,-2.9779,-2.9955,-3.0281,-3.0468,-3.067,-3.0809,-3.0997,-3.1035,-3.0859,-3.0809,-3.0783,-3.0821,-3.0821,-3.0821,-3.0846,-3.0959,-3.0972,-3.0884,-3.0809,-3.0809,-3.0846,-3.0984,-3.1122,-3.1135,-3.1273,-3.1386,-3.1436,-3.1675,-3.2139,-3.2566,-3.2767,-3.2855,-3.3074,-3.3124,-3.3124,-3.3124,-3.3124,-3.2884,-3.2196,-3.0732,-2.9269,-2.8901,-2.6924,-2.5732,-2.5684,-2.5684,-2.5684,-2.5684,-2.5684,-2.5684,-2.5684,-2.5684,-2.5684,-2.5684,-2.5684,-2.5684,-2.5684,-2.5684,-2.5684,-2.5684,-2.5684,-2.5684,-4.0248,-4.0451,-4.0468,-4.0578,-4.0874,-4.1322,-4.1559,-4.1557,-4.1565,-4.1572,-4.1286,-4.0098,-3.9377,-3.9013,-3.8415,-3.7767,-3.7154,-3.733,-3.7524,-3.7704,-3.7734,-3.8078,-3.8631,-3.8706,-3.896,-3.9328,-3.9388,-3.9388,-3.9388,-3.9388,-3.9388,-3.9388,-3.9388,-3.9388,-3.9388,-3.9388,-3.9388,-3.932,-3.8945,-3.8721,-3.851,-3.717,-3.5652,-3.4196,-3.263,-3.1412,-3.081,-3.0139,-2.988,-3.003,-3.0055,-3.0131,-3.0281,-3.0306,-3.0482,-3.0834,-3.1047,-3.1185,-3.1373,-3.1562,-3.1574,-3.1399,-3.1373,-3.1386,-3.1386,-3.1386,-3.1386,-3.1411,-3.1587,-3.165,-3.17,-3.1813,-3.1788,-3.1524,-3.1537,-3.165,-3.1662,-3.1825,-3.1951,-3.2039,-3.229,-3.2667,-3.298,-3.3099,-3.3111,-3.3124,-3.3124,-3.3124,-3.3124,-3.3124,-3.2884,-3.2426,-3.0687,-2.9361,-2.8448,-2.6791,-2.5781,-2.5684,-2.5684,-2.5684,-2.5684,-2.5684,-2.5684,-2.5684,-2.5684,-2.5684,-2.5684,-2.5684,-2.5684,-2.5684,-2.5684,-2.5684,-2.5684,-2.5684,-2.5684,-4.0553,-4.1102,-4.1204,-4.1559,-4.2083,-4.2236,-4.2286,-4.232,-4.2378,-4.2432,-4.2375,-4.152,-4.0732,-4.0033,-3.9698,-3.9164,-3.8332,-3.7853,-3.7913,-3.8362,-3.8392,-3.8721,-3.9305,-3.9284,-3.9284,-3.9388,-3.9388,-3.9388,-3.9388,-3.9388,-3.9388,-3.9388,-3.9388,-3.9388,-3.9388,-3.9388,-3.9388,-3.9373,-3.9313,-3.9313,-3.9226,-3.7901,-3.6562,-3.5367,-3.3875,-3.2136,-3.0163,-2.997,-3.0131,-3.0507,-3.0608,-3.0859,-3.1185,-3.1248,-3.1348,-3.1449,-3.1863,-3.1888,-3.1599,-3.1964,-3.2014,-3.17,-3.1486,-3.1587,-3.1625,-3.1574,-3.1562,-3.165,-3.1951,-3.2227,-3.2303,-3.2629,-3.2608,-3.17,-3.1964,-3.2202,-3.2315,-3.2704,-3.3099,-3.3011,-3.3023,-3.3099,-3.3124,-3.3124,-3.3124,-3.3124,-3.3124,-3.3124,-3.3124,-3.3124,-3.2568,-3.15,-3.0271,-2.9223,-2.7898,-2.661,-2.61,-2.5684,-2.5684,-2.5684,-2.5684,-2.5684,-2.5684,-2.5684,-2.5684,-2.5684,-2.5684,-2.5684,-2.5684,-2.5684,-2.5684,-2.5684,-2.5684,-2.5684,-2.5684,-4.1001,-4.1255,-4.1745,-4.2083,-4.2354,-4.2844,-4.3064,-4.3149,-4.3606,-4.3887,-4.3732,-4.3028,-4.2162,-4.1326,-4.0689,-3.9918,-3.9116,-3.8886,-3.8901,-3.905,-3.9095,-3.9185,-3.9343,-3.9388,-3.9388,-3.9388,-3.9388,-3.9388,-3.9388,-3.9388,-3.9388,-3.9388,-3.9388,-3.9388,-3.9388,-3.9388,-3.9388,-3.9388,-3.9388,-3.9388,-3.9373,-3.8911,-3.796,-3.6536,-3.5301,-3.3811,-3.2098,-3.1311,-3.0796,-3.067,-3.0947,-3.1223,-3.1361,-3.1386,-3.1574,-3.1913,-3.2102,-3.2378,-3.2608,-3.2667,-3.2717,-3.2608,-3.2571,-3.2554,-3.2554,-3.2558,-3.2503,-3.2516,-3.2717,-3.2805,-3.2842,-3.2943,-3.2923,-3.2591,-3.2704,-3.278,-3.2767,-3.2955,-3.3111,-3.3124,-3.3124,-3.3124,-3.3124,-3.3124,-3.3124,-3.3124,-3.3124,-3.3124,-3.3124,-3.3124,-3.2612,-3.1412,-3.0181,-2.8993,-2.7767,-2.6658,-2.5965,-2.5684,-2.5684,-2.5684,-2.5684,-2.5684,-2.5684,-2.5684,-2.5684,-2.5684,-2.5684,-2.5684,-2.5684,-2.5684,-2.5684,-2.5684,-2.5684,-2.5684,-2.5684,-4.1525,-4.2066,-4.2506,-4.2895,-4.3193,-4.3673,-4.3859,-4.391,-4.4395,-4.4598,-4.4468,-4.4018,-4.3108,-4.2062,-4.1412,-4.05,-3.9481,-3.9388,-3.9388,-3.9388,-3.9388,-3.9388,-3.9388,-3.9388,-3.9388,-3.9388,-3.9388,-3.9388,-3.9388,-3.9388,-3.9388,-3.9388,-3.9388,-3.9388,-3.9388,-3.9388,-3.9388,-3.9388,-3.9388,-3.9388,-3.9388,-3.9388,-3.8715,-3.7385,-3.6252,-3.4942,-3.3397,-3.248,-3.1763,-3.1411,-3.1725,-3.2001,-3.2014,-3.2039,-3.2177,-3.2428,-3.2554,-3.2704,-3.3074,-3.3074,-3.3124,-3.3124,-3.3124,-3.3111,-3.3111,-3.3124,-3.3124,-3.3124,-3.3111,-3.3124,-3.3111,-3.3124,-3.3124,-3.3124,-3.3086,-3.3124,-3.3124,-3.3124,-3.3124,-3.3124,-3.3124,-3.3124,-3.3124,-3.3124,-3.3124,-3.3124,-3.3124,-3.3124,-3.3124,-3.3124,-3.2339,-3.1412,-3.0181,-2.9004,-2.7767,-2.6754,-2.582,-2.5684,-2.5684,-2.5684,-2.5684,-2.5684,-2.5684,-2.5684,-2.5684,-2.5684,-2.5684,-2.5684,-2.5684,-2.5684,-2.5684,-2.5684,-2.5684,-2.5684,-2.5684,-4.2151,-4.3341,-4.3443,-4.3876,-4.4445,-4.453,-4.4513,-4.4564,-4.4598,-4.4598,-4.457,-4.4497,-4.3634,-4.2347,-4.1965,-4.1028,-3.9702,-3.9388,-3.9388,-3.9388,-3.9388,-3.9388,-3.9388,-3.9388,-3.9388,-3.9388,-3.9463,-3.9529,-3.9589,-3.9657,-3.9508,-3.9694,-3.9702,-3.9493,-3.9568,-3.9463,-3.9514,-3.9403,-3.9388,-3.9388,-3.9388,-3.9388,-3.898,-3.7922,-3.6884,-3.5658,-3.4273,-3.3373,-3.2729,-3.239,-3.2667,-3.2948,-3.3061,-3.3099,-3.2968,-3.3048,-3.3056,-3.3074,-3.3124,-3.3124,-3.3124,-3.3124,-3.3124,-3.3124,-3.3124,-3.3124,-3.3124,-3.3124,-3.3124,-3.3124,-3.3124,-3.3124,-3.3124,-3.3124,-3.3124,-3.3124,-3.3124,-3.3124,-3.3124,-3.3124,-3.3124,-3.3124,-3.3124,-3.3124,-3.3124,-3.3124,-3.3124,-3.3124,-3.3124,-3.2939,-3.2469,-3.1412,-3.0181,-2.9004,-2.7778,-2.6572,-2.5732,-2.5684,-2.5684,-2.5684,-2.5684,-2.5684,-2.5684,-2.5684,-2.5684,-2.5684,-2.5684,-2.5684,-2.5684,-2.5684,-2.5684,-2.5684,-2.5684,-2.5684,-2.5684,-4.3037,-4.347,-4.4045,-4.4401,-4.4581,-4.4598,-4.4598,-4.4598,-4.4598,-4.4598,-4.4598,-4.4598,-4.4006,-4.2939,-4.2269,-4.1379,-4.0413,-3.9681,-3.9388,-3.9388,-3.9388,-3.9388,-3.9388,-3.9388,-3.9403,-3.9463,-3.9852,-4.0142,-4.0187,-4.0546,-4.0786,-4.0846,-4.0756,-4.0576,-4.0217,-4.0127,-3.9858,-3.9448,-3.9388,-3.9388,-3.9388,-3.9388,-3.9265,-3.8943,-3.789,-3.6743,-3.5503,-3.3975,-3.3074,-3.2893,-3.3023,-3.3124,-3.3124,-3.3124,-3.3124,-3.3124,-3.3124,-3.3124,-3.3124,-3.3124,-3.3124,-3.3124,-3.3124,-3.3124,-3.3124,-3.3124,-3.3124,-3.3124,-3.3124,-3.3124,-3.3124,-3.3124,-3.3124,-3.3124,-3.3124,-3.3124,-3.3124,-3.3124,-3.3124,-3.3124,-3.3124,-3.3124,-3.3124,-3.3124,-3.3124,-3.3124,-3.3124,-3.3124,-3.3124,-3.3025,-3.2655,-3.1412,-3.0181,-2.9004,-2.7767,-2.6524,-2.5781,-2.5732,-2.5684,-2.5684,-2.5684,-2.5684,-2.5684,-2.5684,-2.5684,-2.5684,-2.5684,-2.5684,-2.5684,-2.5684,-2.5684,-2.5684,-2.5684,-2.5684,-2.5684,-4.3606,-4.3927,-4.4412,-4.4598,-4.4598,-4.4598,-4.4598,-4.4598,-4.4598,-4.4598,-4.4598,-4.4598,-4.4138,-4.3246,-4.2379,-4.1528,-4.0656,-3.9793,-3.9424,-3.9388,-3.9388,-3.9388,-3.9388,-3.9388,-3.9544,-3.9858,-4.0232,-4.0546,-4.0801,-4.1205,-4.1407,-4.1377,-4.1422,-4.1175,-4.0831,-4.0502,-4.0247,-3.9858,-3.9568,-3.9388,-3.9388,-3.9388,-3.9388,-3.9053,-3.8017,-3.6618,-3.5547,-3.4761,-3.4262,-3.3827,-3.3398,-3.3124,-3.3124,-3.3124,-3.3124,-3.3124,-3.3124,-3.3124,-3.3124,-3.3124,-3.3124,-3.3124,-3.3124,-3.3124,-3.3124,-3.3124,-3.3124,-3.3124,-3.3124,-3.3124,-3.3124,-3.3124,-3.3124,-3.3124,-3.3124,-3.3124,-3.3124,-3.3124,-3.3124,-3.3124,-3.3124,-3.3124,-3.3124,-3.3124,-3.3124,-3.3124,-3.3124,-3.3124,-3.3124,-3.3025,-3.2742,-3.1545,-3.0271,-2.905,-2.7814,-2.662,-2.583,-2.5732,-2.5684,-2.5684,-2.5684,-2.5684,-2.5684,-2.5684,-2.5684,-2.5684,-2.5684,-2.5684,-2.5684,-2.5684,-2.5684,-2.5684,-2.5684,-2.5684,-2.5684,-4.3944,-4.4598,-4.4598,-4.4598,-4.4598,-4.4598,-4.4598,-4.4598,-4.4598,-4.4598,-4.4598,-4.4598,-4.4224,-4.3396,-4.2676,-4.1691,-4.0844,-4.008,-3.9574,-3.9445,-3.9403,-3.9433,-3.9597,-3.9649,-3.9873,-4.0322,-4.0487,-4.0995,-4.1429,-4.1594,-4.1639,-4.1788,-4.1743,-4.1617,-4.1444,-4.098,-4.0636,-4.0412,-3.9903,-3.9664,-3.9568,-3.9478,-3.9388,-3.9141,-3.7701,-3.6436,-3.5722,-3.548,-3.5467,-3.4897,-3.3839,-3.3368,-3.3197,-3.3124,-3.3124,-3.3124,-3.3124,-3.3124,-3.3124,-3.3124,-3.3124,-3.3124,-3.3124,-3.3124,-3.3124,-3.3124,-3.3124,-3.3124,-3.3124,-3.3124,-3.3124,-3.3124,-3.3124,-3.3124,-3.3124,-3.3124,-3.3124,-3.3124,-3.3124,-3.3124,-3.3124,-3.3124,-3.3124,-3.3124,-3.3124,-3.3124,-3.3124,-3.3124,-3.3124,-3.3081,-3.2698,-3.1965,-3.0553,-2.9096,-2.7908,-2.6668,-2.61,-2.5684,-2.5684,-2.5684,-2.5684,-2.5684,-2.5684,-2.5684,-2.5684,-2.5684,-2.5684,-2.5684,-2.5684,-2.5684,-2.5684,-2.5684,-2.5684,-2.5684,-2.5684,-4.4418,-4.4598,-4.4598,-4.4598,-4.4598,-4.4598,-4.4598,-4.4598,-4.4598,-4.4598,-4.4598,-4.4598,-4.4468,-4.4241,-4.3336,-4.2568,-4.1609,-4.069,-4.0115,-3.9424,-3.9388,-3.9738,-4.0053,-4.0157,-4.0292,-4.0681,-4.1519,-4.2021,-4.2246,-4.2551,-4.2895,-4.2811,-4.2701,-4.2656,-4.2201,-4.1946,-4.1692,-4.1175,-4.0516,-4.0202,-4.0068,-3.9709,-3.9433,-3.9192,-3.8107,-3.7434,-3.6841,-3.5775,-3.5319,-3.5467,-3.4884,-3.3924,-3.3398,-3.3167,-3.3124,-3.3124,-3.3124,-3.3124,-3.3124,-3.3124,-3.3124,-3.3124,-3.3124,-3.3124,-3.3124,-3.3124,-3.3124,-3.3124,-3.3124,-3.3124,-3.3124,-3.3124,-3.3124,-3.3124,-3.3124,-3.3124,-3.3124,-3.3124,-3.3124,-3.3124,-3.3124,-3.3124,-3.3124,-3.3124,-3.3124,-3.3124,-3.3124,-3.3124,-3.3124,-3.3124,-3.2797,-3.2283,-3.0956,-2.9544,-2.8459,-2.7125,-2.6062,-2.5684,-2.5684,-2.5684,-2.5684,-2.5684,-2.5684,-2.5684,-2.5684,-2.5684,-2.5684,-2.5684,-2.5684,-2.5684,-2.5684,-2.5684,-2.5684,-2.5684,-2.5684,-4.4598,-4.4598,-4.4598,-4.4598,-4.4598,-4.4598,-4.4598,-4.4598,-4.4598,-4.4598,-4.4598,-4.4598,-4.4598,-4.4497,-4.368,-4.2816,-4.1852,-4.0672,-3.9829,-3.9445,-3.9418,-3.9783,-4.0397,-4.0756,-4.0995,-4.1392,-4.2006,-4.2515,-4.2851,-4.3135,-4.323,-4.3305,-4.3305,-4.308,-4.2791,-4.2575,-4.2201,-4.1826,-4.1242,-4.0861,-4.0756,-4.0232,-3.9305,-3.8966,-3.8472,-3.8182,-3.693,-3.6593,-3.6186,-3.5948,-3.5251,-3.447,-3.3882,-3.3368,-3.3124,-3.3124,-3.3124,-3.3124,-3.3124,-3.3124,-3.3124,-3.3124,-3.3124,-3.3124,-3.3124,-3.3124,-3.3124,-3.3124,-3.3124,-3.3124,-3.3124,-3.3124,-3.3124,-3.3124,-3.3124,-3.3124,-3.3124,-3.3124,-3.3124,-3.3124,-3.3124,-3.3124,-3.3124,-3.3124,-3.3124,-3.3124,-3.3124,-3.3124,-3.3124,-3.3124,-3.3124,-3.2525,-3.1267,-3.0033,-2.905,-2.7673,-2.6014,-2.5684,-2.5684,-2.5684,-2.5684,-2.5684,-2.5684,-2.5684,-2.5684,-2.5684,-2.5684,-2.5684,-2.5684,-2.5684,-2.5684,-2.5684,-2.5684,-2.5684,-2.5684,-4.4598,-4.4598,-4.4598,-4.4598,-4.4598,-4.4598,-4.4598,-4.4598,-4.4598,-4.4598,-4.4598,-4.4598,-4.4598,-4.444,-4.3902,-4.3,-4.1804,-4.055,-3.9737,-3.9424,-3.9597,-4.0053,-4.0651,-4.125,-4.1848,-4.2485,-4.2605,-4.2865,-4.3125,-4.3305,-4.3305,-4.3305,-4.3305,-4.3245,-4.3165,-4.2836,-4.259,-4.2417,-4.1901,-4.1572,-4.1452,-4.0891,-3.9824,-3.8958,-3.8863,-3.8397,-3.7291,-3.7098,-3.7214,-3.6237,-3.5238,-3.4787,-3.4428,-3.3768,-3.3124,-3.3124,-3.3124,-3.3124,-3.3124,-3.3124,-3.3124,-3.3124,-3.3124,-3.3124,-3.3124,-3.3124,-3.3124,-3.3124,-3.3124,-3.3124,-3.3124,-3.3124,-3.3124,-3.3124,-3.3124,-3.3124,-3.3124,-3.3124,-3.3124,-3.3124,-3.3124,-3.3124,-3.3124,-3.3124,-3.3124,-3.3124,-3.3124,-3.3124,-3.3124,-3.3124,-3.3124,-3.2797,-3.1589,-2.9863,-2.868,-2.7484,-2.5917,-2.5684,-2.5684,-2.5684,-2.5684,-2.5684,-2.5684,-2.5684,-2.5684,-2.5684,-2.5684,-2.5684,-2.5684,-2.5684,-2.5684,-2.5684,-2.5684,-2.5684,-2.5684,-4.4598,-4.4598,-4.4598,-4.4598,-4.4598,-4.4598,-4.4598,-4.4598,-4.4598,-4.4598,-4.4598,-4.4598,-4.4598,-4.4542,-4.4497,-4.3499,-4.2029,-4.0826,-4.0025,-3.9607,-3.9843,-4.0427,-4.113,-4.1692,-4.2402,-4.3015,-4.312,-4.3155,-4.3245,-4.3305,-4.3305,-4.3305,-4.3305,-4.3305,-4.3275,-4.317,-4.3075,-4.297,-4.2491,-4.2261,-4.2096,-4.1564,-4.0771,-3.975,-3.9593,-3.8745,-3.7843,-3.7587,-3.7305,-3.6251,-3.5238,-3.4787,-3.447,-3.3683,-3.3167,-3.3124,-3.3124,-3.3124,-3.3124,-3.3124,-3.3124,-3.3124,-3.3124,-3.3124,-3.3124,-3.3124,-3.3124,-3.3124,-3.3124,-3.3124,-3.3124,-3.3124,-3.3124,-3.3124,-3.3124,-3.3124,-3.3124,-3.3124,-3.3124,-3.3124,-3.3124,-3.3124,-3.3124,-3.3124,-3.3124,-3.3124,-3.3124,-3.3124,-3.3124,-3.3124,-3.3124,-3.2612,-3.1952,-3.0,-2.8179,-2.6935,-2.5684,-2.5684,-2.5684,-2.5684,-2.5684,-2.5684,-2.5684,-2.5684,-2.5684,-2.5684,-2.5684,-2.5684,-2.5684,-2.5684,-2.5684,-2.5684,-2.5684,-2.5684,-2.5684,-4.4598,-4.4598,-4.4598,-4.4598,-4.4598,-4.4598,-4.4598,-4.4598,-4.4598,-4.4598,-4.4598,-4.4598,-4.4598,-4.4598,-4.4598,-4.3634,-4.2157,-4.108,-4.0255,-3.9643,-3.9783,-4.0472,-4.1302,-4.1782,-4.2462,-4.3021,-4.329,-4.3305,-4.3305,-4.3305,-4.3305,-4.3305,-4.3305,-4.3305,-4.3305,-4.329,-4.3305,-4.32,-4.3015,-4.2851,-4.2791,-4.2207,-4.1482,-4.0561,-4.0039,-3.9225,-3.806,-3.7805,-3.7305,-3.6251,-3.5251,-3.4828,-3.44,-3.3797,-3.3124,-3.3124,-3.3124,-3.3124,-3.3124,-3.3124,-3.3124,-3.3124,-3.3124,-3.3124,-3.3124,-3.3124,-3.3124,-3.3124,-3.3124,-3.3124,-3.3124,-3.3124,-3.3124,-3.3124,-3.3124,-3.3124,-3.3124,-3.3124,-3.3124,-3.3124,-3.3124,-3.3124,-3.3124,-3.3124,-3.3124,-3.3124,-3.3124,-3.3124,-3.3124,-3.3124,-3.3081,-3.2339,-3.1589,-3.0,-2.8132,-2.6754,-2.5732,-2.5684,-2.5684,-2.5684,-2.5684,-2.5684,-2.5684,-2.5684,-2.5684,-2.5684,-2.5684,-2.5684,-2.5684,-2.5684,-2.5684,-2.5684,-2.5684,-2.5684,-2.5684,-4.4598,-4.4598,-4.4598,-4.4598,-4.4598,-4.4598,-4.4598,-4.4598,-4.4598,-4.4598,-4.4598,-4.4598,-4.4598,-4.4598,-4.4412,-4.3722,-4.2221,-4.1396,-4.0569,-3.9889,-3.9736,-4.0292,-4.0935,-4.1647,-4.2162,-4.2895,-4.326,-4.329,-4.3305,-4.3305,-4.3305,-4.3305,-4.3305,-4.3305,-4.3305,-4.3305,-4.3305,-4.3305,-4.3305,-4.3305,-4.3155,-4.2671,-4.1961,-4.0831,-4.0561,-3.9728,-3.8666,-3.8344,-3.7472,-3.6448,-3.5507,-3.4856,-3.4304,-3.3556,-3.3124,-3.3124,-3.3124,-3.3124,-3.3124,-3.3124,-3.3124,-3.3124,-3.3124,-3.3124,-3.3124,-3.3124,-3.3124,-3.3124,-3.3124,-3.3124,-3.3124,-3.3124,-3.3124,-3.3124,-3.3124,-3.3124,-3.3124,-3.3124,-3.3124,-3.3124,-3.3124,-3.3124,-3.3124,-3.3124,-3.3124,-3.3124,-3.3124,-3.3124,-3.3124,-3.3124,-3.2896,-3.2064,-3.1089,-2.9772,-2.8215,-2.6754,-2.5965,-2.5684,-2.5684,-2.5684,-2.5684,-2.5684,-2.5703,-2.5742,-2.5684,-2.5684,-2.5684,-2.5693,-2.5684,-2.5684,-2.5684,-2.5684,-2.5684,-2.5684,-2.5684,-4.4598,-4.4598,-4.4598,-4.4598,-4.4598,-4.4598,-4.4598,-4.4598,-4.4598,-4.4598,-4.4598,-4.4598,-4.4598,-4.4598,-4.4598,-4.3989,-4.3061,-4.2125,-4.1213,-4.0459,-4.019,-4.0202,-4.0711,-4.1811,-4.2111,-4.2626,-4.306,-4.326,-4.3305,-4.3305,-4.3305,-4.3305,-4.3305,-4.3305,-4.3305,-4.3305,-4.3305,-4.3305,-4.3305,-4.3305,-4.32,-4.2731,-4.2366,-4.1856,-4.107,-4.0293,-3.975,-3.9254,-3.8219,-3.6526,-3.6158,-3.5116,-3.367,-3.3227,-3.3124,-3.3124,-3.3124,-3.3124,-3.3124,-3.3124,-3.3124,-3.3124,-3.3124,-3.3124,-3.3124,-3.3124,-3.3124,-3.3124,-3.3124,-3.3124,-3.3124,-3.3124,-3.3124,-3.3124,-3.3124,-3.3124,-3.3124,-3.3124,-3.3124,-3.3124,-3.3124,-3.3124,-3.3124,-3.3124,-3.3124,-3.3124,-3.3124,-3.3124,-3.3124,-3.3124,-3.2612,-3.1789,-3.0732,-2.9407,-2.8179,-2.6706,-2.6082,-2.5752,-2.5703,-2.5723,-2.5869,-2.5908,-2.581,-2.583,-2.581,-2.5859,-2.5957,-2.5927,-2.5762,-2.582,-2.6005,-2.5888,-2.5693,-2.5713,-2.5859,-4.4181,-4.4598,-4.4598,-4.4598,-4.4598,-4.4598,-4.4598,-4.4598,-4.4598,-4.4598,-4.4598,-4.4598,-4.4598,-4.4598,-4.4598,-4.4093,-4.3259,-4.241,-4.1543,-4.069,-4.0233,-4.0038,-4.0457,-4.101,-4.1512,-4.2321,-4.2656,-4.3015,-4.318,-4.329,-4.3305,-4.3305,-4.3305,-4.3305,-4.3305,-4.3305,-4.3305,-4.3305,-4.3305,-4.3305,-4.323,-4.306,-4.2746,-4.2396,-4.1467,-4.0831,-4.0352,-3.9732,-3.8723,-3.7329,-3.7098,-3.6107,-3.4581,-3.3953,-3.3839,-3.3124,-3.3124,-3.3124,-3.3124,-3.3124,-3.3124,-3.3124,-3.3124,-3.3124,-3.3124,-3.3124,-3.3124,-3.3124,-3.3124,-3.3124,-3.3124,-3.3124,-3.3124,-3.3124,-3.3124,-3.3124,-3.3124,-3.3124,-3.3124,-3.3124,-3.3124,-3.3124,-3.3124,-3.3124,-3.3124,-3.3124,-3.3124,-3.3124,-3.3124,-3.3124,-3.2426,-3.1456,-3.0316,-2.9085,-2.7851,-2.662,-2.6121,-2.5752,-2.5752,-2.5869,-2.6094,-2.6143,-2.6162,-2.6328,-2.6514,-2.6514,-2.6416,-2.6299,-2.6201,-2.6318,-2.6465,-2.6348,-2.621,-2.6416,-2.6533,-4.347,-4.4022,-4.4039,-4.4022,-4.4056,-4.4225,-4.4265,-4.4282,-4.453,-4.4598,-4.4598,-4.4598,-4.4598,-4.4598,-4.457,-4.4253,-4.3621,-4.2504,-4.1707,-4.0894,-4.0071,-3.9781,-4.0068,-4.0382,-4.0965,-4.1946,-4.2336,-4.265,-4.297,-4.3185,-4.3305,-4.3305,-4.3305,-4.3305,-4.3305,-4.3305,-4.3305,-4.3305,-4.3305,-4.3305,-4.329,-4.329,-4.3045,-4.2521,-4.1833,-4.113,-4.0621,-3.9813,-3.887,-3.7994,-3.7715,-3.6685,-3.4979,-3.4511,-3.4037,-3.3356,-3.3124,-3.3124,-3.3124,-3.3124,-3.3124,-3.3124,-3.3124,-3.3124,-3.3124,-3.3124,-3.3124,-3.3124,-3.3124,-3.3124,-3.3124,-3.3124,-3.3124,-3.3124,-3.3124,-3.3124,-3.3124,-3.3124,-3.3124,-3.3124,-3.3124,-3.3124,-3.3124,-3.3124,-3.3124,-3.3124,-3.3124,-3.3124,-3.3136,-3.3149,-3.2057,-3.1048,-3.0193,-2.8894,-2.7421,-2.6513,-2.6026,-2.5967,-2.5977,-2.6113,-2.6426,-2.6572,-2.6611,-2.6826,-2.707,-2.707,-2.6943,-2.6777,-2.6621,-2.668,-2.6758,-2.6875,-2.6914,-2.7041,-2.7119,-4.2388,-4.2455,-4.2465,-4.2489,-4.2574,-4.3217,-4.3494,-4.3673,-4.4327,-4.4598,-4.4598,-4.4598,-4.4598,-4.4598,-4.4598,-4.4542,-4.4367,-4.2769,-4.2093,-4.1313,-4.0374,-3.9685,-3.9775,-4.0068,-4.0442,-4.0861,-4.1587,-4.2171,-4.2605,-4.3,-4.3155,-4.3305,-4.3305,-4.3305,-4.3305,-4.3305,-4.3305,-4.3305,-4.3305,-4.3305,-4.3305,-4.3305,-4.323,-4.2946,-4.2117,-4.1377,-4.1235,-4.0157,-3.9098,-3.8113,-3.8032,-3.7242,-3.5709,-3.5061,-3.447,-3.3683,-3.3167,-3.3124,-3.3124,-3.3124,-3.3124,-3.3124,-3.3124,-3.3124,-3.3124,-3.3124,-3.3124,-3.3124,-3.3124,-3.3124,-3.3124,-3.3124,-3.3124,-3.3124,-3.3124,-3.3124,-3.3124,-3.3124,-3.3124,-3.3124,-3.3124,-3.3124,-3.3124,-3.3124,-3.3124,-3.3124,-3.3124,-3.3124,-3.3144,-3.3027,-3.1665,-3.0669,-3.0,-2.8741,-2.702,-2.6357,-2.6387,-2.6484,-2.6543,-2.6699,-2.6924,-2.7002,-2.7041,-2.7187,-2.7383,-2.7432,-2.7471,-2.7334,-2.7187,-2.7041,-2.707,-2.7305,-2.7344,-2.7363,-2.748,-4.1356,-4.0933,-4.0959,-4.1441,-4.2354,-4.3071,-4.3403,-4.3555,-4.4231,-4.4598,-4.4598,-4.4598,-4.4598,-4.4598,-4.4598,-4.4598,-4.444,-4.341,-4.2583,-4.1772,-4.0842,-3.9955,-3.9817,-3.9709,-4.0008,-4.0397,-4.1025,-4.1767,-4.2425,-4.2671,-4.3015,-4.3155,-4.329,-4.3305,-4.3305,-4.3305,-4.3305,-4.3305,-4.3305,-4.3305,-4.3305,-4.3305,-4.3305,-4.32,-4.2566,-4.1826,-4.1362,-4.0516,-3.9646,-3.8988,-3.876,-3.7753,-3.6568,-3.5908,-3.5047,-3.4037,-3.3513,-3.3167,-3.3124,-3.3124,-3.3124,-3.3124,-3.3124,-3.3124,-3.3124,-3.3124,-3.3124,-3.3124,-3.3124,-3.3124,-3.3124,-3.3124,-3.3124,-3.3124,-3.3124,-3.3124,-3.3124,-3.3124,-3.3224,-3.3275,-3.3187,-3.3124,-3.3124,-3.3124,-3.3124,-3.3124,-3.3124,-3.3174,-3.3294,-3.3246,-3.2135,-3.0985,-3.0339,-2.9185,-2.7532,-2.709,-2.6896,-2.6982,-2.7109,-2.7236,-2.7373,-2.7412,-2.7471,-2.7598,-2.7725,-2.7832,-2.7891,-2.7871,-2.7773,-2.7627,-2.7695,-2.7871,-2.7842,-2.7715,-2.7803,-4.0561,-4.0146,-4.035,-4.0984,-4.2016,-4.276,-4.3189,-4.3511,-4.4231,-4.4598,-4.4598,-4.4598,-4.4598,-4.4598,-4.4598,-4.4598,-4.4253,-4.3396,-4.2614,-4.1739,-4.0808,-4.006,-3.9574,-3.9463,-3.9709,-4.0083,-4.0442,-4.104,-4.2006,-4.2276,-4.2761,-4.3165,-4.3305,-4.3305,-4.3305,-4.3305,-4.3305,-4.3305,-4.3305,-4.3305,-4.3305,-4.3305,-4.3305,-4.32,-4.2656,-4.2036,-4.1384,-4.0681,-4.0038,-3.951,-3.9192,-3.8745,-3.7814,-3.6774,-3.5748,-3.4733,-3.3784,-3.3167,-3.3124,-3.3124,-3.3124,-3.3124,-3.3124,-3.3124,-3.3124,-3.3124,-3.3124,-3.3124,-3.3124,-3.3124,-3.3124,-3.3124,-3.3124,-3.3124,-3.3124,-3.3124,-3.3124,-3.3136,-3.33,-3.3382,-3.3357,-3.3458,-3.3721,-3.3771,-3.3608,-3.3571,-3.347,-3.3621,-3.3897,-3.3687,-3.3167,-3.1994,-3.0965,-2.9634,-2.8299,-2.776,-2.7346,-2.7578,-2.7676,-2.7685,-2.7773,-2.7803,-2.7851,-2.7969,-2.8096,-2.8252,-2.8223,-2.8096,-2.8154,-2.8223,-2.8213,-2.8144,-2.8144,-2.8027,-2.8105,-4.0146,-4.0197,-4.0815,-4.117,-4.1457,-4.2049,-4.2777,-4.346,-4.4231,-4.4598,-4.4598,-4.4598,-4.4598,-4.4598,-4.4598,-4.4598,-4.4253,-4.3031,-4.2157,-4.1739,-4.0603,-3.9717,-3.946,-3.9418,-3.9463,-3.9604,-3.9993,-4.0621,-4.1542,-4.1976,-4.2581,-4.315,-4.3305,-4.3305,-4.3305,-4.3305,-4.3305,-4.3305,-4.3305,-4.3305,-4.3305,-4.3305,-4.3305,-4.3155,-4.2851,-4.2237,-4.1414,-4.092,-4.0247,-3.9574,-3.9403,-3.8855,-3.7852,-3.676,-3.5734,-3.4733,-3.367,-3.3167,-3.3124,-3.3124,-3.3124,-3.3124,-3.3124,-3.3124,-3.3124,-3.3124,-3.3124,-3.3124,-3.3124,-3.3124,-3.3124,-3.3124,-3.3124,-3.3124,-3.3124,-3.3224,-3.3237,-3.3325,-3.3483,-3.3784,-3.3922,-3.406,-3.4412,-3.4575,-3.4324,-3.4148,-3.396,-3.4085,-3.4387,-3.4317,-3.3879,-3.2852,-3.1677,-3.0548,-2.9238,-2.8231,-2.7816,-2.811,-2.8154,-2.8066,-2.8076,-2.8096,-2.8184,-2.8301,-2.8301,-2.8301,-2.8301,-2.8271,-2.8301,-2.8301,-2.8301,-2.8262,-2.8291,-2.8301,-2.8301,-4.0113,-4.013,-4.0383,-4.1018,-4.1948,-4.2726,-4.3189,-4.3511,-4.4181,-4.4598,-4.4598,-4.4598,-4.4598,-4.4598,-4.4598,-4.457,-4.4355,-4.3545,-4.2707,-4.1836,-4.0672,-3.999,-3.961,-3.9388,-3.9388,-3.9433,-3.9783,-4.0397,-4.1452,-4.1752,-4.2417,-4.3021,-4.3305,-4.3305,-4.3305,-4.3305,-4.3305,-4.3305,-4.3305,-4.3305,-4.3305,-4.3305,-4.329,-4.3275,-4.306,-4.2462,-4.1504,-4.1055,-4.0487,-3.9589,-3.9388,-3.887,-3.7852,-3.676,-3.5748,-3.4733,-3.3725,-3.3124,-3.3124,-3.3124,-3.3124,-3.3124,-3.3124,-3.3124,-3.3124,-3.3124,-3.3124,-3.3149,-3.3187,-3.3174,-3.3124,-3.3136,-3.3136,-3.3124,-3.3187,-3.337,-3.3483,-3.3633,-3.3834,-3.4236,-3.4487,-3.4537,-3.4776,-3.5077,-3.4951,-3.4876,-3.4738,-3.4575,-3.4763,-3.494,-3.4687,-3.3565,-3.2394,-3.1334,-3.024,-2.8916,-2.8117,-2.8154,-2.8252,-2.8232,-2.8271,-2.8301,-2.8301,-2.8301,-2.8301,-2.8301,-2.8301,-2.8301,-2.8301,-2.8301,-2.8301,-2.8301,-2.8301,-2.8301,-2.8301,-4.0113,-4.013,-4.0383,-4.117,-4.2252,-4.2828,-4.3257,-4.3826,-4.435,-4.4598,-4.4598,-4.4598,-4.4598,-4.4598,-4.4598,-4.4598,-4.4485,-4.3336,-4.2707,-4.1836,-4.0706,-3.997,-3.9517,-3.9388,-3.9388,-3.9388,-3.9523,-4.0083,-4.1377,-4.1422,-4.2147,-4.3006,-4.3305,-4.3305,-4.3305,-4.3305,-4.3305,-4.3305,-4.3305,-4.3305,-4.3305,-4.3305,-4.3305,-4.3305,-4.311,-4.2692,-4.1788,-4.119,-4.0786,-3.9843,-3.9265,-3.887,-3.7814,-3.6774,-3.5748,-3.4746,-3.3755,-3.3197,-3.3124,-3.3124,-3.3124,-3.3124,-3.3124,-3.3124,-3.3124,-3.3124,-3.3124,-3.3162,-3.3244,-3.3345,-3.3382,-3.3413,-3.3558,-3.3571,-3.3658,-3.3909,-3.401,-3.4173,-3.4387,-3.4788,-3.5014,-3.5064,-3.5203,-3.5378,-3.5542,-3.5542,-3.5529,-3.5353,-3.519,-3.5386,-3.545,-3.4473,-3.3131,-3.1918,-3.0707,-2.9316,-2.8681,-2.8335,-2.8301,-2.8301,-2.8301,-2.8301,-2.8301,-2.8301,-2.8301,-2.8301,-2.8301,-2.8301,-2.8301,-2.8301,-2.8301,-2.8301,-2.8301,-2.8301,-2.8301,-4.0113,-4.0197,-4.0865,-4.1542,-4.2185,-4.232,-4.3166,-4.453,-4.4598,-4.4598,-4.4598,-4.4598,-4.4598,-4.4598,-4.4598,-4.4598,-4.4338,-4.297,-4.2316,-4.1642,-4.0569,-3.9879,-3.9496,-3.9388,-3.9388,-3.9388,-3.9508,-3.9993,-4.1257,-4.1617,-4.2252,-4.3021,-4.329,-4.3305,-4.3305,-4.3305,-4.3305,-4.3305,-4.3305,-4.3305,-4.3305,-4.3305,-4.3305,-4.3275,-4.308,-4.2491,-4.1728,-4.1227,-4.0516,-3.9858,-3.9352,-3.8671,-3.7791,-3.6774,-3.5762,-3.4664,-3.3543,-3.3283,-3.3124,-3.3124,-3.3124,-3.3124,-3.3124,-3.3124,-3.3162,-3.3224,-3.3338,-3.3432,-3.3621,-3.3796,-3.3922,-3.4211,-3.4487,-3.45,-3.45,-3.4613,-3.4688,-3.4851,-3.5019,-3.527,-3.5458,-3.5655,-3.5931,-3.6153,-3.5931,-3.5994,-3.5981,-3.5981,-3.5915,-3.5977,-3.5943,-3.5647,-3.4182,-3.2526,-3.1173,-2.966,-2.8751,-2.8291,-2.8301,-2.8301,-2.8301,-2.8301,-2.8301,-2.8301,-2.8301,-2.8301,-2.8301,-2.8301,-2.8301,-2.8301,-2.8301,-2.8301,-2.8301,-2.8301,-2.8301,-4.0113,-4.013,-4.035,-4.0832,-4.1542,-4.2066,-4.3176,-4.4496,-4.4598,-4.4598,-4.4598,-4.4598,-4.4598,-4.4598,-4.4598,-4.4598,-4.4179,-4.3515,-4.2645,-4.1723,-4.0758,-4.006,-3.961,-3.9388,-3.9388,-3.9388,-3.9508,-3.9873,-4.0756,-4.1414,-4.2387,-4.3155,-4.329,-4.3305,-4.3305,-4.3305,-4.3305,-4.3305,-4.3305,-4.3305,-4.3305,-4.3305,-4.3305,-4.3245,-4.291,-4.2222,-4.1594,-4.0935,-4.0247,-3.9634,-3.9403,-3.8671,-3.6721,-3.629,-3.5588,-3.3784,-3.324,-3.3124,-3.3124,-3.3124,-3.3124,-3.3136,-3.3149,-3.3124,-3.3224,-3.3395,-3.3596,-3.3822,-3.4135,-3.4399,-3.4537,-3.4776,-3.4977,-3.5027,-3.5039,-3.5115,-3.5203,-3.5366,-3.5579,-3.5793,-3.5981,-3.6031,-3.6392,-3.638,-3.6229,-3.6355,-3.6417,-3.6417,-3.6417,-3.6417,-3.6013,-3.5715,-3.4387,-3.2482,-3.1327,-2.9911,-2.9006,-2.8301,-2.8301,-2.8301,-2.8301,-2.8301,-2.8301,-2.8301,-2.8301,-2.8301,-2.8301,-2.8301,-2.8301,-2.8301,-2.8301,-2.8301,-2.8301,-2.8301,-2.8301,-4.0113,-4.0113,-4.0113,-4.051,-4.1255,-4.1999,-4.2878,-4.3667,-4.3978,-4.4248,-4.4581,-4.4598,-4.4598,-4.4598,-4.4598,-4.457,-4.4514,-4.3651,-4.2785,-4.1933,-4.1131,-4.022,-3.9681,-3.9388,-3.9388,-3.9388,-3.9478,-3.9747,-4.0561,-4.1692,-4.2686,-4.323,-4.3305,-4.329,-4.3305,-4.3305,-4.3305,-4.3305,-4.3305,-4.3305,-4.3305,-4.3305,-4.3305,-4.317,-4.2725,-4.2066,-4.1399,-4.0741,-4.0083,-3.9493,-3.9403,-3.8657,-3.6813,-3.6146,-3.5047,-3.3441,-3.3167,-3.3124,-3.3124,-3.3124,-3.3124,-3.3187,-3.3269,-3.3407,-3.3508,-3.3684,-3.396,-3.4236,-3.47,-3.5019,-3.5152,-3.524,-3.5328,-3.5416,-3.5491,-3.5554,-3.5692,-3.583,-3.6044,-3.6304,-3.638,-3.6367,-3.6417,-3.6417,-3.6417,-3.6417,-3.6417,-3.6417,-3.6417,-3.6417,-3.5823,-3.5223,-3.3749,-3.2079,-3.1019,-2.9964,-2.9006,-2.8301,-2.8301,-2.8301,-2.8301,-2.8301,-2.8301,-2.8301,-2.8301,-2.8301,-2.8301,-2.8301,-2.8301,-2.8301,-2.8301,-2.8301,-2.8301,-2.8301,-2.8301,-4.0113,-4.0113,-4.0113,-4.0468,-4.1153,-4.1745,-4.2117,-4.2269,-4.2912,-4.369,-4.4344,-4.4553,-4.4598,-4.4598,-4.4598,-4.4598,-4.444,-4.3873,-4.3,-4.2029,-4.1379,-4.0481,-3.9681,-3.9388,-3.9388,-3.9388,-3.9493,-3.9768,-4.0546,-4.1399,-4.2237,-4.3155,-4.314,-4.314,-4.3275,-4.3305,-4.3305,-4.3305,-4.3305,-4.3305,-4.3305,-4.3305,-4.3275,-4.317,-4.2641,-4.1991,-4.1392,-4.0711,-4.0053,-3.9597,-3.9265,-3.8833,-3.7266,-3.5574,-3.415,-3.3569,-3.3167,-3.3124,-3.3124,-3.3124,-3.3212,-3.3363,-3.3583,-3.3909,-3.4098,-3.4274,-3.4575,-3.4826,-3.5207,-3.5542,-3.5667,-3.578,-3.5893,-3.5918,-3.5956,-3.5994,-3.6056,-3.6132,-3.6254,-3.6417,-3.6417,-3.6417,-3.6417,-3.6417,-3.6417,-3.6417,-3.6417,-3.6417,-3.6263,-3.6263,-3.5571,-3.4727,-3.3342,-3.1876,-3.0618,-2.9608,-2.8751,-2.8301,-2.8301,-2.8301,-2.8301,-2.8301,-2.8301,-2.8301,-2.8301,-2.8301,-2.8301,-2.8301,-2.8301,-2.8301,-2.8301,-2.8301,-2.8301,-2.8301,-2.8301,-4.0113,-4.0113,-4.0113,-4.0214,-4.0358,-4.0553,-4.0993,-4.1457,-4.1627,-4.2489,-4.3639,-4.4248,-4.4598,-4.4598,-4.4598,-4.4598,-4.4468,-4.4224,-4.335,-4.2458,-4.1707,-4.0774,-3.9666,-3.9445,-3.9424,-3.9388,-3.9493,-3.9753,-4.0397,-4.0935,-4.1489,-4.2476,-4.2611,-4.2746,-4.308,-4.3095,-4.3095,-4.3035,-4.3065,-4.311,-4.32,-4.326,-4.3275,-4.297,-4.2402,-4.1767,-4.1055,-4.0277,-3.9783,-3.9388,-3.9388,-3.8383,-3.6643,-3.4664,-3.3556,-3.3167,-3.3124,-3.3124,-3.3124,-3.3162,-3.3287,-3.3571,-3.3935,-3.4462,-3.4781,-3.4994,-3.5207,-3.5433,-3.5705,-3.5956,-3.6144,-3.6317,-3.6417,-3.6417,-3.6417,-3.6417,-3.6417,-3.6417,-3.6417,-3.6417,-3.6417,-3.6417,-3.6417,-3.6417,-3.6417,-3.6417,-3.6417,-3.631,-3.6013,-3.581,-3.5066,-3.4215,-3.3143,-3.1774,-3.0359,-2.9355,-2.8548,-2.8301,-2.8301,-2.8301,-2.8301,-2.8301,-2.8301,-2.8301,-2.8301,-2.8301,-2.8301,-2.8301,-2.8301,-2.8301,-2.8301,-2.8301,-2.8301,-2.8301,-2.8301,-4.0113,-4.0113,-4.0113,-4.0113,-4.0113,-4.0113,-4.0324,-4.0713,-4.1052,-4.1644,-4.254,-4.3521,-4.4231,-4.4513,-4.4598,-4.4598,-4.4598,-4.457,-4.3768,-4.2894,-4.2013,-4.1147,-4.0343,-3.9574,-3.9424,-3.9388,-3.9433,-3.9687,-4.0262,-4.0502,-4.1025,-4.1826,-4.2006,-4.2156,-4.2491,-4.2491,-4.2521,-4.2432,-4.2536,-4.2671,-4.291,-4.312,-4.3275,-4.2916,-4.2252,-4.1602,-4.095,-4.0187,-3.9619,-3.9156,-3.8943,-3.7472,-3.5961,-3.4594,-3.3683,-3.3283,-3.3124,-3.3124,-3.3124,-3.3212,-3.337,-3.3771,-3.4236,-3.4705,-3.5232,-3.5458,-3.5805,-3.6019,-3.6044,-3.6304,-3.6304,-3.6405,-3.6417,-3.6417,-3.6417,-3.6417,-3.6417,-3.6417,-3.6417,-3.6417,-3.6417,-3.6417,-3.6417,-3.6417,-3.6417,-3.6417,-3.6417,-3.6417,-3.6061,-3.5198,-3.4508,-3.3502,-3.2331,-3.1019,-2.946,-2.8804,-2.8451,-2.8301,-2.8301,-2.8301,-2.8301,-2.8301,-2.8301,-2.8301,-2.8301,-2.8301,-2.8301,-2.8301,-2.8301,-2.8301,-2.8301,-2.8301,-2.8301,-2.8301,-2.8301,-4.0113,-4.0113,-4.0113,-4.0113,-4.0113,-4.0113,-4.013,-4.0231,-4.0764,-4.1119,-4.1441,-4.2564,-4.3555,-4.4198,-4.4598,-4.4598,-4.4598,-4.4598,-4.3977,-4.3216,-4.2363,-4.1412,-4.0569,-3.9829,-3.9553,-3.9388,-3.9403,-3.9687,-4.0142,-4.0217,-4.0457,-4.1115,-4.128,-4.1309,-4.1392,-4.1452,-4.1617,-4.1654,-4.1728,-4.1871,-4.2282,-4.288,-4.3135,-4.2821,-4.2177,-4.1512,-4.098,-4.0307,-3.9538,-3.887,-3.8234,-3.6671,-3.5413,-3.4358,-3.3839,-3.3283,-3.3124,-3.3124,-3.3149,-3.3232,-3.3571,-3.3997,-3.4512,-3.5006,-3.5558,-3.5943,-3.6292,-3.638,-3.6405,-3.6417,-3.6417,-3.6417,-3.6417,-3.6417,-3.6417,-3.6417,-3.6417,-3.6417,-3.6417,-3.6417,-3.6417,-3.6417,-3.6417,-3.6417,-3.6417,-3.6417,-3.6417,-3.6417,-3.6061,-3.48,-3.3798,-3.2543,-3.1173,-2.9817,-2.8601,-2.8398,-2.8291,-2.8301,-2.8301,-2.8301,-2.8301,-2.8301,-2.8301,-2.8301,-2.8301,-2.8301,-2.8301,-2.8301,-2.8301,-2.8301,-2.8301,-2.8301,-2.8301,-2.8301,-2.8301,-4.0113,-4.0113,-4.0113,-4.0113,-4.0113,-4.0113,-4.0113,-4.0113,-4.0248,-4.0595,-4.1136,-4.1457,-4.232,-4.369,-4.4367,-4.4547,-4.4429,-4.453,-4.4064,-4.3276,-4.2426,-4.1576,-4.0706,-3.992,-3.9517,-3.9388,-3.9388,-3.9493,-3.9798,-3.9753,-3.9933,-4.0546,-4.0591,-4.0816,-4.1309,-4.128,-4.1175,-4.113,-4.1175,-4.1324,-4.1632,-4.2177,-4.2821,-4.2566,-4.2087,-4.1609,-4.104,-4.0068,-3.9568,-3.887,-3.7625,-3.6067,-3.4856,-3.3953,-3.3441,-3.3283,-3.3124,-3.3124,-3.3174,-3.3432,-3.3834,-3.4399,-3.4893,-3.5504,-3.5918,-3.6169,-3.6392,-3.6392,-3.6417,-3.6417,-3.6417,-3.6417,-3.6417,-3.6417,-3.6417,-3.6417,-3.6417,-3.6417,-3.6417,-3.6417,-3.6417,-3.6417,-3.6417,-3.6417,-3.6417,-3.6417,-3.6417,-3.6358,-3.587,-3.4557,-3.3193,-3.1735,-3.0266,-2.926,-2.8344,-2.8344,-2.8301,-2.8301,-2.8301,-2.8301,-2.8301,-2.8301,-2.8301,-2.8301,-2.8301,-2.8301,-2.8301,-2.8301,-2.8301,-2.8301,-2.8301,-2.8301,-2.8301,-2.8301,-2.8301]},{"header":{"parameterUnit":"m.s-1","parameterCategory":1,"la1":31.0,"la2":29.5877,"lo1":-88.7671,"lo2":-86.6584,"dy":0.0162,"dx":0.0185,"nx":115,"ny":88,"refTime":"2023-03-06T06:00:00:Z","depth":0,"parameterNumber":3,"parameterNumberName":"V-component_of_WINDS"},"data":[0.0,0.0,0.0,0.0,0.0,0.0,0.0,0.0,0.0,0.0,0.0,0.0,0.0,0.0,0.0,0.0,0.0,0.0,0.0,0.0,0.0,0.0,0.0,0.0,0.0,0.0,0.0,0.0,0.0,0.0,0.0,0.0,0.0,0.0,0.0,0.0,0.0,0.0,0.0,0.0,0.0,0.0,0.0,0.0,0.0,0.0,0.0,0.0,0.0,0.0,0.0,0.0,0.0,0.0,0.0,0.0,0.0,0.0,0.0,0.0,0.0,0.0,0.0,0.0,0.0,0.0,0.0,0.0,0.0,0.0,0.0,0.0,0.0,0.0,0.0,0.0,0.0,0.0,0.0,0.0,0.0,0.0,0.0,0.0,0.0,0.0,0.0,0.0,0.0,0.0,0.0,0.0,0.0,0.0,0.0,0.0,0.0,0.0,0.0,0.0,0.0,0.0,0.0,0.0,0.0,0.0,0.0,0.0,0.0,0.0,0.0,0.0,0.0,0.0,0.0,0.0,0.0,0.0,0.0,0.0,0.0,0.0,0.0,0.0,0.0,0.0,0.0,0.0,0.0,0.0,0.0,0.0,0.0,0.0,0.0,0.0,0.0,0.0,0.0,0.0,0.0,0.0,0.0,0.0,0.0,0.0,0.0,0.0,0.0,0.0,0.0,0.0,0.0,0.0,0.0,0.0,0.0,0.0,0.0,0.0,0.0,0.0,0.0,0.0,0.0,0.0,0.0,0.0,0.0,0.0,0.0,0.0,0.0,0.0,0.0,0.0,0.0,0.0,0.0,0.0,0.0,0.0,0.0,0.0,0.0,0.0,0.0,0.0,0.0,0.0,0.0,0.0,0.0,0.0,0.0,0.0,0.0,0.0,0.0,0.0,0.0,0.0,0.0,0.0,0.0,0.0,0.0,0.0,0.0,0.0,0.0,0.0,0.0,0.0,0.0,0.0,0.0,0.0,0.0,0.0,0.0,0.0,0.0,0.0,0.0,0.0,0.0,0.0,0.0,0.0,0.0,0.0,0.0,0.0,0.0,0.0,0.0,0.0,0.0,0.0,0.0,0.0,0.0,0.0,0.0,0.0,0.0,0.0,0.0,0.0,0.0,0.0,0.0,0.0,0.0,0.0,0.0,0.0,0.0,0.0,0.0,0.0,0.0,0.0,0.0,0.0,0.0,0.0,0.0,0.0,0.0,0.0,0.0,0.0,0.0,0.0,0.0,0.0,0.0,0.0,0.0,0.0,0.0,0.0,0.0,0.0,0.0,0.0,0.0,0.0,0.0,0.0,0.0,0.0,0.0,0.0,0.0,0.0,0.0,0.0,0.0,0.0,0.0,0.0,0.0,0.0,0.0,0.0,0.0,0.0,0.0,0.0,0.0,0.0,0.0,0.0,0.0,0.0,0.0,0.0,0.0,0.0,0.0,0.0,0.0,0.0,0.0,0.0,0.0,0.0,0.0,0.0,0.0,0.0,0.0,0.0,0.0,0.0,0.0,0.0,0.0,0.0,0.0,0.0,0.0,0.0,0.0,0.0,0.0,0.0,0.0,0.0,0.0,0.0,0.0,0.0,0.0,0.0,0.0,0.0,0.0,0.0,0.0,0.0,0.0,0.0,0.0,0.0,0.0,0.0,0.0,0.0,0.0,0.0,0.0,0.0,0.0,0.0,0.0,0.0,0.0,0.0,0.0,0.0,0.0,0.0,0.0,0.0,0.0,0.0,0.0,0.0,0.0,0.0,0.0,0.0,0.0,0.0,0.0,0.0,0.0,0.0,0.0,0.0,0.0,0.0,0.0,0.0,0.0,0.0,0.0,0.0,0.0,0.0,0.0,0.0,0.0,0.0,0.0,0.0,0.0,0.0,0.0,0.0,0.0,0.0,0.0,0.0,0.0,0.0,0.0,0.0,0.0,0.0,0.0,0.0,0.0,0.0,0.0,0.0,0.0,0.0,0.0,0.0,0.0,0.0,0.0,0.0,0.0,0.0,0.0,0.0,0.0,0.0,0.0,0.0,0.0,0.0,0.0,0.0,0.0,0.0,0.0,0.0,0.0,0.0,0.0,0.0,0.0,0.0,0.0,0.0,0.0,0.0,0.0,0.0,0.0,0.0,0.0,0.0,0.0,0.0,0.0,0.0,0.0,0.0,0.0,0.0,0.0,0.0,0.0,0.0,0.0,0.0,0.0,0.0,0.0,0.0,0.0,0.0,0.0,0.0,0.0,0.0,0.0,0.0,0.0,0.0,0.0,0.0,0.0,0.0,0.0,0.0,0.0,0.0,0.0,0.0,0.0,0.0,0.0,0.0,0.0,0.0,0.0,0.0,0.0,0.0,0.0,0.0,0.0,0.0,0.0,0.0,0.0,0.0,0.0,0.0,0.0,0.0,0.0,0.0,0.0,0.0,0.0,0.0,0.0,0.0,0.0,0.0,0.0,0.0,0.0,0.0,0.0,0.0,0.0,0.0,0.0,0.0,0.0,0.0,0.0,0.0,0.0,0.0,0.0,0.0,0.0,0.0,0.0,0.0,0.0,0.0,0.0,0.0,0.0,0.0,0.0,0.0,0.0,0.0,0.0,0.0,0.0,0.0,0.0,0.0,0.0,0.0,0.0,0.0,0.0,0.0,0.0,0.0,0.0,0.0,0.0,0.0,0.0,0.0,0.0,0.0,0.0,0.0,0.0,0.0,0.0,0.0,0.0,0.0,0.0,0.0,0.0,0.0,0.0,0.0,0.0,0.0,0.0,0.0,0.0,0.0,0.0,0.0,0.0,0.0,0.0,0.0,0.0,0.0,0.0,0.0,0.0,0.0,0.0,0.0,0.0,0.0,0.0,0.0,0.0,0.0,0.0,0.0,0.0,0.0,0.0,0.0,0.0,0.0,0.0,0.0,0.0,0.0,0.0,0.0,0.0,0.0,0.0,0.0,0.0,0.0,0.0,0.0,0.0,0.0,0.0,0.0,0.0,0.0,0.0,0.0,0.0,0.0,0.0,0.0,0.0,0.0,0.0,0.0,0.0,0.0,0.0,0.0,0.0,0.0,0.0,0.0,0.0,0.0,0.0,0.0,0.0,0.0,0.0,0.0,0.0,0.0,0.0,0.0,0.0,0.0,0.0,0.0,0.0,0.0,0.0,0.0,0.0,0.0,0.0,0.0,0.0,0.0,0.0,0.0,0.0,0.0,0.0,0.0,0.0,0.0,0.0,0.0,0.0,0.0,0.0,0.0,0.0,0.0,0.0,0.0,0.0,0.0,0.0,0.0,0.0,0.0,0.0,0.0,0.0,0.0,0.0,0.0,0.0,0.0,0.0,0.0,0.0,0.0,0.0,0.0,0.0,0.0,0.0,0.0,0.0,0.0,0.0,0.0,0.0,0.0,0.0,0.0,0.0,0.0,0.0,0.0,0.0,0.0,0.0,0.0,0.0,0.0,0.0,0.0,0.0,0.0,0.0,0.0,0.0,0.0,0.0,0.0,0.0,0.0,0.0,0.0,0.0,0.0,0.0,0.0,0.0,0.0,0.0,0.0,0.0,0.0,0.0,0.0,0.0,0.0,0.0,0.0,0.0,0.0,0.0,0.0,0.0,0.0,0.0,0.0,0.0,0.0,0.0,0.0,0.0,0.0,0.0,0.0,0.0,0.0,0.0,0.0,0.0,0.0,0.0,0.0,0.0,0.0,0.0,0.0,0.0,0.0,0.0,0.0,0.0,0.0,0.0,0.0,0.0,0.0,0.0,0.0,0.0,0.0,0.0,0.0,0.0,0.0,0.0,0.0,0.0,0.0,0.0,0.0,0.0,0.0,0.0,0.0,0.0,0.0,0.0,0.0,0.0,0.0,0.0,0.0,0.0,0.0,0.0,0.0,0.0,0.0,0.0,0.0,0.0,0.0,0.0,0.0,0.0,0.0,0.0,0.0,0.0,0.0,0.0,0.0,0.0,0.0,0.0,0.0,0.0,0.0,0.0,0.0,0.0,0.0,0.0,0.0,0.0,0.0,0.0,0.0,0.0,0.0,0.0,0.0,0.0,0.0,0.0,0.0,0.0,0.0,0.0,0.0,0.0,0.0,0.0,0.0,0.0,0.0,0.0,0.0,0.0,0.0,0.0,0.0,0.0,0.0,0.0,0.0,0.0,0.0,0.0,0.0,0.0,0.0,0.0,0.0,0.0,0.0,0.0,0.0,0.0,0.0,0.0,0.0,0.0,0.0,0.0,0.0,0.0,0.0,0.0,0.0,0.0,0.0,0.0,0.0,0.0,0.0,0.0,0.0,1.9798,0.0,0.0,0.0,0.0,0.0,0.0,0.0,0.0,0.0,0.0,0.0,0.0,0.0,0.0,0.0,0.0,0.0,0.0,0.0,0.0,0.0,0.0,0.0,0.0,0.0,0.0,0.0,0.0,0.0,0.0,0.0,0.0,0.0,0.0,0.0,0.0,0.0,0.0,0.0,0.0,0.0,0.0,0.0,0.0,0.0,0.0,0.0,0.0,0.0,0.0,0.0,0.0,0.0,0.0,0.0,0.0,0.0,0.0,0.0,0.0,0.0,0.0,0.0,0.0,0.0,0.0,0.0,0.0,0.0,0.0,0.0,0.0,0.0,0.0,0.0,0.0,0.0,0.0,0.0,0.0,0.0,0.0,0.0,0.0,0.0,0.0,0.0,0.0,0.0,0.0,0.0,0.0,0.0,0.0,0.0,0.0,0.0,0.0,0.0,0.0,0.0,0.0,0.0,0.0,0.0,0.0,0.0,0.0,0.0,0.0,1.9798,1.9798,1.9798,1.9798,1.9798,0.0,0.0,0.0,0.0,0.0,0.0,0.0,0.0,0.0,0.0,0.0,0.0,0.0,0.0,0.0,0.0,0.0,0.0,0.0,0.0,0.0,0.0,0.0,0.0,0.0,0.0,0.0,0.0,0.0,0.0,0.0,0.0,0.0,0.0,0.0,0.0,0.0,0.0,0.0,0.0,0.0,0.0,0.0,0.0,0.0,0.0,0.0,0.0,0.0,0.0,0.0,0.0,0.0,0.0,0.0,0.0,0.0,0.0,0.0,0.0,0.0,0.0,0.0,0.0,0.0,0.0,0.0,0.0,0.0,0.0,0.0,0.0,0.0,0.0,0.0,0.0,0.0,0.0,0.0,0.0,0.0,0.0,0.0,0.0,0.0,0.0,0.0,0.0,0.0,0.0,0.0,0.0,0.0,0.0,0.0,0.0,0.0,0.0,0.0,0.0,0.0,0.0,0.0,0.0,0.0,0.0,0.0,0.0,0.0,0.0,0.0,0.0,1.9798,1.9798,1.9798,0.0,0.0,0.0,0.0,0.0,0.0,0.0,0.0,0.0,0.0,0.0,0.0,0.0,0.0,0.0,0.0,0.0,0.0,0.0,0.0,0.0,0.0,0.0,0.0,0.0,0.0,0.0,0.0,0.0,0.0,0.0,0.0,0.0,0.0,0.0,0.0,0.0,0.0,0.0,0.0,0.0,0.0,0.0,0.0,0.0,0.0,0.0,0.0,0.0,0.0,0.0,0.0,0.0,0.0,0.0,0.0,0.0,0.0,0.0,0.0,0.0,0.0,0.0,0.0,0.0,0.0,0.0,0.0,0.0,0.0,0.0,0.0,0.0,0.0,0.0,0.0,0.0,0.0,0.0,0.0,0.0,0.0,0.0,0.0,0.0,0.0,0.0,0.0,0.0,0.0,0.0,0.0,0.0,0.0,0.0,0.0,0.0,0.0,0.0,0.0,0.0,0.0,0.0,0.0,0.0,0.0,0.0,0.0,0.0,0.0,1.9798,1.9798,1.9798,0.0,1.9824,0.0,0.0,0.0,0.0,0.0,0.0,0.0,0.0,0.0,0.0,0.0,0.0,0.0,0.0,0.0,0.0,0.0,0.0,0.0,0.0,0.0,0.0,0.0,0.0,0.0,0.0,0.0,0.0,0.0,0.0,0.0,0.0,0.0,0.0,0.0,0.0,0.0,0.0,0.0,0.0,0.0,0.0,0.0,0.0,0.0,0.0,0.0,0.0,0.0,0.0,0.0,0.0,0.0,0.0,0.0,0.0,0.0,0.0,0.0,0.0,0.0,0.0,0.0,0.0,0.0,0.0,0.0,0.0,0.0,0.0,0.0,0.0,0.0,0.0,0.0,0.0,0.0,0.0,0.0,0.0,0.0,0.0,0.0,0.0,0.0,0.0,0.0,0.0,0.0,0.0,0.0,0.0,0.0,0.0,0.0,0.0,0.0,0.0,0.0,0.0,0.0,0.0,0.0,0.0,0.0,0.0,0.0,0.0,0.0,0.0,1.9798,1.9798,1.9798,1.9798,0.0,0.0,0.0,0.0,0.0,0.0,0.0,0.0,0.0,0.0,0.0,0.0,0.0,0.0,0.0,0.0,0.0,0.0,0.0,0.0,0.0,0.0,0.0,0.0,0.0,0.0,0.0,0.0,0.0,0.0,0.0,0.0,0.0,0.0,0.0,0.0,0.0,0.0,0.0,0.0,0.0,0.0,0.0,0.0,0.0,0.0,0.0,0.0,0.0,0.0,0.0,0.0,0.0,0.0,0.0,0.0,0.0,0.0,0.0,0.0,0.0,0.0,0.0,0.0,0.0,0.0,0.0,0.0,0.0,0.0,0.0,0.0,0.0,0.0,0.0,0.0,0.0,0.0,0.0,0.0,0.0,0.0,0.0,0.0,0.0,0.0,0.0,0.0,0.0,0.0,0.0,0.0,0.0,0.0,0.0,0.0,0.0,0.0,0.0,0.0,0.0,0.0,0.0,0.0,0.0,0.0,0.0,0.0,0.0,0.0,1.9798,1.9798,1.9786,1.9737,1.9661,1.9585,0.0,0.0,0.0,0.0,0.0,0.0,0.0,0.0,0.0,0.0,0.0,0.0,0.0,0.0,0.0,0.0,0.0,0.0,0.0,0.0,0.0,0.0,0.0,0.0,0.0,0.0,0.0,0.0,0.0,0.0,0.0,0.0,0.0,0.0,0.0,0.0,0.0,0.0,0.0,0.0,0.0,0.0,0.0,0.0,0.0,0.0,0.0,0.0,0.0,0.0,0.0,0.0,0.0,0.0,0.0,0.0,0.0,0.0,0.0,0.0,0.0,0.0,0.0,0.0,0.0,0.0,0.0,0.0,0.0,0.0,0.0,0.0,0.0,0.0,0.0,0.0,0.0,0.0,0.0,0.0,0.0,0.0,0.0,0.0,0.0,0.0,0.0,0.0,0.0,0.0,0.0,0.0,0.0,0.0,0.0,0.0,0.0,0.0,0.0,0.0,0.0,0.0,0.0,0.0,0.0,0.0,0.0,0.0,1.9798,1.9798,1.9798,1.9786,1.9559,1.9291,0.0,0.0,0.0,0.0,0.0,0.0,0.0,0.0,0.0,0.0,0.0,0.0,0.0,0.0,0.0,0.0,0.0,0.0,0.0,0.0,0.0,0.0,0.0,0.0,0.0,0.0,0.0,0.0,0.0,0.0,0.0,0.0,0.0,0.0,0.0,0.0,0.0,0.0,0.0,0.0,0.0,0.0,0.0,0.0,0.0,0.0,0.0,0.0,0.0,0.0,0.0,0.0,0.0,0.0,0.0,0.0,0.0,0.0,0.0,0.0,0.0,0.0,0.0,0.0,0.0,0.0,0.0,0.0,0.0,0.0,0.0,0.0,0.0,0.0,0.0,0.0,0.0,0.0,0.0,0.0,0.0,0.0,0.0,0.0,0.0,0.0,0.0,0.0,0.0,0.0,0.0,0.0,0.0,0.0,0.0,0.0,0.0,0.0,0.0,0.0,0.0,0.0,0.0,0.0,0.0,0.0,0.0,0.0,0.0,1.9798,1.9798,1.9686,1.9471,1.9256,1.8991,0.0,0.0,0.0,0.0,0.0,0.0,0.0,0.0,0.0,0.0,0.0,0.0,0.0,0.0,0.0,0.0,0.0,0.0,0.0,0.0,0.0,0.0,0.0,0.0,0.0,0.0,0.0,0.0,0.0,0.0,0.0,0.0,0.0,0.0,0.0,0.0,0.0,0.0,0.0,0.0,0.0,0.0,0.0,0.0,0.0,0.0,0.0,0.0,0.0,0.0,0.0,0.0,0.0,0.0,0.0,0.0,0.0,0.0,0.0,0.0,0.0,0.0,0.0,0.0,0.0,0.0,0.0,0.0,0.0,0.0,0.0,0.0,0.0,0.0,0.0,0.0,0.0,0.0,0.0,0.0,0.0,0.0,0.0,0.0,0.0,0.0,0.0,0.0,0.0,0.0,0.0,0.0,0.0,0.0,0.0,0.0,0.0,0.0,0.0,0.0,0.0,0.0,0.0,0.0,0.0,0.0,0.0,0.0,0.0,1.9798,0.0,1.9522,1.9315,1.8873,1.8541,0.0,0.0,0.0,0.0,0.0,0.0,0.0,0.0,0.0,0.0,0.0,0.0,0.0,0.0,0.0,0.0,0.0,0.0,0.0,0.0,0.0,0.0,0.0,0.0,0.0,0.0,0.0,0.0,0.0,0.0,0.0,0.0,0.0,0.0,0.0,0.0,0.0,0.0,0.0,0.0,0.0,0.0,0.0,0.0,0.0,0.0,0.0,0.0,0.0,0.0,0.0,0.0,0.0,0.0,0.0,0.0,0.0,0.0,0.0,0.0,0.0,0.0,0.0,0.0,0.0,0.0,0.0,0.0,0.0,0.0,0.0,0.0,0.0,0.0,0.0,0.0,0.0,0.0,0.0,0.0,0.0,0.0,0.0,0.0,0.0,0.0,0.0,0.0,0.0,0.0,0.0,0.0,0.0,0.0,0.0,0.0,0.0,0.0,0.0,0.0,0.0,0.0,0.0,0.0,0.0,0.0,0.0,0.0,1.9798,1.9786,1.9509,1.9353,1.929,1.8487,1.7946,0.0,0.0,0.0,0.0,0.0,0.0,0.0,0.0,0.0,0.0,0.0,0.0,0.0,0.0,0.0,0.0,0.0,0.0,0.0,0.0,0.0,0.0,0.0,0.0,0.0,0.0,0.0,0.0,0.0,0.0,0.0,0.0,0.0,0.0,0.0,0.0,0.0,0.0,0.0,0.0,0.0,0.0,0.0,0.0,0.0,0.0,0.0,0.0,0.0,0.0,0.0,0.0,0.0,0.0,0.0,0.0,0.0,0.0,0.0,0.0,0.0,0.0,0.0,0.0,0.0,0.0,0.0,0.0,0.0,0.0,0.0,0.0,0.0,0.0,0.0,0.0,0.0,0.0,0.0,0.0,0.0,0.0,0.0,0.0,0.0,0.0,0.0,0.0,0.0,0.0,0.0,0.0,0.0,0.0,0.0,0.0,0.0,0.0,0.0,0.0,0.0,0.0,0.0,0.0,0.0,0.0,0.0,0.0,0.0,1.9824,2.0066,1.9994,1.9568,1.881,1.8341,0.0,0.0,0.0,0.0,0.0,0.0,0.0,0.0,0.0,0.0,0.0,0.0,0.0,0.0,0.0,0.0,0.0,0.0,0.0,0.0,0.0,0.0,0.0,0.0,0.0,0.0,0.0,0.0,0.0,0.0,0.0,0.0,0.0,0.0,0.0,0.0,0.0,0.0,0.0,0.0,0.0,0.0,0.0,0.0,0.0,0.0,0.0,0.0,0.0,0.0,0.0,0.0,0.0,0.0,0.0,0.0,0.0,0.0,0.0,0.0,0.0,0.0,0.0,0.0,0.0,0.0,0.0,0.0,0.0,0.0,0.0,0.0,0.0,0.0,0.0,0.0,0.0,0.0,0.0,0.0,0.0,0.0,0.0,0.0,0.0,0.0,0.0,0.0,0.0,0.0,0.0,0.0,0.0,0.0,0.0,0.0,0.0,0.0,0.0,0.0,0.0,0.0,0.0,0.0,0.0,0.0,0.0,0.0,0.0,2.0553,2.0616,2.0439,2.0093,1.9286,1.8724,1.8382,0.0,0.0,0.0,0.0,0.0,0.0,0.0,0.0,0.0,0.0,0.0,0.0,0.0,0.0,0.0,0.0,0.0,0.0,0.0,0.0,0.0,0.0,0.0,0.0,0.0,0.0,0.0,0.0,0.0,0.0,0.0,0.0,0.0,0.0,0.0,0.0,0.0,0.0,0.0,0.0,0.0,0.0,0.0,0.0,0.0,0.0,0.0,0.0,0.0,0.0,0.0,0.0,0.0,0.0,0.0,0.0,0.0,0.0,0.0,0.0,0.0,0.0,0.0,0.0,0.0,0.0,0.0,0.0,0.0,0.0,0.0,0.0,0.0,0.0,0.0,0.0,0.0,0.0,0.0,0.0,0.0,0.0,0.0,0.0,0.0,0.0,0.0,0.0,0.0,0.0,0.0,0.0,0.0,0.0,0.0,0.0,0.0,0.0,0.0,0.0,0.0,0.0,0.0,0.0,0.0,0.0,0.0,0.0,2.1782,2.1192,2.0882,2.0827,1.9954,1.9148,0.0,0.0,0.0,0.0,0.0,0.0,0.0,0.0,0.0,0.0,0.0,0.0,0.0,0.0,0.0,0.0,0.0,0.0,0.0,0.0,0.0,0.0,0.0,0.0,0.0,0.0,0.0,0.0,0.0,0.0,0.0,0.0,0.0,0.0,0.0,0.0,0.0,0.0,0.0,0.0,0.0,0.0,0.0,0.0,0.0,0.0,0.0,0.0,0.0,0.0,0.0,0.0,0.0,0.0,0.0,0.0,0.0,0.0,0.0,0.0,0.0,0.0,0.0,0.0,0.0,0.0,0.0,0.0,0.0,0.0,0.0,0.0,0.0,0.0,0.0,0.0,0.0,0.0,0.0,0.0,0.0,0.0,0.0,0.0,0.0,0.0,0.0,0.0,0.0,0.0,0.0,0.0,0.0,0.0,0.0,0.0,0.0,0.0,0.0,0.0,0.0,0.0,0.0,0.0,0.0,0.0,0.0,0.0,0.0,2.1666,2.2627,2.2934,2.2468,2.1602,2.0913,0.0,0.0,0.0,0.0,0.0,0.0,0.0,0.0,0.0,0.0,0.0,0.0,0.0,0.0,0.0,0.0,0.0,0.0,0.0,0.0,0.0,0.0,0.0,0.0,0.0,0.0,0.0,0.0,0.0,0.0,0.0,0.0,0.0,0.0,0.0,0.0,0.0,0.0,0.0,0.0,0.0,0.0,0.0,0.0,0.0,0.0,0.0,0.0,0.0,0.0,0.0,0.0,0.0,0.0,0.0,0.0,0.0,0.0,0.0,0.0,0.0,0.0,0.0,0.0,0.0,0.0,0.0,0.0,0.0,0.0,0.0,0.0,0.0,0.0,0.0,0.0,0.0,0.0,0.0,0.0,0.0,0.0,0.0,0.0,0.0,0.0,0.0,0.0,0.0,0.0,0.0,0.0,0.0,0.0,0.0,0.0,0.0,0.0,0.0,0.0,0.0,0.0,0.0,0.0,0.0,0.0,0.0,0.0,2.1825,2.2049,2.4272,2.5026,2.4141,2.2842,2.1932,0.0,0.0,0.0,0.0,0.0,0.0,0.0,0.0,0.0,0.0,0.0,0.0,0.0,0.0,0.0,0.0,0.0,0.0,0.0,0.0,0.0,0.0,0.0,0.0,0.0,0.0,0.0,0.0,0.0,0.0,0.0,0.0,0.0,0.0,0.0,0.0,0.0,0.0,0.0,0.0,0.0,0.0,0.0,0.0,0.0,0.0,0.0,0.0,0.0,0.0,0.0,0.0,0.0,0.0,0.0,0.0,0.0,0.0,0.0,0.0,0.0,0.0,0.0,0.0,0.0,0.0,0.0,0.0,0.0,0.0,0.0,0.0,0.0,0.0,0.0,0.0,0.0,0.0,0.0,0.0,0.0,0.0,0.0,0.0,0.0,0.0,0.0,0.0,0.0,0.0,0.0,0.0,0.0,0.0,0.0,0.0,0.0,0.0,0.0,0.0,0.0,0.0,0.0,0.0,0.0,0.0,0.0,0.0,2.255,2.2724,2.5769,2.6858,2.5733,2.3875,2.2708,0.0,0.0,0.0,0.0,0.0,0.0,0.0,0.0,0.0,0.0,0.0,0.0,0.0,0.0,0.0,0.0,0.0,0.0,0.0,0.0,0.0,0.0,0.0,0.0,0.0,0.0,0.0,0.0,0.0,0.0,0.0,0.0,0.0,0.0,0.0,0.0,0.0,0.0,0.0,0.0,0.0,0.0,0.0,0.0,0.0,0.0,0.0,0.0,0.0,0.0,0.0,0.0,0.0,0.0,0.0,0.0,0.0,0.0,0.0,0.0,0.0,0.0,0.0,0.0,0.0,0.0,0.0,0.0,0.0,0.0,0.0,0.0,0.0,0.0,0.0,0.0,0.0,0.0,0.0,0.0,0.0,0.0,0.0,0.0,0.0,0.0,0.0,0.0,0.0,0.0,0.0,0.0,0.0,0.0,0.0,0.0,0.0,0.0,0.0,0.0,0.0,0.0,0.0,0.0,0.0,0.0,0.0,0.0,2.2282,2.3403,2.5507,2.6778,2.707,2.5664,2.4357,0.0,0.0,0.0,0.0,0.0,0.0,0.0,0.0,0.0,0.0,0.0,0.0,0.0,0.0,0.0,0.0,0.0,0.0,0.0,0.0,0.0,0.0,0.0,0.0,0.0,0.0,0.0,0.0,0.0,0.0,0.0,0.0,0.0,0.0,0.0,0.0,0.0,0.0,0.0,0.0,0.0,0.0,0.0,0.0,0.0,0.0,0.0,0.0,2.0822,0.0,0.0,0.0,0.0,0.0,0.0,0.0,0.0,0.0,0.0,0.0,0.0,0.0,0.0,0.0,0.0,0.0,0.0,0.0,0.0,0.0,0.0,0.0,0.0,0.0,0.0,0.0,0.0,0.0,0.0,0.0,0.0,0.0,0.0,0.0,0.0,0.0,0.0,0.0,0.0,0.0,0.0,0.0,0.0,0.0,0.0,0.0,0.0,0.0,0.0,0.0,0.0,0.0,0.0,0.0,0.0,0.0,0.0,0.0,2.2397,2.3163,2.5605,2.6945,2.6985,2.6208,2.5214,0.0,0.0,0.0,0.0,0.0,0.0,0.0,0.0,0.0,0.0,0.0,0.0,0.0,0.0,0.0,0.0,0.0,0.0,0.0,0.0,0.0,0.0,0.0,0.0,0.0,0.0,0.0,0.0,0.0,0.0,0.0,0.0,0.0,0.0,0.0,0.0,0.0,0.0,0.0,0.0,0.0,0.0,0.0,0.0,0.0,0.0,0.0,0.0,0.0,0.0,0.0,0.0,0.0,0.0,0.0,0.0,0.0,0.0,0.0,0.0,0.0,0.0,0.0,0.0,0.0,0.0,0.0,0.0,0.0,0.0,0.0,0.0,0.0,0.0,0.0,0.0,0.0,0.0,0.0,0.0,0.0,0.0,0.0,0.0,0.0,0.0,0.0,0.0,0.0,0.0,0.0,0.0,0.0,0.0,0.0,0.0,0.0,0.0,0.0,0.0,0.0,0.0,0.0,0.0,0.0,0.0,0.0,2.1056,2.2589,2.2963,2.5797,2.7105,2.6669,2.6385,2.5689,2.454,0.0,0.0,0.0,0.0,0.0,0.0,0.0,0.0,0.0,0.0,0.0,0.0,0.0,0.0,0.0,0.0,0.0,0.0,0.0,0.0,0.0,0.0,0.0,0.0,0.0,0.0,0.0,0.0,0.0,0.0,0.0,0.0,0.0,0.0,0.0,0.0,0.0,0.0,2.0295,2.122,0.0,0.0,0.0,0.0,0.0,0.0,0.0,0.0,2.2336,0.0,0.0,0.0,0.0,0.0,0.0,0.0,0.0,0.0,0.0,0.0,0.0,0.0,0.0,0.0,0.0,0.0,0.0,0.0,0.0,0.0,0.0,0.0,0.0,0.0,0.0,0.0,0.0,0.0,0.0,0.0,0.0,0.0,0.0,0.0,0.0,0.0,0.0,0.0,0.0,0.0,0.0,0.0,0.0,0.0,0.0,0.0,0.0,0.0,0.0,0.0,0.0,0.0,0.0,0.0,0.0,1.9126,2.0803,2.2459,2.4091,2.5726,2.6821,2.7315,2.7027,2.6112,2.454,0.0,0.0,0.0,0.0,0.0,0.0,0.0,0.0,0.0,0.0,0.0,0.0,0.0,0.0,0.0,0.0,0.0,0.0,0.0,0.0,0.0,0.0,0.0,0.0,0.0,0.0,0.0,0.0,0.0,0.0,0.0,0.0,0.0,0.0,0.0,0.0,0.0,0.0,0.0,2.1622,2.1986,0.0,0.0,0.0,0.0,0.0,0.0,0.0,0.0,2.3383,0.0,0.0,0.0,0.0,0.0,0.0,0.0,0.0,0.0,0.0,0.0,0.0,0.0,0.0,0.0,0.0,0.0,0.0,0.0,0.0,0.0,0.0,0.0,0.0,0.0,0.0,0.0,0.0,0.0,0.0,0.0,0.0,0.0,0.0,0.0,0.0,0.0,0.0,0.0,0.0,0.0,0.0,0.0,0.0,0.0,0.0,0.0,0.0,0.0,0.0,0.0,0.0,0.0,0.0,0.0,2.0118,2.1785,2.3433,2.5049,2.6356,2.7183,2.7501,2.6549,2.5544,0.0,0.0,0.0,0.0,0.0,0.0,0.0,0.0,0.0,0.0,0.0,0.0,0.0,0.0,0.0,0.0,0.0,0.0,0.0,0.0,0.0,0.0,0.0,0.0,0.0,0.0,0.0,0.0,0.0,0.0,0.0,0.0,0.0,0.0,0.0,0.0,0.0,0.0,0.0,0.0,2.2049,2.2539,2.3154,0.0,0.0,0.0,0.0,0.0,0.0,2.426,2.4297,0.0,0.0,0.0,0.0,0.0,0.0,0.0,0.0,0.0,0.0,0.0,0.0,0.0,0.0,0.0,0.0,0.0,0.0,0.0,0.0,0.0,0.0,0.0,0.0,0.0,0.0,0.0,0.0,0.0,0.0,0.0,0.0,0.0,0.0,0.0,0.0,0.0,0.0,0.0,0.0,0.0,0.0,0.0,0.0,0.0,0.0,0.0,0.0,0.0,0.0,0.0,0.0,0.0,0.0,0.0,2.0841,2.2639,2.4224,2.558,2.6727,2.7421,2.7535,2.5899,2.482,0.0,0.0,0.0,0.0,0.0,0.0,0.0,0.0,0.0,0.0,0.0,0.0,0.0,0.0,0.0,0.0,0.0,0.0,0.0,0.0,0.0,0.0,0.0,0.0,0.0,0.0,0.0,0.0,0.0,0.0,0.0,0.0,0.0,0.0,0.0,0.0,0.0,0.0,0.0,0.0,0.0,2.3161,2.3982,2.4098,0.0,0.0,0.0,0.0,2.4919,2.5026,0.0,0.0,0.0,0.0,0.0,0.0,0.0,0.0,0.0,0.0,0.0,0.0,0.0,0.0,0.0,0.0,0.0,0.0,0.0,0.0,0.0,0.0,0.0,0.0,0.0,0.0,0.0,0.0,0.0,0.0,0.0,0.0,0.0,0.0,0.0,0.0,0.0,0.0,0.0,0.0,0.0,0.0,0.0,0.0,0.0,0.0,0.0,0.0,0.0,0.0,0.0,0.0,0.0,0.0,0.0,0.0,2.0724,2.2322,2.3848,2.5213,2.6001,2.675,2.7467,2.5614,2.4564,0.0,0.0,0.0,0.0,0.0,0.0,0.0,0.0,0.0,0.0,0.0,0.0,0.0,0.0,0.0,0.0,0.0,0.0,0.0,0.0,0.0,0.0,0.0,0.0,0.0,0.0,0.0,0.0,0.0,0.0,0.0,0.0,0.0,0.0,0.0,0.0,0.0,0.0,0.0,0.0,0.0,2.3504,2.4049,2.4098,2.4194,0.0,0.0,2.4588,2.4931,2.509,0.0,0.0,0.0,0.0,0.0,0.0,0.0,0.0,0.0,0.0,0.0,0.0,0.0,0.0,0.0,0.0,0.0,0.0,0.0,0.0,0.0,0.0,0.0,0.0,0.0,0.0,0.0,0.0,0.0,0.0,0.0,0.0,0.0,0.0,0.0,0.0,0.0,0.0,0.0,0.0,0.0,0.0,0.0,0.0,0.0,0.0,0.0,0.0,0.0,0.0,0.0,0.0,0.0,0.0,0.0,1.9787,2.1756,2.3555,2.5123,2.6496,2.7554,2.8125,2.8113,2.6466,2.5231,0.0,0.0,0.0,0.0,0.0,0.0,0.0,0.0,0.0,0.0,0.0,0.0,0.0,0.0,0.0,0.0,0.0,0.0,0.0,0.0,0.0,0.0,0.0,0.0,0.0,0.0,0.0,0.0,0.0,0.0,0.0,0.0,0.0,0.0,0.0,0.0,0.0,0.0,0.0,0.0,0.0,0.0,2.5649,2.6079,0.0,0.0,0.0,2.6669,2.7198,0.0,0.0,0.0,0.0,0.0,0.0,0.0,0.0,0.0,0.0,0.0,0.0,0.0,0.0,0.0,0.0,0.0,0.0,0.0,0.0,0.0,0.0,0.0,0.0,0.0,0.0,0.0,0.0,0.0,0.0,0.0,0.0,0.0,0.0,0.0,0.0,0.0,0.0,0.0,0.0,0.0,0.0,0.0,0.0,0.0,0.0,0.0,0.0,0.0,0.0,0.0,0.0,0.0,0.0,0.0,0.0,0.0,2.2505,2.4581,2.6315,2.764,2.8889,2.9374,2.9044,2.7416,0.0,0.0,0.0,0.0,0.0,0.0,0.0,0.0,0.0,0.0,0.0,0.0,0.0,0.0,0.0,0.0,0.0,0.0,0.0,0.0,0.0,0.0,0.0,0.0,0.0,0.0,0.0,1.8349,0.0,0.0,0.0,0.0,0.0,0.0,0.0,0.0,0.0,0.0,0.0,0.0,0.0,0.0,2.613,2.7112,2.7702,2.8226,0.0,0.0,2.8226,2.8901,2.8456,2.7879,0.0,0.0,0.0,0.0,0.0,0.0,0.0,0.0,0.0,0.0,0.0,0.0,0.0,0.0,0.0,0.0,0.0,0.0,0.0,0.0,0.0,0.0,0.0,0.0,0.0,0.0,0.0,0.0,0.0,0.0,0.0,0.0,0.0,0.0,0.0,0.0,0.0,0.0,0.0,0.0,0.0,0.0,0.0,0.0,0.0,0.0,0.0,0.0,0.0,0.0,0.0,0.0,0.0,0.0,0.0,2.2333,2.4792,2.6756,2.8105,2.8894,2.9652,3.0315,2.8163,2.6505,0.0,0.0,0.0,0.0,0.0,0.0,0.0,0.0,0.0,0.0,0.0,0.0,0.0,0.0,0.0,0.0,0.0,0.0,0.0,0.0,0.0,0.0,0.0,0.0,0.0,0.0,0.0,0.0,0.0,0.0,0.0,0.0,0.0,0.0,0.0,0.0,0.0,0.0,0.0,0.0,0.0,2.6667,2.7771,2.7977,2.8243,0.0,0.0,2.8226,2.8918,2.8332,2.786,2.7998,0.0,0.0,0.0,0.0,0.0,0.0,0.0,0.0,0.0,0.0,0.0,0.0,0.0,0.0,0.0,0.0,0.0,0.0,0.0,0.0,0.0,0.0,0.0,0.0,0.0,0.0,0.0,0.0,0.0,0.0,0.0,0.0,0.0,0.0,0.0,0.0,0.0,0.0,0.0,0.0,0.0,0.0,0.0,0.0,0.0,0.0,0.0,0.0,0.0,0.0,0.0,0.0,0.0,2.1081,2.2309,2.5305,2.7289,2.8199,2.9796,3.0612,3.0479,2.899,2.7511,0.0,0.0,0.0,0.0,0.0,0.0,0.0,0.0,0.0,0.0,0.0,0.0,0.0,0.0,0.0,0.0,0.0,0.0,0.0,0.0,0.0,0.0,0.0,0.0,0.0,0.0,0.0,0.0,2.0905,2.1467,2.1939,0.0,0.0,0.0,0.0,0.0,0.0,0.0,0.0,0.0,0.0,2.7462,2.8811,2.9383,0.0,0.0,2.9978,2.9656,2.9679,2.9025,2.8436,2.8152,2.6598,0.0,0.0,0.0,0.0,0.0,0.0,0.0,0.0,0.0,0.0,0.0,0.0,0.0,0.0,0.0,0.0,0.0,0.0,0.0,0.0,0.0,0.0,0.0,0.0,0.0,0.0,0.0,0.0,0.0,0.0,0.0,0.0,0.0,0.0,0.0,0.0,0.0,0.0,0.0,0.0,0.0,0.0,0.0,0.0,0.0,0.0,0.0,0.0,0.0,0.0,0.0,0.0,2.1303,2.2518,2.5684,2.7658,2.8446,3.044,3.1271,3.0793,2.9885,2.8594,0.0,0.0,0.0,0.0,0.0,0.0,0.0,0.0,0.0,0.0,0.0,0.0,0.0,0.0,0.0,0.0,0.0,0.0,0.0,0.0,0.0,0.0,0.0,0.0,0.0,0.0,0.0,0.0,2.1722,2.2308,2.2354,0.0,0.0,0.0,0.0,0.0,0.0,0.0,0.0,0.0,0.0,2.8149,2.9354,2.9918,3.0301,3.056,3.0098,2.9698,2.9532,2.8942,2.8378,2.7962,0.0,0.0,0.0,0.0,0.0,0.0,0.0,0.0,0.0,0.0,0.0,0.0,0.0,0.0,0.0,0.0,0.0,0.0,0.0,0.0,0.0,0.0,0.0,0.0,0.0,0.0,0.0,0.0,0.0,0.0,1.7328,0.0,0.0,0.0,0.0,0.0,0.0,0.0,0.0,0.0,0.0,0.0,0.0,0.0,0.0,0.0,0.0,0.0,0.0,0.0,0.0,0.0,0.0,2.1539,2.307,2.5827,2.7836,2.8951,3.0599,3.1452,3.1451,3.0808,2.9657,2.7962,0.0,0.0,0.0,0.0,0.0,0.0,0.0,0.0,0.0,0.0,0.0,0.0,0.0,0.0,0.0,0.0,0.0,0.0,0.0,0.0,0.0,0.0,0.0,0.0,0.0,0.0,2.1075,2.1923,2.236,0.0,0.0,0.0,0.0,0.0,0.0,0.0,0.0,0.0,0.0,2.735,2.8596,2.9182,2.92,2.9157,2.9157,2.8331,2.779,2.8139,2.7777,2.7429,0.0,0.0,0.0,0.0,0.0,0.0,0.0,0.0,0.0,0.0,0.0,0.0,0.0,0.0,0.0,0.0,0.0,0.0,0.0,0.0,0.0,0.0,0.0,0.0,0.0,0.0,0.0,1.8353,1.8693,0.0,0.0,0.0,0.0,0.0,0.0,0.0,0.0,0.0,0.0,0.0,2.0521,2.0902,0.0,0.0,0.0,0.0,0.0,0.0,0.0,0.0,0.0,0.0,0.0,0.0,2.1547,2.3125,2.534,2.7315,2.8961,3.0117,3.0955,3.1467,3.0866,2.9506,2.7401,0.0,0.0,0.0,0.0,0.0,0.0,0.0,0.0,0.0,0.0,0.0,0.0,0.0,0.0,0.0,0.0,0.0,0.0,0.0,0.0,0.0,0.0,0.0,0.0,0.0,2.112,0.0,0.0,0.0,0.0,0.0,0.0,0.0,0.0,0.0,0.0,0.0,2.5276,2.6212,2.6791,2.7411,2.8115,2.8204,2.8301,0.0,0.0,0.0,0.0,0.0,0.0,0.0,0.0,0.0,0.0,0.0,0.0,0.0,0.0,2.7053,2.6007,2.5805,2.5703,2.5446,0.0,0.0,0.0,0.0,0.0,0.0,0.0,0.0,0.0,0.0,0.0,0.0,0.0,0.0,1.9535,0.0,1.9404,0.0,0.0,0.0,0.0,0.0,0.0,0.0,0.0,2.1357,2.1937,2.2049,2.244,2.2639,0.0,2.2639,2.1569,0.0,0.0,0.0,0.0,0.0,0.0,0.0,0.0,2.2056,2.3427,2.5361,2.7234,2.8947,2.9844,3.0688,3.1467,3.0866,2.9784,2.8249,2.7161,2.5733,0.0,0.0,0.0,0.0,0.0,0.0,0.0,0.0,0.0,0.0,0.0,0.0,0.0,0.0,0.0,0.0,0.0,0.0,0.0,0.0,0.0,0.0,0.0,2.2044,0.0,0.0,0.0,0.0,0.0,0.0,0.0,0.0,0.0,2.4275,2.5053,2.5759,2.6123,2.6569,2.6942,2.7179,0.0,0.0,0.0,0.0,0.0,0.0,0.0,2.7191,2.6975,2.7653,2.8181,2.81,2.8947,2.9779,3.0071,0.0,0.0,2.782,2.7438,2.7446,2.7427,2.7427,2.7446,2.7427,2.7069,2.6745,0.0,0.0,0.0,0.0,0.0,0.0,0.0,0.0,2.0976,2.0848,0.0,2.0904,0.0,0.0,0.0,0.0,0.0,2.1112,0.0,0.0,2.3853,2.4553,2.4115,2.414,2.4152,2.4128,2.4152,2.3688,2.2733,2.1685,0.0,0.0,0.0,0.0,0.0,0.0,2.301,2.4029,2.5869,2.756,2.8953,2.9825,3.0673,3.1497,3.0884,3.0524,3.0389,2.8352,2.7122,2.6949,2.5049,0.0,0.0,0.0,0.0,0.0,0.0,0.0,0.0,0.0,0.0,0.0,0.0,0.0,0.0,0.0,0.0,0.0,0.0,0.0,0.0,2.2702,0.0,0.0,0.0,0.0,0.0,0.0,0.0,0.0,0.0,0.0,2.479,2.58,2.6387,2.5704,0.0,0.0,0.0,0.0,2.6141,2.607,2.5496,2.5218,2.5548,2.6423,2.7149,2.7459,0.0,0.0,3.0266,3.1655,3.2672,3.2854,3.3262,3.2743,2.9843,2.9317,2.9225,2.9225,2.9262,2.9189,2.917,2.9347,2.9366,1.8513,0.0,0.0,0.0,0.0,1.9421,2.064,2.2266,2.2647,2.2834,2.2927,2.2737,0.0,0.0,0.0,0.0,0.0,0.0,2.295,2.4023,2.4997,2.5765,2.6357,2.6744,2.693,2.693,2.693,2.6574,2.5958,2.5264,2.3705,2.1323,0.0,0.0,0.0,0.0,2.3182,2.4525,2.5509,2.6848,2.8612,2.9592,3.079,3.2169,3.144,3.0822,3.0509,3.0321,2.9218,2.7107,2.6436,0.0,0.0,0.0,0.0,0.0,0.0,0.0,0.0,0.0,0.0,0.0,0.0,0.0,0.0,0.0,0.0,0.0,0.0,0.0,2.3409,2.3759,2.3932,0.0,0.0,0.0,0.0,0.0,0.0,0.0,0.0,0.0,2.6031,2.6752,2.6896,0.0,0.0,2.5788,2.4798,2.5053,2.5601,2.6326,2.6518,0.0,2.784,2.8027,2.8344,2.9196,3.0475,3.1737,3.2808,3.3649,3.4284,3.4654,3.5163,3.5196,3.4399,3.322,3.2485,3.243,3.243,3.243,3.243,3.2469,3.247,2.043,1.9383,1.8753,1.9284,2.0529,2.1018,2.2389,2.4369,2.4808,2.5005,2.4969,2.4677,2.407,2.3169,2.266,0.0,0.0,0.0,2.4575,2.5877,2.642,2.6996,2.762,2.7946,2.8109,2.8109,2.8109,2.7934,2.7643,2.7304,2.5949,2.3659,0.0,0.0,2.3283,2.3592,2.43,2.5448,2.5988,2.7114,2.8815,2.976,3.0926,3.2263,3.183,3.146,3.1287,3.1421,3.0544,2.8483,2.7983,2.6974,0.0,0.0,0.0,0.0,0.0,0.0,0.0,0.0,0.0,0.0,0.0,2.0985,2.102,0.0,0.0,0.0,2.3978,2.4671,2.4897,2.4787,0.0,0.0,0.0,0.0,0.0,0.0,0.0,2.6155,2.6986,2.758,2.7744,2.8139,2.7809,2.6198,2.5989,2.5708,2.4842,0.0,2.5707,2.6735,2.728,2.804,2.9095,2.9612,3.0302,3.1641,3.2814,3.3935,3.4962,3.5563,3.5956,3.6273,3.6635,3.7033,3.7343,3.6717,3.5844,3.4981,3.478,3.4798,3.4798,3.4798,3.478,2.1914,2.1748,2.0156,2.0581,2.2246,2.2822,2.4425,2.6628,2.7118,2.7081,2.6637,2.6629,2.5807,2.4398,2.3888,0.0,2.5181,2.5683,2.6445,2.7431,2.7934,2.8197,2.8235,2.8235,2.8247,2.826,2.8235,2.8235,2.8235,2.8185,2.7657,2.6688,2.5611,2.5001,2.4951,2.5423,2.5963,2.6625,2.7115,2.8045,2.9434,3.0213,3.1116,3.2163,3.218,3.2319,3.2542,3.2034,3.1361,3.0612,2.9638,2.8504,2.7228,0.0,0.0,0.0,0.0,0.0,0.0,0.0,0.0,0.0,0.0,0.0,0.0,0.0,0.0,0.0,2.5315,0.0,2.6578,2.5936,0.0,0.0,0.0,2.4787,2.5733,2.6607,2.7401,2.8059,0.0,0.0,2.9681,2.9726,2.9056,2.723,2.6856,2.6585,2.6097,2.6105,2.6441,2.7395,2.811,2.8884,2.994,3.1257,3.2676,3.4124,3.5267,3.5977,3.6672,3.7225,3.7512,3.7546,3.785,3.829,3.9048,3.9442,3.9328,3.711,3.6652,3.6597,3.6633,3.656,3.6468,2.2178,2.1855,2.1445,2.2451,2.4299,2.4422,2.5728,2.7684,2.7846,2.7836,2.7714,2.7698,2.7524,2.7135,2.7011,2.7095,2.734,2.7465,2.79,2.8487,2.8637,2.8963,2.9377,2.9402,2.939,2.939,2.939,2.939,2.9377,2.895,2.8562,2.831,2.7657,2.6892,2.6147,2.6235,2.6776,2.7708,2.7846,2.8633,3.0089,3.0352,3.1219,3.2838,3.2908,3.3039,3.3274,3.3589,3.3006,3.1361,3.1021,3.0138,2.8521,2.7056,0.0,0.0,0.0,0.0,0.0,0.0,0.0,0.0,0.0,2.2895,2.3342,0.0,2.4663,0.0,2.6576,2.7568,2.7555,2.7833,0.0,0.0,2.7632,2.7631,2.8512,2.851,2.863,2.9149,2.9839,3.0283,3.0283,3.0718,3.0883,3.036,2.9056,2.7914,2.733,2.7635,2.8198,2.8929,2.9958,3.0962,3.1775,3.3445,3.4818,3.5261,3.6468,3.7415,3.7618,3.802,3.8347,3.8395,3.9069,3.9661,3.986,4.0428,4.0604,4.0047,3.9478,3.9038,3.9019,3.856,3.8138,2.2656,2.2451,2.2451,2.34,2.4897,2.4741,2.5828,2.7727,2.801,2.8411,2.8837,2.8599,2.8335,2.8109,2.8109,2.8247,2.8473,2.8473,2.8737,2.9302,2.9315,2.9478,2.9779,2.9779,2.9779,2.9779,2.9779,2.9779,2.9767,2.9465,2.9176,2.8888,2.8587,2.8172,2.7582,2.7354,2.7607,2.8448,2.8725,2.9264,3.0093,3.0561,3.1249,3.2242,3.2865,3.3121,3.2925,3.3454,3.3108,3.1728,3.1422,3.0718,2.945,2.8054,2.706,0.0,0.0,0.0,0.0,0.0,0.0,0.0,0.0,0.0,0.0,0.0,2.6138,2.6543,2.7817,2.8485,2.8212,2.8573,2.8861,2.8987,2.904,2.9445,3.0347,3.0489,3.0729,3.1271,3.1614,3.1839,3.1839,3.2168,3.2407,3.2363,3.1465,3.0432,2.9564,2.9684,3.0135,3.0788,3.1705,3.2879,3.4079,3.5613,3.6732,3.7087,3.7821,3.8497,3.8802,3.8812,3.8774,3.8803,3.918,3.962,3.9962,4.0688,4.1303,4.1647,4.1363,4.0857,4.0506,4.0084,3.9772,2.3101,2.3101,2.3101,2.3671,2.4554,2.4211,2.5326,2.7442,2.8064,2.8846,2.9754,2.9252,2.8762,2.8323,2.8323,2.8586,2.9001,2.8988,2.9302,2.9779,2.9779,2.9779,2.9779,2.9779,2.9779,2.9779,2.9779,2.9779,2.9779,2.9779,2.9528,2.9026,2.8988,2.9001,2.8976,2.8561,2.8561,2.9001,2.9541,2.9779,2.983,3.0771,3.1291,3.1328,3.2563,3.303,3.2446,3.2752,3.2616,3.197,3.1504,3.0908,3.0242,2.9219,2.8358,0.0,2.6267,0.0,0.0,0.0,0.0,0.0,0.0,0.0,0.0,2.7286,2.7905,2.8469,2.9024,2.9281,2.9029,2.9201,2.9415,2.9642,3.02,3.0863,3.1661,3.2273,3.2856,3.344,3.3559,3.3619,3.3574,3.3679,3.3754,3.3739,3.3679,3.3185,3.2243,3.1854,3.1913,3.2572,3.329,3.4444,3.6244,3.7425,3.8193,3.8785,3.9022,3.9385,3.9926,3.9554,3.9165,3.9146,3.9135,3.9262,3.9829,4.0787,4.1695,4.246,4.2377,4.2021,4.1427,4.1077,4.1113,2.3101,2.3101,2.3101,2.3212,2.342,2.3341,2.5071,2.8032,2.9018,2.9624,2.9779,2.9679,2.9566,2.9478,2.9478,2.9528,2.9628,2.9628,2.9691,2.9779,2.9779,2.9779,2.9779,2.9779,2.9779,2.9779,2.9779,2.9779,2.9779,2.9779,2.9741,2.9628,2.9628,2.9628,2.9616,0.0,0.0,0.0,2.9729,2.9779,2.9818,3.1046,3.1673,3.1723,3.3017,0.0,3.3508,3.3577,3.3325,3.2658,3.2502,0.0,0.0,0.0,0.0,0.0,0.0,0.0,0.0,0.0,0.0,0.0,2.9059,2.8483,2.8151,2.8335,2.8781,2.9521,3.0293,3.0998,3.1693,3.2258,3.2631,3.2661,3.2796,3.2915,3.3125,3.3245,3.3365,3.3484,3.3963,3.4324,3.4354,3.4771,3.5085,3.504,3.5115,3.504,3.4726,3.3754,3.32,3.3396,3.4432,3.5835,3.7409,3.8291,3.8836,3.9039,3.9529,3.991,4.0045,4.0011,3.9876,3.9859,4.022,4.0447,4.066,4.1262,4.1869,4.256,4.2624,4.2523,4.2147,4.1554,4.1113,2.3101,0.0,2.3101,2.3101,0.0,2.3714,2.4914,2.6562,2.7666,2.8803,2.9779,2.9779,2.9779,2.9779,2.9779,2.9779,2.9779,2.9779,2.9779,2.9779,2.9779,2.9779,2.9779,2.9779,2.9779,2.9779,2.9779,2.9779,2.9779,2.9779,2.9779,2.9779,2.9779,2.9779,2.9779,2.9779,2.9779,2.9779,2.9779,2.9998,3.052,3.1623,3.2191,3.2227,3.3478,0.0,0.0,0.0,0.0,0.0,0.0,0.0,0.0,0.0,0.0,3.0911,3.0138,3.0066,3.0929,3.0742,3.095,3.1761,3.1587,3.0984,2.9871,3.0249,3.0895,3.1619,3.205,3.2482,3.2931,3.3305,3.3499,3.3514,3.3784,3.3993,3.4008,3.4277,3.4487,3.4502,3.4786,3.4981,3.4996,3.5265,3.5489,3.5489,3.5489,3.5489,3.5444,3.4936,3.4502,3.455,3.5772,3.6973,3.7754,3.8858,3.9529,3.9622,3.9859,4.0062,4.0113,4.0113,4.0113,4.0121,4.0336,4.0521,4.0528,4.0984,4.1446,4.1768,4.2041,4.2315,4.2432,4.2372,4.2286,2.3101,2.3101,2.3101,2.3101,2.3178,2.4135,2.4617,2.4925,0.0,0.0,0.0,2.9779,2.9779,2.9779,2.9779,2.9779,2.9779,2.9779,2.9779,2.9779,2.9779,2.9779,2.9779,2.9779,2.9779,2.9779,2.9779,2.9779,2.9779,2.9779,2.9779,2.9779,2.9779,2.9779,2.9779,2.9779,2.9779,2.9779,2.9779,3.0177,3.0945,3.1938,3.2464,3.2464,3.3754,3.409,3.3367,3.361,3.3831,3.3782,3.333,3.3035,3.3035,3.2579,3.2281,3.2234,3.1804,3.1992,3.2998,3.2648,3.2729,3.3588,3.3679,3.3064,3.1619,3.2214,3.2961,3.3604,3.3664,3.3709,3.3829,3.3858,3.3858,3.3858,3.4337,3.4683,3.4713,3.513,3.5429,3.5489,3.5444,3.5489,3.5459,3.5474,3.5489,3.5489,3.5489,3.5489,3.5489,3.5444,3.5516,3.5948,3.6943,3.7828,3.8358,3.9186,4.0045,4.0045,4.0079,4.0113,4.0113,4.0113,4.0113,4.0113,4.0113,4.0121,4.0146,4.0473,4.0797,4.0897,4.1413,4.2044,4.2618,4.3173,4.3488,2.3101,2.3101,2.3101,2.3101,2.3091,2.3256,2.3887,2.4957,2.6982,2.8609,2.9779,2.9779,2.9779,2.9779,2.9779,2.9779,2.9779,2.9779,2.9779,2.9779,2.9779,2.9779,2.9779,2.9779,2.9779,2.9779,2.9779,2.9779,2.9779,2.9779,2.9779,2.9779,2.9779,2.9779,2.9779,2.9779,2.9779,2.9779,2.9779,2.9856,2.9998,3.1257,3.1928,3.1965,3.3213,3.3865,3.3728,3.3782,3.3831,3.3796,3.3696,3.3662,3.3587,3.3503,3.3404,3.3283,3.3225,3.348,3.4183,3.4185,3.4201,3.4322,3.4369,3.4023,3.3274,3.3274,3.3634,3.4294,3.4369,3.4623,3.5115,3.516,3.513,3.5175,3.5295,3.5355,3.531,3.5415,3.5489,3.5489,3.5489,3.5489,3.5489,3.5489,3.5489,3.5489,3.5564,3.5534,3.5564,3.5489,3.6085,3.7131,3.7648,3.8362,3.9335,3.9893,4.0231,4.0113,4.0197,4.0282,4.0299,4.0299,4.0282,4.0163,4.0265,4.0231,4.0214,4.0146,4.0554,4.094,4.1591,4.2213,4.2776,4.3422,4.3811,2.3101,2.3101,2.3101,2.3101,2.3101,2.3101,2.3757,2.4914,2.6543,2.7867,2.8897,2.9521,2.9779,2.9779,2.9779,2.9779,2.9779,2.9779,2.9779,2.9779,2.9779,2.9779,2.9779,2.9779,2.9779,2.9779,2.9779,2.9779,2.9779,2.9779,2.9779,2.9779,2.9779,2.9779,2.9779,2.9779,2.9779,2.9779,2.9779,3.0279,3.1267,3.1415,3.2205,3.3728,3.3905,3.4206,3.4721,3.4706,3.4721,3.4721,3.4721,3.4688,3.4685,3.4656,3.4634,3.4575,3.4592,3.4711,3.5026,3.5026,3.504,3.5026,3.5026,3.4921,3.4622,3.4247,3.4307,3.4951,3.5026,3.5145,3.5474,3.5489,3.5489,3.5489,3.5489,3.5489,3.5489,3.5489,3.5489,3.5489,3.5489,3.5489,3.5489,3.5489,3.5489,3.5519,3.5774,3.6028,3.6058,3.6327,3.6635,3.7122,3.783,3.8812,3.992,4.0836,4.1195,4.1297,4.1297,4.1297,4.1297,4.1255,4.128,4.1297,4.128,4.1297,4.128,4.1297,4.141,4.1563,4.1902,4.241,4.2956,4.3558,4.4013,2.3101,2.3101,2.3101,2.3101,2.3101,2.3101,2.3594,2.4542,2.588,2.6964,2.7855,2.9157,2.9779,2.9779,2.9779,2.9779,2.9779,2.9779,2.9779,2.9779,2.9779,2.9779,2.9779,2.9779,2.9779,2.9779,2.9779,2.9779,2.9779,2.9779,2.9854,2.998,3.0093,3.0093,2.9993,2.998,2.9917,2.9792,2.9779,3.0482,3.1901,3.1462,3.2299,3.4274,3.3973,3.4158,3.5052,3.518,3.5279,3.5472,3.5489,3.5489,3.5489,3.5489,3.5489,3.5489,3.5489,3.5489,3.5489,3.5489,3.5489,3.5489,3.5489,3.5489,3.5459,3.5026,3.4921,3.54,3.5459,3.5489,3.5489,3.5489,3.5489,3.5489,3.5489,3.5489,3.5489,3.5489,3.5489,3.5489,3.5489,3.5489,3.5519,3.5639,3.5818,3.6043,3.6387,3.6671,3.6746,3.7135,3.7201,3.7402,3.8254,3.9525,4.042,4.1466,4.2141,4.2303,4.2236,4.2151,4.2168,4.2236,4.2269,4.2168,4.2219,4.2168,4.2252,4.2236,4.2211,4.2213,4.24,4.2804,4.3434,4.3856,4.4283,2.3101,2.3101,2.3101,2.3101,2.3101,2.3101,2.3178,2.3551,2.5557,2.6513,2.6894,2.8882,2.9779,2.9779,2.9779,2.9779,2.9779,2.9779,2.9779,2.9779,2.9779,2.9779,2.9817,2.9804,2.9792,2.9829,2.9842,2.988,2.988,2.9854,3.0055,3.0545,3.1009,3.0984,3.0595,3.0532,3.0306,2.9804,2.9779,2.9895,3.0075,3.0796,3.1328,3.1573,3.2357,3.3171,3.4143,3.4129,3.4576,3.5392,3.5489,3.5489,3.5489,3.5489,3.5489,3.5489,3.5489,3.5489,3.5489,3.5489,3.5489,3.5489,3.5489,3.5489,3.5489,3.5429,3.5415,3.5489,3.5489,3.5489,3.5489,3.5489,3.5489,3.5489,3.5489,3.5489,3.5489,3.5489,3.5489,3.5489,3.5549,3.5504,3.5624,3.6043,3.6582,3.6985,3.7195,3.733,3.7345,3.7509,3.7877,3.8373,3.9251,4.0404,4.1627,4.2165,4.2506,4.2439,4.2337,4.2472,4.2557,4.2506,4.2337,4.2743,4.2489,4.254,4.2472,4.2303,4.2405,4.2675,4.3014,4.3532,4.4241,4.4473,4.4655,2.3101,2.3101,2.3101,2.3101,2.3101,2.3101,2.3101,2.3299,2.5526,2.6483,2.676,2.8831,2.9779,2.9779,2.9779,2.9779,2.9779,2.9779,2.9779,2.9779,2.9792,2.9967,3.0256,3.0281,3.0432,3.0721,3.0733,3.0733,3.0733,3.0733,3.0859,3.1072,3.1298,3.1273,3.1085,3.1072,3.0947,3.0733,3.0432,3.0281,3.027,3.0343,3.0908,3.1924,3.2429,3.3031,3.3945,3.4543,3.5067,3.5457,3.5489,3.5489,3.5489,3.5489,3.5489,3.5489,3.5489,3.5489,3.5489,3.5489,3.5489,3.5489,3.5489,3.5489,3.5489,3.5489,3.5489,3.5489,3.5489,3.5489,3.5504,3.5489,3.5489,3.5489,3.5489,3.5504,3.5489,3.5504,3.5489,3.5519,3.5848,3.6088,3.6163,3.6626,3.709,3.7449,3.7719,3.7988,3.7988,3.8317,3.8927,3.9702,4.0592,4.1344,4.2195,4.3132,4.3483,4.3623,4.3639,4.3667,4.3572,4.365,4.3684,4.3606,4.3565,4.3565,4.3752,4.3667,4.3667,4.3684,4.3752,4.4215,4.4547,4.4598,4.4755,2.3101,2.3101,2.3101,2.3101,2.3101,2.3101,2.3101,2.3343,2.5179,2.6016,2.6254,2.8371,2.9326,2.9365,2.9624,2.9779,2.9779,2.9779,2.988,2.9993,3.0018,3.0306,3.0796,3.0834,3.1022,3.1336,3.1361,3.1373,3.1411,3.1574,3.1612,3.1625,3.1775,3.1775,3.1625,3.1612,3.1537,3.1361,3.1009,3.0821,3.0798,3.0543,3.1003,3.2132,3.2464,3.3031,3.3959,3.4725,3.5213,3.5504,3.5489,3.5489,3.5489,3.5489,3.5489,3.5519,3.5684,3.5684,3.5519,3.5669,3.5699,3.5534,3.5489,3.5489,3.5489,3.5489,3.5489,3.5519,3.5669,3.5744,3.5504,3.5489,3.5489,3.5519,3.5624,3.5774,3.5774,3.5878,3.6088,3.6088,3.6492,3.6821,3.7015,3.7404,3.7764,3.8063,3.8392,3.8676,3.8706,3.9116,3.9657,4.0554,4.1413,4.2075,4.2512,4.3561,4.4463,4.4598,4.4479,4.4462,4.4598,4.4581,4.4564,4.4175,4.4479,4.4547,4.431,4.4429,4.453,4.4581,4.4581,4.4564,4.4598,4.4598,4.4759,2.3101,2.3101,2.3101,2.3101,2.3101,2.312,2.311,2.3227,2.4466,2.4946,2.5316,2.7325,2.8239,2.8367,2.9438,2.9804,2.9804,2.9854,3.0143,3.0557,3.057,3.0859,3.1336,3.1361,3.1386,3.1537,3.1549,3.1512,3.1499,3.1938,3.219,3.2202,3.2654,3.2679,3.2252,3.2177,3.1926,3.1549,3.1411,3.1361,3.1407,3.1668,3.1672,3.1569,3.2177,3.3101,3.3876,3.4061,3.4543,3.5472,3.5489,3.5489,3.5489,3.5489,3.5504,3.5594,3.6088,3.6163,3.5744,3.6133,3.6222,3.5684,3.5654,3.5549,3.5684,3.5684,3.5699,3.5549,3.6163,3.6207,3.5744,3.5729,3.5684,3.5684,3.6118,3.6402,3.648,3.6851,3.7255,3.724,3.7285,3.7614,3.8167,3.8302,3.8616,3.902,3.9305,3.932,3.9239,3.9379,3.9773,4.05,4.1379,4.2268,4.3073,4.3951,4.448,4.4598,4.4598,4.4598,4.4598,4.4598,4.4598,4.4598,4.4598,4.4598,4.4598,4.4598,4.4581,4.4598,4.4598,4.4598,4.4598,4.4598,4.4692,2.3101,2.3101,2.3101,2.3101,2.313,2.3393,2.3555,2.3663,2.5013,2.5646,2.603,2.8027,2.9053,2.9136,3.0288,3.0633,3.0369,3.0658,3.0934,3.1097,3.1122,3.1399,3.1876,3.1926,3.2127,3.247,3.2478,3.2466,3.2478,3.2679,3.2767,3.2792,3.2955,3.2955,3.2792,3.2767,3.2667,3.2466,3.2114,3.1926,3.1933,3.2317,3.2545,3.2667,3.3191,3.3656,3.3979,3.4624,3.5133,3.5504,3.5489,3.5489,3.5489,3.5489,3.5699,3.6088,3.639,3.6552,3.6716,3.6941,3.6985,3.6776,3.6716,3.6686,3.6731,3.6731,3.6731,3.6761,3.6896,3.6911,3.6806,3.6716,3.6716,3.6761,3.6926,3.709,3.7105,3.727,3.7404,3.7464,3.7749,3.8302,3.8811,3.905,3.9155,3.9328,3.9388,3.9388,3.9388,3.9388,3.9538,4.0025,4.1062,4.2093,4.2347,4.3722,4.457,4.4598,4.4598,4.4598,4.4598,4.4598,4.4598,4.4598,4.4598,4.4598,4.4598,4.4598,4.4598,4.4598,4.4598,4.4598,4.4598,4.4598,4.4598,2.3179,2.3296,2.3305,2.3428,2.3539,2.3857,2.3994,2.4114,2.5098,2.5538,2.5924,2.7623,2.8674,2.9265,3.0488,3.1133,3.1107,3.1323,3.1486,3.1637,3.1662,3.1951,3.2416,3.2478,3.2692,3.3074,3.3124,3.3124,3.3124,3.3124,3.3124,3.3124,3.3124,3.3124,3.3124,3.3124,3.3124,3.2993,3.2679,3.2491,3.2529,3.2885,3.3392,3.3973,3.4384,3.4582,3.452,3.5133,3.5609,3.5789,3.5818,3.5908,3.6088,3.6118,3.6327,3.6746,3.7,3.7165,3.7389,3.7614,3.7629,3.7419,3.7389,3.7404,3.7404,3.7404,3.7404,3.7434,3.7644,3.7719,3.7778,3.7913,3.7883,3.7569,3.7584,3.7719,3.7734,3.7928,3.8078,3.8182,3.8482,3.8931,3.9305,3.9358,3.9373,3.9388,3.9388,3.9388,3.9388,3.9388,3.9538,3.9864,4.1095,4.2029,4.2676,4.3827,4.4542,4.4598,4.4598,4.4598,4.4598,4.4598,4.4598,4.4598,4.4598,4.4598,4.4598,4.4598,4.4598,4.4598,4.4598,4.4598,4.4598,4.4598,4.4598,2.3354,2.373,2.3789,2.3994,2.4297,2.4385,2.4414,2.4434,2.4529,2.4746,2.4961,2.5881,2.728,2.8227,2.9914,3.1083,3.1951,3.1763,3.1813,3.219,3.2215,3.2491,3.298,3.3036,3.3036,3.3124,3.3124,3.3124,3.3124,3.3124,3.3124,3.3124,3.3124,3.3124,3.3124,3.3124,3.3124,3.3111,3.3061,3.3061,3.3134,3.3385,3.402,3.4983,3.5464,3.5613,3.5472,3.5559,3.5908,3.6357,3.6477,3.6776,3.7165,3.724,3.736,3.7479,3.7973,3.8003,3.7659,3.8093,3.8153,3.7778,3.7524,3.7644,3.7689,3.7629,3.7614,3.7719,3.8078,3.8407,3.8497,3.8886,3.8775,3.7778,3.8093,3.8377,3.8512,3.8975,3.9358,3.9254,3.9269,3.9358,3.9388,3.9388,3.9388,3.9388,3.9388,3.9388,3.9388,3.9388,3.9773,4.05,4.1379,4.2125,4.3061,4.396,4.431,4.4598,4.4598,4.4598,4.4598,4.4598,4.4598,4.4598,4.4598,4.4598,4.4598,4.4598,4.4598,4.4598,4.4598,4.4598,4.4598,4.4598,4.4598,2.3672,2.3818,2.4102,2.4297,2.4453,2.4736,2.4863,2.4912,2.5176,2.5274,2.5503,2.6562,2.7774,2.9004,3.0384,3.161,3.2749,3.2629,3.2641,3.2767,3.2805,3.288,3.3086,3.3124,3.3124,3.3124,3.3124,3.3124,3.3124,3.3124,3.3124,3.3124,3.3124,3.3124,3.3124,3.3124,3.3124,3.3124,3.3124,3.3124,3.3111,3.3233,3.3584,3.422,3.4994,3.5552,3.5805,3.6418,3.6701,3.6552,3.6881,3.721,3.7375,3.7404,3.7629,3.8033,3.8257,3.8586,3.8775,3.8931,3.899,3.8775,3.873,3.8796,3.8796,3.8715,3.8736,3.8751,3.899,3.9095,3.914,3.926,3.9149,3.8841,3.8975,3.9065,3.905,3.9275,3.9373,3.9388,3.9388,3.9388,3.9388,3.9388,3.9388,3.9388,3.9388,3.9388,3.9388,3.9388,3.9737,4.0569,4.1445,4.2284,4.3169,4.3931,4.4412,4.4598,4.4598,4.4598,4.4598,4.4598,4.4598,4.4598,4.4598,4.4598,4.4598,4.4598,4.4598,4.4598,4.4598,4.4598,4.4598,4.4598,4.4598,2.3975,2.4287,2.4541,2.4766,2.4875,2.5215,2.5322,2.5352,2.5567,2.5684,2.5868,2.6514,2.7861,2.9315,3.0226,3.15,3.2982,3.3124,3.3124,3.3124,3.3124,3.3124,3.3124,3.3124,3.3124,3.3124,3.3124,3.3124,3.3124,3.3124,3.3124,3.3124,3.3124,3.3124,3.3124,3.3124,3.3124,3.3124,3.3124,3.3124,3.3124,3.3124,3.3432,3.4107,3.5084,3.5791,3.6287,3.7447,3.7853,3.7434,3.7808,3.8138,3.8153,3.8182,3.8347,3.8646,3.8796,3.8975,3.9328,3.9328,3.9388,3.9388,3.9388,3.9373,3.9373,3.9388,3.9388,3.9388,3.9373,3.9388,3.9373,3.9388,3.9388,3.9388,3.9343,3.9388,3.9388,3.9388,3.9388,3.9388,3.9388,3.9388,3.9388,3.9388,3.9388,3.9388,3.9388,3.9388,3.9388,3.9388,3.9935,4.0569,4.1445,4.23,4.3169,4.3873,4.4497,4.4598,4.4598,4.4598,4.4598,4.4598,4.4598,4.4598,4.4598,4.4598,4.4598,4.4598,4.4598,4.4598,4.4598,4.4598,4.4598,4.4598,4.4598,2.4336,2.5086,2.5145,2.5332,2.5596,2.5645,2.5635,2.5664,2.5684,2.5684,2.5732,2.582,2.7067,2.8901,2.9453,3.0777,3.2655,3.3124,3.3124,3.3124,3.3124,3.3124,3.3124,3.3124,3.3124,3.3124,3.3187,3.3169,3.3219,3.335,3.3224,3.3307,3.3388,3.3212,3.3275,3.3187,3.3156,3.3136,3.3124,3.3124,3.3124,3.3124,3.3513,3.4446,3.5386,3.6128,3.6753,3.8223,3.9005,3.8601,3.8931,3.9179,3.9313,3.9358,3.929,3.9298,3.9394,3.9328,3.9388,3.9388,3.9388,3.9388,3.9388,3.9388,3.9388,3.9388,3.9388,3.9388,3.9388,3.9388,3.9388,3.9388,3.9388,3.9388,3.9388,3.9388,3.9388,3.9388,3.9388,3.9388,3.9388,3.9388,3.9388,3.9388,3.9388,3.9388,3.9388,3.9388,3.9388,3.9517,3.9829,4.0569,4.1445,4.23,4.3185,4.4006,4.457,4.4598,4.4598,4.4598,4.4598,4.4598,4.4598,4.4598,4.4598,4.4598,4.4598,4.4598,4.4598,4.4598,4.4598,4.4598,4.4598,4.4598,4.4598,2.491,2.5098,2.543,2.5635,2.5674,2.5684,2.5684,2.5684,2.5684,2.5684,2.5684,2.5684,2.6572,2.8085,2.905,3.0271,3.1645,3.2711,3.3124,3.3124,3.3124,3.3124,3.3124,3.3124,3.3136,3.3187,3.3514,3.3684,3.3721,3.4022,3.4223,3.4274,3.4198,3.4048,3.3746,3.3671,3.3445,3.3174,3.3124,3.3124,3.3124,3.3124,3.324,3.3556,3.4568,3.556,3.6445,3.8318,3.9328,3.92,3.9269,3.9388,3.9388,3.9388,3.9388,3.9388,3.9388,3.9388,3.9388,3.9388,3.9388,3.9388,3.9388,3.9388,3.9388,3.9388,3.9388,3.9388,3.9388,3.9388,3.9388,3.9388,3.9388,3.9388,3.9388,3.9388,3.9388,3.9388,3.9388,3.9388,3.9388,3.9388,3.9388,3.9388,3.9388,3.9388,3.9388,3.9388,3.9388,3.9445,3.9702,4.0569,4.1445,4.23,4.3169,4.4035,4.4542,4.457,4.4598,4.4598,4.4598,4.4598,4.4598,4.4598,4.4598,4.4598,4.4598,4.4598,4.4598,4.4598,4.4598,4.4598,4.4598,4.4598,4.4598,2.5176,2.5361,2.5577,2.5684,2.5684,2.5684,2.5684,2.5684,2.5684,2.5684,2.5684,2.5684,2.639,2.7683,2.8855,3.0033,3.1267,3.2513,3.3081,3.3124,3.3124,3.3124,3.3124,3.3124,3.3181,3.3445,3.3759,3.4022,3.4236,3.4575,3.4668,3.4643,3.468,3.455,3.4261,3.3985,3.3771,3.3445,3.3275,3.3124,3.3124,3.3124,3.3124,3.3428,3.4457,3.5828,3.6891,3.7686,3.8219,3.8657,3.9104,3.9388,3.9388,3.9388,3.9388,3.9388,3.9388,3.9388,3.9388,3.9388,3.9388,3.9388,3.9388,3.9388,3.9388,3.9388,3.9388,3.9388,3.9388,3.9388,3.9388,3.9388,3.9388,3.9388,3.9388,3.9388,3.9388,3.9388,3.9388,3.9388,3.9388,3.9388,3.9388,3.9388,3.9388,3.9388,3.9388,3.9388,3.9388,3.9445,3.9631,4.0466,4.1379,4.2269,4.3139,4.3977,4.4514,4.457,4.4598,4.4598,4.4598,4.4598,4.4598,4.4598,4.4598,4.4598,4.4598,4.4598,4.4598,4.4598,4.4598,4.4598,4.4598,4.4598,4.4598,2.5371,2.5684,2.5684,2.5684,2.5684,2.5684,2.5684,2.5684,2.5684,2.5684,2.5684,2.5684,2.6245,2.7447,2.8448,2.9806,3.0989,3.2096,3.284,3.3025,3.3136,3.3162,3.33,3.3269,3.3458,3.3834,3.3972,3.4399,3.4763,3.4901,3.4939,3.5064,3.5027,3.4843,3.4776,3.4387,3.4098,3.3909,3.3483,3.3282,3.3275,3.3199,3.3124,3.3356,3.4774,3.6041,3.6749,3.6982,3.6968,3.7587,3.8671,3.9156,3.9301,3.9388,3.9388,3.9388,3.9388,3.9388,3.9388,3.9388,3.9388,3.9388,3.9388,3.9388,3.9388,3.9388,3.9388,3.9388,3.9388,3.9388,3.9388,3.9388,3.9388,3.9388,3.9388,3.9388,3.9388,3.9388,3.9388,3.9388,3.9388,3.9388,3.9388,3.9388,3.9388,3.9388,3.9388,3.9388,3.9388,3.9424,3.9666,4.0185,4.1196,4.2237,4.3078,4.3948,4.431,4.4598,4.4598,4.4598,4.4598,4.4598,4.4598,4.4598,4.4598,4.4598,4.4598,4.4598,4.4598,4.4598,4.4598,4.4598,4.4598,4.4598,4.4598,2.5644,2.5684,2.5684,2.5684,2.5684,2.5684,2.5684,2.5684,2.5684,2.5684,2.5684,2.5684,2.5868,2.6255,2.7542,2.8645,2.9954,3.1223,3.2052,3.3081,3.3124,3.3345,3.3608,3.3696,3.3809,3.4135,3.4839,3.5182,3.537,3.5705,3.5994,3.6003,3.583,3.5793,3.5332,3.5119,3.4906,3.455,3.3997,3.3734,3.3621,3.3319,3.3162,3.3326,3.4387,3.5061,3.5655,3.6724,3.7137,3.6968,3.7572,3.8598,3.9104,3.9352,3.9388,3.9388,3.9388,3.9388,3.9388,3.9388,3.9388,3.9388,3.9388,3.9388,3.9388,3.9388,3.9388,3.9388,3.9388,3.9388,3.9388,3.9388,3.9388,3.9388,3.9388,3.9388,3.9388,3.9388,3.9388,3.9388,3.9388,3.9388,3.9388,3.9388,3.9388,3.9388,3.9388,3.9388,3.9388,3.9388,3.961,3.9955,4.0894,4.1901,4.2693,4.3621,4.4355,4.4598,4.4598,4.4598,4.4598,4.4598,4.4598,4.4598,4.4598,4.4598,4.4598,4.4598,4.4598,4.4598,4.4598,4.4598,4.4598,4.4598,4.4598,2.5684,2.5684,2.5684,2.5684,2.5684,2.5684,2.5684,2.5684,2.5684,2.5684,2.5684,2.5684,2.5684,2.582,2.703,2.8272,2.9647,3.1279,3.2469,3.3025,3.3149,3.3382,3.3897,3.4198,3.4399,3.4655,3.5169,3.5596,3.5956,3.6194,3.6355,3.6417,3.6417,3.6229,3.5906,3.5646,3.5332,3.5019,3.453,3.4286,3.4198,3.3759,3.3644,3.3649,3.4037,3.4304,3.5507,3.5882,3.6265,3.6501,3.7228,3.8032,3.8634,3.9156,3.9388,3.9388,3.9388,3.9388,3.9388,3.9388,3.9388,3.9388,3.9388,3.9388,3.9388,3.9388,3.9388,3.9388,3.9388,3.9388,3.9388,3.9388,3.9388,3.9388,3.9388,3.9388,3.9388,3.9388,3.9388,3.9388,3.9388,3.9388,3.9388,3.9388,3.9388,3.9388,3.9388,3.9388,3.9388,3.9388,3.9388,3.9809,4.0656,4.1528,4.2269,4.3229,4.4384,4.4598,4.4598,4.4598,4.4598,4.4598,4.4598,4.4598,4.4598,4.4598,4.4598,4.4598,4.4598,4.4598,4.4598,4.4598,4.4598,4.4598,4.4598,2.5684,2.5684,2.5684,2.5684,2.5684,2.5684,2.5684,2.5684,2.5684,2.5684,2.5684,2.5684,2.5684,2.5917,2.6706,2.7992,2.9681,3.1468,3.2612,3.3081,3.33,3.3608,3.411,3.4613,3.5115,3.5571,3.5671,3.5968,3.6267,3.6417,3.6417,3.6417,3.6417,3.6367,3.6219,3.5943,3.5658,3.5592,3.5082,3.4806,3.4705,3.4311,3.4239,3.4165,3.3709,3.4121,3.5156,3.5359,3.5238,3.6158,3.7214,3.7715,3.8069,3.876,3.9388,3.9388,3.9388,3.9388,3.9388,3.9388,3.9388,3.9388,3.9388,3.9388,3.9388,3.9388,3.9388,3.9388,3.9388,3.9388,3.9388,3.9388,3.9388,3.9388,3.9388,3.9388,3.9388,3.9388,3.9388,3.9388,3.9388,3.9388,3.9388,3.9388,3.9388,3.9388,3.9388,3.9388,3.9388,3.9388,3.9388,3.961,4.0432,4.1674,4.252,4.335,4.444,4.4598,4.4598,4.4598,4.4598,4.4598,4.4598,4.4598,4.4598,4.4598,4.4598,4.4598,4.4598,4.4598,4.4598,4.4598,4.4598,4.4598,4.4598,2.5684,2.5684,2.5684,2.5684,2.5684,2.5684,2.5684,2.5684,2.5684,2.5684,2.5684,2.5684,2.5684,2.5781,2.582,2.7247,2.9361,3.1045,3.2196,3.3014,3.3432,3.3922,3.4512,3.4906,3.5579,3.6094,3.6182,3.6292,3.6367,3.6417,3.6417,3.6417,3.6417,3.6417,3.6392,3.6304,3.6144,3.6056,3.5655,3.5382,3.5245,3.4876,3.4363,3.4175,3.3518,3.3904,3.4677,3.4897,3.517,3.6172,3.7214,3.7715,3.8032,3.8833,3.9352,3.9388,3.9388,3.9388,3.9388,3.9388,3.9388,3.9388,3.9388,3.9388,3.9388,3.9388,3.9388,3.9388,3.9388,3.9388,3.9388,3.9388,3.9388,3.9388,3.9388,3.9388,3.9388,3.9388,3.9388,3.9388,3.9388,3.9388,3.9388,3.9388,3.9388,3.9388,3.9388,3.9388,3.9388,3.9388,3.9388,3.9737,4.017,4.1576,4.2878,4.3739,4.4598,4.4598,4.4598,4.4598,4.4598,4.4598,4.4598,4.4598,4.4598,4.4598,4.4598,4.4598,4.4598,4.4598,4.4598,4.4598,4.4598,4.4598,4.4598,2.5684,2.5684,2.5684,2.5684,2.5684,2.5684,2.5684,2.5684,2.5684,2.5684,2.5684,2.5684,2.5684,2.5684,2.5684,2.7067,2.9177,3.0676,3.1877,3.2971,3.3382,3.396,3.458,3.4981,3.5629,3.6179,3.6405,3.6417,3.6417,3.6417,3.6417,3.6417,3.6417,3.6417,3.6417,3.6405,3.6417,3.6329,3.6094,3.5956,3.5906,3.5416,3.4731,3.4035,3.3746,3.3947,3.4496,3.4718,3.517,3.6172,3.7228,3.7677,3.8121,3.8708,3.9388,3.9388,3.9388,3.9388,3.9388,3.9388,3.9388,3.9388,3.9388,3.9388,3.9388,3.9388,3.9388,3.9388,3.9388,3.9388,3.9388,3.9388,3.9388,3.9388,3.9388,3.9388,3.9388,3.9388,3.9388,3.9388,3.9388,3.9388,3.9388,3.9388,3.9388,3.9388,3.9388,3.9388,3.9388,3.9388,3.9424,3.9935,4.0432,4.1576,4.2909,4.3873,4.457,4.4598,4.4598,4.4598,4.4598,4.4598,4.4598,4.4598,4.4598,4.4598,4.4598,4.4598,4.4598,4.4598,4.4598,4.4598,4.4598,4.4598,4.4598,2.5684,2.5684,2.5684,2.5684,2.5684,2.5684,2.5684,2.5684,2.5684,2.5684,2.5684,2.5684,2.5684,2.5684,2.5965,2.6924,2.9085,3.0214,3.1412,3.2519,3.3195,3.3809,3.4349,3.4868,3.5378,3.5994,3.638,3.6405,3.6417,3.6417,3.6417,3.6417,3.6417,3.6417,3.6417,3.6417,3.6417,3.6417,3.6417,3.6417,3.6292,3.5805,3.5132,3.4261,3.4035,3.4081,3.4435,3.4298,3.502,3.5974,3.693,3.7625,3.8182,3.8943,3.9388,3.9388,3.9388,3.9388,3.9388,3.9388,3.9388,3.9388,3.9388,3.9388,3.9388,3.9388,3.9388,3.9388,3.9388,3.9388,3.9388,3.9388,3.9388,3.9388,3.9388,3.9388,3.9388,3.9388,3.9388,3.9388,3.9388,3.9388,3.9388,3.9388,3.9388,3.9388,3.9388,3.9388,3.9388,3.9388,3.9553,4.013,4.0792,4.1739,4.2831,4.3873,4.4412,4.4598,4.4598,4.4598,4.4598,4.4598,4.4632,4.4699,4.4598,4.4598,4.4598,4.4615,4.4598,4.4598,4.4598,4.4598,4.4598,4.4598,4.4598,2.5684,2.5684,2.5684,2.5684,2.5684,2.5684,2.5684,2.5684,2.5684,2.5684,2.5684,2.5684,2.5684,2.5684,2.5684,2.6562,2.7898,2.9223,3.0496,3.1681,3.2983,3.3734,3.4161,3.5006,3.5257,3.5768,3.6132,3.638,3.6417,3.6417,3.6417,3.6417,3.6417,3.6417,3.6417,3.6417,3.6417,3.6417,3.6417,3.6417,3.6329,3.5855,3.547,3.5044,3.4462,3.396,3.4025,3.3824,3.4262,3.5894,3.6237,3.7329,3.8819,3.925,3.9388,3.9388,3.9388,3.9388,3.9388,3.9388,3.9388,3.9388,3.9388,3.9388,3.9388,3.9388,3.9388,3.9388,3.9388,3.9388,3.9388,3.9388,3.9388,3.9388,3.9388,3.9388,3.9388,3.9388,3.9388,3.9388,3.9388,3.9388,3.9388,3.9388,3.9388,3.9388,3.9388,3.9388,3.9388,3.9388,3.9737,4.0324,4.1062,4.1997,4.2878,4.3902,4.4389,4.4604,4.4632,4.4666,4.4807,4.4874,4.4818,4.4852,4.4818,4.4902,4.5072,4.5021,4.4733,4.4835,4.5156,4.4953,4.4615,4.4649,4.4902,2.5508,2.5684,2.5684,2.5684,2.5684,2.5684,2.5684,2.5684,2.5684,2.5684,2.5684,2.5684,2.5684,2.5684,2.5684,2.6428,2.7626,2.8808,3.0045,3.1223,3.2653,3.3596,3.3947,3.4412,3.4756,3.5433,3.5793,3.6094,3.6232,3.6405,3.6417,3.6417,3.6417,3.6417,3.6417,3.6417,3.6417,3.6417,3.6417,3.6417,3.6355,3.6132,3.5868,3.5495,3.4718,3.4261,3.3859,3.3413,3.381,3.5116,3.5359,3.6344,3.7904,3.8546,3.8671,3.9388,3.9388,3.9388,3.9388,3.9388,3.9388,3.9388,3.9388,3.9388,3.9388,3.9388,3.9388,3.9388,3.9388,3.9388,3.9388,3.9388,3.9388,3.9388,3.9388,3.9388,3.9388,3.9388,3.9388,3.9388,3.9388,3.9388,3.9388,3.9388,3.9388,3.9388,3.9388,3.9388,3.9388,3.9388,3.9864,4.0535,4.1346,4.2221,4.3092,4.3977,4.4456,4.4716,4.4716,4.4807,4.5196,4.528,4.5314,4.5602,4.5923,4.5923,4.5754,4.5551,4.5382,4.5585,4.5838,4.5635,4.5512,4.5754,4.5957,2.5098,2.5352,2.5362,2.5352,2.5372,2.5469,2.5557,2.5566,2.5645,2.5684,2.5684,2.5684,2.5684,2.5684,2.5732,2.6197,2.7125,2.8669,2.9818,3.0956,3.2232,3.3233,3.3621,3.3884,3.4374,3.5119,3.5445,3.5708,3.6056,3.6317,3.6417,3.6417,3.6417,3.6417,3.6417,3.6417,3.6417,3.6417,3.6417,3.6417,3.6405,3.6405,3.6119,3.568,3.5102,3.4512,3.4085,3.3407,3.3641,3.4511,3.4787,3.5815,3.751,3.7994,3.8472,3.9141,3.9388,3.9388,3.9388,3.9388,3.9388,3.9388,3.9388,3.9388,3.9388,3.9388,3.9388,3.9388,3.9388,3.9388,3.9388,3.9388,3.9388,3.9388,3.9388,3.9388,3.9388,3.9388,3.9388,3.9388,3.9388,3.9388,3.9388,3.9388,3.9388,3.9388,3.9388,3.9388,3.9403,3.9418,4.0211,4.0922,4.1557,4.2636,4.3989,4.4565,4.4851,4.4976,4.4993,4.5229,4.5771,4.6024,4.6092,4.6464,4.6887,4.6887,4.6667,4.638,4.6109,4.621,4.6346,4.6549,4.6616,4.6836,4.6972,2.4473,2.4512,2.4456,2.4531,2.458,2.4951,2.5174,2.5215,2.5528,2.5684,2.5684,2.5684,2.5684,2.5684,2.5684,2.5781,2.6004,2.8308,2.9269,3.0361,3.1757,3.286,3.3301,3.3621,3.3935,3.4286,3.4818,3.5307,3.5671,3.6081,3.6292,3.6417,3.6417,3.6417,3.6417,3.6417,3.6417,3.6417,3.6417,3.6417,3.6417,3.6417,3.6355,3.6116,3.5341,3.4643,3.46,3.3696,3.3466,3.4468,3.447,3.5264,3.6816,3.7434,3.8032,3.8833,3.9352,3.9388,3.9388,3.9388,3.9388,3.9388,3.9388,3.9388,3.9388,3.9388,3.9388,3.9388,3.9388,3.9388,3.9388,3.9388,3.9388,3.9388,3.9388,3.9388,3.9388,3.9388,3.9388,3.9388,3.9388,3.9388,3.9388,3.9388,3.9388,3.9388,3.9388,3.9388,3.9499,3.9622,4.062,4.1353,4.1865,4.3115,4.5081,4.5652,4.5703,4.5872,4.5974,4.6244,4.6633,4.6769,4.6836,4.709,4.7428,4.7513,4.7581,4.7344,4.709,4.6836,4.6887,4.7293,4.7361,4.7394,4.7597,2.3877,2.3633,2.3588,2.3926,2.4453,2.493,2.5059,2.5146,2.5537,2.5684,2.5684,2.5684,2.5684,2.5684,2.5684,2.5684,2.5917,2.7389,2.8588,2.9727,3.1057,3.2283,3.2823,3.3319,3.3571,3.3897,3.4424,3.4969,3.552,3.5805,3.6094,3.6292,3.6405,3.6417,3.6417,3.6417,3.6417,3.6417,3.6417,3.6417,3.6417,3.6417,3.6417,3.6329,3.5717,3.5019,3.463,3.3997,3.3786,3.3743,3.3768,3.4746,3.5935,3.654,3.742,3.8472,3.898,3.9352,3.9388,3.9388,3.9388,3.9388,3.9388,3.9388,3.9388,3.9388,3.9388,3.9388,3.9388,3.9388,3.9388,3.9388,3.9388,3.9388,3.9388,3.9388,3.9388,3.9388,3.9508,3.9568,3.9463,3.9388,3.9388,3.9388,3.9388,3.9388,3.9388,3.9448,3.9679,3.9974,4.0946,4.1969,4.2534,4.3781,4.5708,4.622,4.6469,4.6735,4.6955,4.7175,4.7411,4.7479,4.7581,4.78,4.802,4.8206,4.8308,4.8274,4.8105,4.7851,4.797,4.8274,4.8223,4.8003,4.8156,2.3418,2.312,2.3237,2.3662,2.4258,2.4687,2.4998,2.5184,2.5537,2.5684,2.5684,2.5684,2.5684,2.5684,2.5684,2.5684,2.6197,2.7447,2.8541,2.9772,3.1101,3.2152,3.284,3.3187,3.3319,3.3633,3.3935,3.4437,3.5169,3.5395,3.5881,3.6219,3.6417,3.6417,3.6417,3.6417,3.6417,3.6417,3.6417,3.6417,3.6417,3.6417,3.6417,3.6329,3.5793,3.5194,3.4726,3.4135,3.3596,3.3374,3.3326,3.3755,3.465,3.5668,3.6696,3.7738,3.8694,3.9352,3.9388,3.9388,3.9388,3.9388,3.9388,3.9388,3.9388,3.9388,3.9388,3.9388,3.9388,3.9388,3.9388,3.9388,3.9388,3.9388,3.9388,3.9388,3.9388,3.9403,3.9597,3.9783,3.9753,3.9873,4.0187,4.0247,4.0053,4.0008,3.9888,4.0068,4.0397,4.0775,4.1325,4.2361,4.3311,4.4772,4.6293,4.6777,4.7246,4.7767,4.7936,4.7953,4.8105,4.8156,4.824,4.8443,4.8663,4.8934,4.8883,4.8663,4.8765,4.8883,4.8866,4.8748,4.8748,4.8545,4.868,2.312,2.3149,2.3564,2.3769,2.3935,2.4277,2.4697,2.5155,2.5537,2.5684,2.5684,2.5684,2.5684,2.5684,2.5684,2.5684,2.6197,2.7945,2.9177,2.9772,3.1368,3.2667,3.3038,3.3149,3.3187,3.3232,3.3558,3.4085,3.4781,3.5144,3.573,3.6207,3.6417,3.6417,3.6417,3.6417,3.6417,3.6417,3.6417,3.6417,3.6417,3.6417,3.6417,3.6292,3.5956,3.5441,3.4751,3.4336,3.3771,3.3206,3.3136,3.3628,3.4609,3.5654,3.6682,3.7738,3.8819,3.9352,3.9388,3.9388,3.9388,3.9388,3.9388,3.9388,3.9388,3.9388,3.9388,3.9388,3.9388,3.9388,3.9388,3.9388,3.9388,3.9388,3.9388,3.9508,3.9523,3.9627,3.9903,4.0262,4.0427,4.0591,4.101,4.1205,4.0905,4.0696,4.0472,4.0621,4.098,4.1445,4.193,4.2911,4.4002,4.5289,4.6677,4.7452,4.8058,4.8565,4.8765,4.8612,4.8629,4.8663,4.8815,4.9018,4.9018,4.9018,4.9018,4.8968,4.9018,4.9018,4.9018,4.8951,4.9001,4.9018,4.9018,2.3101,2.311,2.3257,2.3682,2.4219,2.4668,2.4998,2.5184,2.5508,2.5684,2.5684,2.5684,2.5684,2.5684,2.5684,2.5732,2.6062,2.721,2.8402,2.9636,3.1279,3.2239,3.2797,3.3124,3.3124,3.3162,3.3382,3.3897,3.4705,3.4956,3.5592,3.6179,3.6417,3.6417,3.6417,3.6417,3.6417,3.6417,3.6417,3.6417,3.6417,3.6417,3.6405,3.6392,3.6132,3.5629,3.4826,3.4449,3.3972,3.3219,3.3124,3.3641,3.4609,3.5654,3.6696,3.7738,3.8797,3.9388,3.9388,3.9388,3.9388,3.9388,3.9388,3.9388,3.9388,3.9388,3.9388,3.9418,3.9463,3.9448,3.9388,3.9403,3.9403,3.9388,3.9463,3.9768,3.9903,4.0083,4.0322,4.0801,4.11,4.116,4.1444,4.1803,4.1654,4.1564,4.1399,4.1205,4.1429,4.1918,4.2455,4.3546,4.4689,4.5913,4.7013,4.777,4.8335,4.8765,4.8934,4.89,4.8968,4.9018,4.9018,4.9018,4.9018,4.9018,4.9018,4.9018,4.9018,4.9018,4.9018,4.9018,4.9018,4.9018,4.9018,2.3101,2.311,2.3257,2.3769,2.4394,2.4727,2.5037,2.5303,2.5605,2.5684,2.5684,2.5684,2.5684,2.5684,2.5684,2.5684,2.5878,2.7542,2.8402,2.9636,3.1235,3.2295,3.2939,3.3124,3.3124,3.3124,3.3237,3.3633,3.4643,3.468,3.5366,3.6166,3.6417,3.6417,3.6417,3.6417,3.6417,3.6417,3.6417,3.6417,3.6417,3.6417,3.6417,3.6417,3.6254,3.5902,3.5064,3.4562,3.4223,3.3432,3.324,3.3641,3.465,3.5668,3.6696,3.7753,3.8745,3.9301,3.9388,3.9388,3.9388,3.9388,3.9388,3.9388,3.9388,3.9388,3.9388,3.9433,3.9619,3.9738,3.9783,3.9732,3.9993,4.0008,4.0113,4.0412,4.0531,4.0726,4.098,4.1459,4.1728,4.1788,4.1953,4.2162,4.2357,4.2357,4.2342,4.2132,4.1938,4.2359,4.2814,4.3729,4.4876,4.6009,4.7059,4.8075,4.857,4.8954,4.9018,4.9018,4.9018,4.9018,4.9018,4.9018,4.9018,4.9018,4.9018,4.9018,4.9018,4.9018,4.9018,4.9018,4.9018,4.9018,4.9018,2.3101,2.3149,2.3594,2.3984,2.4355,2.4434,2.4922,2.5645,2.5684,2.5684,2.5684,2.5684,2.5684,2.5684,2.5684,2.5684,2.6052,2.8038,2.8947,2.9909,3.1412,3.2438,3.2995,3.3124,3.3124,3.3124,3.3224,3.3558,3.4542,3.4843,3.5454,3.6179,3.6405,3.6417,3.6417,3.6417,3.6417,3.6417,3.6417,3.6417,3.6417,3.6417,3.6417,3.6392,3.6229,3.5655,3.5014,3.4517,3.3997,3.3445,3.3167,3.3839,3.4705,3.5668,3.671,3.7829,3.8929,3.9228,3.9388,3.9388,3.9388,3.9388,3.9388,3.9388,3.9433,3.9508,3.9642,3.9843,4.0068,4.0277,4.0427,4.0771,4.11,4.1115,4.1115,4.125,4.1339,4.1534,4.1826,4.2126,4.2351,4.2491,4.2821,4.2991,4.2821,4.2895,4.288,4.288,4.2707,4.2781,4.3217,4.3436,4.4648,4.5916,4.6986,4.8047,4.8688,4.9001,4.9018,4.9018,4.9018,4.9018,4.9018,4.9018,4.9018,4.9018,4.9018,4.9018,4.9018,4.9018,4.9018,4.9018,4.9018,4.9018,4.9018,2.3101,2.311,2.3237,2.3574,2.3984,2.4287,2.4865,2.5625,2.5684,2.5684,2.5684,2.5684,2.5684,2.5684,2.5684,2.5684,2.6284,2.7258,2.8495,2.9761,3.1134,3.2152,3.2797,3.3124,3.3124,3.3124,3.3224,3.3458,3.4198,3.4751,3.5567,3.6292,3.6405,3.6417,3.6417,3.6417,3.6417,3.6417,3.6417,3.6417,3.6417,3.6417,3.6417,3.6367,3.6006,3.5429,3.4901,3.4349,3.3771,3.3257,3.3136,3.3839,3.5694,3.6132,3.6852,3.8694,3.9265,3.9388,3.9388,3.9388,3.9388,3.9403,3.9418,3.9388,3.9508,3.9798,4.0038,4.0307,4.0681,4.0995,4.116,4.1444,4.1683,4.1743,4.1758,4.1848,4.1953,4.2147,4.2402,4.2656,4.288,4.294,4.3275,4.326,4.308,4.323,4.3305,4.3305,4.3305,4.3305,4.3591,4.381,4.4713,4.6067,4.6884,4.7868,4.8513,4.9018,4.9018,4.9018,4.9018,4.9018,4.9018,4.9018,4.9018,4.9018,4.9018,4.9018,4.9018,4.9018,4.9018,4.9018,4.9018,4.9018,4.9018,2.3101,2.3101,2.3101,2.3389,2.3818,2.4248,2.4756,2.5148,2.5391,2.5547,2.5674,2.5684,2.5684,2.5684,2.5684,2.5732,2.583,2.7078,2.8319,2.9498,3.0574,3.1921,3.2711,3.3124,3.3124,3.3124,3.3199,3.3426,3.4035,3.4906,3.5818,3.6355,3.6417,3.6405,3.6417,3.6417,3.6417,3.6417,3.6417,3.6417,3.6417,3.6417,3.6417,3.6304,3.5771,3.5219,3.4738,3.4186,3.3633,3.3212,3.3136,3.3827,3.5628,3.6304,3.742,3.9068,3.9352,3.9388,3.9388,3.9388,3.9388,3.9463,3.9649,3.9813,3.9933,4.0142,4.0472,4.0801,4.1354,4.1826,4.1893,4.1998,4.2102,4.2207,4.2297,4.2372,4.2536,4.2701,4.2955,4.317,4.326,4.3245,4.3305,4.3305,4.3305,4.3305,4.3305,4.3305,4.3305,4.3305,4.3747,4.4182,4.5196,4.6349,4.7088,4.7836,4.8513,4.9018,4.9018,4.9018,4.9018,4.9018,4.9018,4.9018,4.9018,4.9018,4.9018,4.9018,4.9018,4.9018,4.9018,4.9018,4.9018,4.9018,4.9018,2.3101,2.3101,2.3101,2.3305,2.376,2.4102,2.4316,2.4404,2.4775,2.5225,2.5538,2.5723,2.5684,2.5684,2.5684,2.5684,2.5917,2.6754,2.7992,2.9361,3.0271,3.1557,3.2711,3.3124,3.3124,3.3124,3.3212,3.337,3.4022,3.4738,3.5441,3.6292,3.6279,3.6279,3.6392,3.6417,3.6417,3.6417,3.6417,3.6417,3.6417,3.6417,3.6392,3.6304,3.578,3.5157,3.4655,3.4161,3.3608,3.33,3.324,3.3683,3.521,3.6919,3.8345,3.8958,3.9352,3.9388,3.9388,3.9388,3.9493,3.9672,4.0023,4.0412,4.0636,4.0846,4.1205,4.1504,4.2051,4.2357,4.2506,4.2641,4.2776,4.2806,4.2851,4.2895,4.297,4.306,4.311,4.3305,4.3305,4.3305,4.3305,4.3305,4.3305,4.3305,4.3305,4.3305,4.3409,4.3409,4.3927,4.4548,4.5473,4.6488,4.7373,4.808,4.8688,4.9018,4.9018,4.9018,4.9018,4.9018,4.9018,4.9018,4.9018,4.9018,4.9018,4.9018,4.9018,4.9018,4.9018,4.9018,4.9018,4.9018,4.9018,2.3101,2.3101,2.3101,2.3159,2.3301,2.3354,2.3608,2.3935,2.4033,2.4531,2.5195,2.5547,2.5684,2.5684,2.5684,2.5684,2.5868,2.6245,2.7484,2.8773,2.9818,3.1146,3.2698,3.3025,3.3081,3.3124,3.3212,3.3357,3.3897,3.4349,3.4813,3.5642,3.5755,3.5868,3.6229,3.6241,3.6241,3.6191,3.6216,3.6254,3.6329,3.638,3.6392,3.6056,3.5579,3.4969,3.4449,3.3796,3.3382,3.3124,3.3124,3.4108,3.5774,3.7829,3.8943,3.9352,3.9388,3.9388,3.9388,3.9433,3.9582,4.0008,4.0442,4.107,4.1542,4.1796,4.2051,4.2321,4.2551,4.2851,4.3075,4.3185,4.3305,4.3305,4.3305,4.3305,4.3305,4.3305,4.3305,4.3305,4.3305,4.3305,4.3305,4.3305,4.3305,4.3305,4.3305,4.3369,4.3591,4.3732,4.4282,4.4893,4.5618,4.6558,4.7539,4.8257,4.8829,4.9018,4.9018,4.9018,4.9018,4.9018,4.9018,4.9018,4.9018,4.9018,4.9018,4.9018,4.9018,4.9018,4.9018,4.9018,4.9018,4.9018,4.9018,2.3101,2.3101,2.3101,2.3101,2.3101,2.3101,2.3281,2.3506,2.3701,2.4043,2.456,2.5127,2.5537,2.5635,2.5684,2.5684,2.5684,2.5732,2.6887,2.819,2.9418,3.0586,3.1733,3.284,3.3081,3.3124,3.3162,3.3375,3.3784,3.3985,3.4424,3.5019,3.5169,3.5295,3.5655,3.5655,3.568,3.5604,3.5692,3.5805,3.6006,3.6182,3.6392,3.6091,3.5454,3.4831,3.4361,3.3721,3.3244,3.3368,3.3556,3.502,3.6515,3.7919,3.8833,3.9228,3.9388,3.9388,3.9388,3.9493,3.9768,4.0247,4.0801,4.1452,4.2081,4.2351,4.2671,4.2925,4.2955,4.317,4.317,4.329,4.3305,4.3305,4.3305,4.3305,4.3305,4.3305,4.3305,4.3305,4.3305,4.3305,4.3305,4.3305,4.3305,4.3305,4.3305,4.3305,4.3551,4.4151,4.4668,4.5379,4.6173,4.7088,4.8193,4.8656,4.8909,4.9018,4.9018,4.9018,4.9018,4.9018,4.9018,4.9018,4.9018,4.9018,4.9018,4.9018,4.9018,4.9018,4.9018,4.9018,4.9018,4.9018,4.9018,2.3101,2.3101,2.3101,2.3101,2.3101,2.3101,2.311,2.3169,2.3535,2.374,2.3926,2.4636,2.5146,2.5518,2.5684,2.5684,2.5684,2.5684,2.662,2.7731,2.8912,3.0226,3.1412,3.2469,3.2896,3.3124,3.3136,3.3375,3.3684,3.3746,3.3947,3.45,3.4638,3.4663,3.4655,3.4705,3.4843,3.4951,3.5014,3.5056,3.5479,3.5981,3.6194,3.5931,3.5391,3.4756,3.4387,3.3822,3.325,3.3641,3.4275,3.5802,3.7074,3.8159,3.8671,3.9228,3.9388,3.9388,3.9418,3.9604,4.0008,4.0516,4.113,4.1811,4.247,4.2836,4.3155,4.326,4.329,4.3305,4.3305,4.3305,4.3305,4.3305,4.3305,4.3305,4.3305,4.3305,4.3305,4.3305,4.3305,4.3305,4.3305,4.3305,4.3305,4.3305,4.3305,4.3305,4.3551,4.4441,4.5159,4.6048,4.6986,4.795,4.8798,4.894,4.9001,4.9018,4.9018,4.9018,4.9018,4.9018,4.9018,4.9018,4.9018,4.9018,4.9018,4.9018,4.9018,4.9018,4.9018,4.9018,4.9018,4.9018,4.9018,2.3101,2.3101,2.3101,2.3101,2.3101,2.3101,2.3101,2.3101,2.3179,2.3437,2.375,2.3935,2.4434,2.5225,2.5615,2.5654,2.5586,2.5645,2.6476,2.7636,2.8819,3.0,3.1235,3.2326,3.2939,3.3124,3.3124,3.3212,3.3395,3.3357,3.3508,3.4022,3.406,3.4248,3.4663,3.4638,3.455,3.4512,3.455,3.4675,3.4856,3.5391,3.5931,3.5717,3.5316,3.4914,3.4437,3.3621,3.3275,3.3641,3.4856,3.6383,3.7625,3.8546,3.9068,3.9228,3.9388,3.9388,3.9448,3.9843,4.0322,4.0995,4.1677,4.2312,4.2806,4.3105,4.3275,4.3275,4.3305,4.3305,4.3305,4.3305,4.3305,4.3305,4.3305,4.3305,4.3305,4.3305,4.3305,4.3305,4.3305,4.3305,4.3305,4.3305,4.3305,4.3305,4.3305,4.3329,4.3708,4.4631,4.5582,4.6609,4.7622,4.8338,4.897,4.897,4.9018,4.9018,4.9018,4.9018,4.9018,4.9018,4.9018,4.9018,4.9018,4.9018,4.9018,4.9018,4.9018,4.9018,4.9018,4.9018,4.9018,4.9018,4.9018]}]]